[[{"header":{"parameterUnit":"m.s-1","parameterCategory":1,"la1":30.6,"la2":29.2853,"lo1":-89.7004,"lo2":-87.6739,"dy":0.0162,"dx":0.0183,"nx":112,"ny":82,"refTime":"2023-10-01T18:00:00:Z","depth":0,"parameterNumber":2,"parameterNumberName":"U-component_of_WINDS"},"data":[0.0,0.0,0.0,0.0,0.0,0.0,0.0,0.0,0.0,0.0,0.0,0.0,0.0,0.0,0.0,0.0,0.0,0.0,0.0,0.0,0.0,0.0,0.0,0.0,0.0,0.0,0.0,0.0,0.0,0.0,0.0,0.0,0.0,0.0,0.0,0.0,0.0,0.0,0.0,0.0,0.0,0.0,0.0,0.0,0.0,0.0,0.0,0.0,0.0,0.0,0.0,0.0,0.0,0.0,0.0,0.0,0.0,0.0,0.0,0.0,0.0,0.0,0.0,0.0,0.0,0.0,0.0,0.0,0.0,0.0,0.0,0.0,0.0,0.0,0.0,0.0,0.0,0.0,0.0,0.0,0.0,0.0,0.0,0.0,0.0,0.0,0.0,0.0,0.0,0.0,0.0,-3.6277,-3.859,-3.9999,-4.0031,-3.7666,-3.5015,-3.2217,0.0,0.0,0.0,0.0,0.0,0.0,0.0,0.0,0.0,0.0,0.0,0.0,0.0,0.0,0.0,0.0,0.0,0.0,0.0,0.0,0.0,0.0,0.0,0.0,0.0,0.0,0.0,0.0,0.0,0.0,0.0,0.0,0.0,0.0,0.0,0.0,0.0,0.0,0.0,0.0,0.0,0.0,0.0,0.0,0.0,0.0,0.0,0.0,0.0,0.0,0.0,0.0,0.0,0.0,0.0,0.0,0.0,0.0,0.0,0.0,0.0,0.0,0.0,0.0,0.0,0.0,0.0,0.0,0.0,0.0,0.0,0.0,0.0,0.0,0.0,0.0,0.0,0.0,0.0,0.0,0.0,0.0,0.0,0.0,0.0,0.0,0.0,0.0,0.0,0.0,0.0,0.0,0.0,0.0,0.0,0.0,0.0,0.0,0.0,0.0,0.0,0.0,0.0,0.0,-3.4904,-3.8942,-3.9652,-3.9815,-3.9691,-3.7547,-3.5146,-3.2742,0.0,0.0,0.0,0.0,0.0,0.0,0.0,0.0,0.0,0.0,0.0,0.0,0.0,0.0,0.0,0.0,0.0,0.0,0.0,0.0,0.0,0.0,0.0,0.0,0.0,0.0,0.0,0.0,0.0,0.0,0.0,0.0,0.0,0.0,0.0,0.0,0.0,0.0,0.0,0.0,0.0,0.0,0.0,0.0,0.0,0.0,0.0,0.0,0.0,0.0,0.0,0.0,0.0,0.0,0.0,0.0,0.0,0.0,0.0,0.0,0.0,0.0,0.0,0.0,0.0,0.0,0.0,0.0,0.0,0.0,0.0,0.0,0.0,0.0,0.0,0.0,0.0,0.0,0.0,0.0,0.0,0.0,0.0,0.0,0.0,0.0,0.0,0.0,0.0,0.0,0.0,0.0,0.0,0.0,0.0,0.0,0.0,0.0,0.0,0.0,0.0,0.0,0.0,-3.4001,-3.688,-3.971,-4.0133,-4.004,-3.9629,-3.7337,-3.4792,-3.2203,-2.8983,0.0,0.0,0.0,0.0,0.0,0.0,0.0,0.0,0.0,0.0,0.0,0.0,0.0,0.0,0.0,0.0,0.0,0.0,0.0,0.0,0.0,0.0,0.0,0.0,0.0,0.0,0.0,0.0,0.0,0.0,0.0,0.0,0.0,0.0,0.0,0.0,0.0,0.0,0.0,0.0,0.0,0.0,0.0,0.0,0.0,0.0,0.0,0.0,0.0,0.0,0.0,0.0,0.0,0.0,0.0,0.0,0.0,0.0,0.0,0.0,0.0,0.0,0.0,0.0,0.0,0.0,0.0,0.0,0.0,0.0,0.0,0.0,0.0,0.0,0.0,0.0,0.0,0.0,0.0,0.0,0.0,0.0,0.0,0.0,0.0,0.0,0.0,0.0,0.0,0.0,0.0,0.0,0.0,0.0,0.0,0.0,0.0,0.0,0.0,0.0,0.0,0.0,-3.5795,-3.8104,-3.9593,-4.004,-3.9913,-3.9157,-3.6689,-3.4034,-3.1305,-2.8381,0.0,0.0,0.0,0.0,0.0,0.0,0.0,0.0,0.0,0.0,0.0,0.0,0.0,0.0,0.0,0.0,0.0,0.0,0.0,0.0,0.0,0.0,0.0,0.0,0.0,0.0,0.0,0.0,0.0,0.0,0.0,0.0,0.0,0.0,0.0,0.0,0.0,0.0,0.0,0.0,0.0,0.0,0.0,0.0,0.0,0.0,0.0,0.0,0.0,0.0,0.0,0.0,0.0,0.0,0.0,0.0,0.0,0.0,0.0,0.0,0.0,0.0,0.0,0.0,0.0,0.0,0.0,0.0,0.0,0.0,0.0,0.0,0.0,0.0,0.0,0.0,0.0,0.0,0.0,0.0,0.0,0.0,0.0,0.0,0.0,0.0,0.0,0.0,0.0,0.0,0.0,0.0,0.0,0.0,0.0,0.0,0.0,0.0,0.0,0.0,0.0,0.0,-3.5373,-3.7591,-3.8935,-3.9122,-3.8682,-3.7744,-3.5182,-3.2634,-3.0281,-2.7412,0.0,0.0,0.0,0.0,0.0,0.0,0.0,0.0,0.0,0.0,0.0,0.0,0.0,0.0,0.0,0.0,0.0,0.0,0.0,0.0,0.0,0.0,0.0,0.0,0.0,0.0,0.0,0.0,0.0,0.0,0.0,0.0,0.0,0.0,0.0,0.0,0.0,0.0,0.0,0.0,0.0,0.0,0.0,0.0,0.0,0.0,0.0,0.0,0.0,0.0,0.0,0.0,0.0,0.0,0.0,0.0,0.0,0.0,0.0,0.0,0.0,0.0,0.0,0.0,0.0,0.0,0.0,0.0,0.0,0.0,0.0,0.0,0.0,0.0,0.0,0.0,0.0,0.0,0.0,0.0,0.0,0.0,0.0,0.0,0.0,0.0,0.0,0.0,0.0,0.0,0.0,0.0,0.0,0.0,0.0,0.0,0.0,0.0,0.0,0.0,0.0,0.0,-3.4707,-3.6631,0.0,-3.8054,-3.7616,-3.6844,-3.4484,-3.1936,-2.9267,0.0,0.0,0.0,0.0,0.0,0.0,0.0,0.0,0.0,0.0,0.0,0.0,0.0,0.0,0.0,0.0,0.0,0.0,0.0,0.0,0.0,0.0,0.0,0.0,0.0,0.0,0.0,0.0,0.0,0.0,0.0,0.0,0.0,0.0,0.0,0.0,0.0,0.0,0.0,0.0,0.0,0.0,0.0,0.0,0.0,0.0,0.0,0.0,0.0,0.0,0.0,0.0,0.0,0.0,0.0,0.0,0.0,0.0,0.0,0.0,0.0,0.0,0.0,0.0,0.0,0.0,0.0,0.0,0.0,0.0,0.0,0.0,0.0,0.0,0.0,0.0,0.0,0.0,0.0,0.0,0.0,0.0,0.0,0.0,0.0,0.0,0.0,0.0,0.0,0.0,0.0,0.0,0.0,0.0,0.0,0.0,0.0,0.0,0.0,0.0,0.0,0.0,-3.2047,-3.4023,-3.5768,0.0,-3.7203,-3.6673,-3.573,-3.3548,-3.1089,-2.8267,0.0,0.0,0.0,0.0,0.0,0.0,0.0,0.0,0.0,0.0,0.0,0.0,0.0,0.0,0.0,0.0,0.0,0.0,0.0,0.0,0.0,0.0,0.0,0.0,0.0,0.0,0.0,0.0,0.0,0.0,0.0,0.0,0.0,0.0,0.0,0.0,0.0,0.0,0.0,0.0,0.0,0.0,0.0,0.0,0.0,0.0,0.0,0.0,0.0,0.0,0.0,0.0,0.0,0.0,0.0,0.0,0.0,0.0,0.0,0.0,0.0,0.0,0.0,0.0,0.0,0.0,0.0,0.0,0.0,0.0,0.0,0.0,0.0,0.0,0.0,0.0,0.0,0.0,0.0,0.0,0.0,0.0,0.0,0.0,0.0,0.0,0.0,0.0,0.0,0.0,0.0,0.0,0.0,0.0,0.0,0.0,0.0,0.0,0.0,0.0,0.0,0.0,-3.1436,-3.3366,-3.5015,-3.6532,-3.655,-3.5875,-3.4401,-3.2316,-2.9923,0.0,0.0,0.0,0.0,0.0,0.0,0.0,0.0,0.0,0.0,0.0,0.0,0.0,0.0,0.0,0.0,0.0,0.0,0.0,0.0,0.0,0.0,0.0,0.0,0.0,0.0,0.0,0.0,0.0,0.0,0.0,0.0,0.0,0.0,0.0,0.0,0.0,0.0,0.0,0.0,0.0,0.0,0.0,0.0,0.0,0.0,0.0,0.0,0.0,0.0,0.0,0.0,0.0,0.0,0.0,0.0,0.0,0.0,0.0,0.0,0.0,0.0,0.0,0.0,0.0,0.0,0.0,0.0,0.0,0.0,0.0,0.0,0.0,0.0,0.0,0.0,0.0,0.0,0.0,0.0,0.0,0.0,0.0,0.0,0.0,0.0,0.0,0.0,0.0,0.0,0.0,0.0,0.0,0.0,0.0,0.0,0.0,0.0,0.0,0.0,0.0,0.0,0.0,-3.0748,-3.2279,-3.3659,-3.509,-3.51,-3.4434,-3.2958,-3.1319,-2.9261,-2.6535,0.0,0.0,0.0,0.0,0.0,0.0,0.0,0.0,0.0,0.0,0.0,0.0,0.0,0.0,0.0,0.0,0.0,0.0,0.0,0.0,0.0,0.0,0.0,0.0,0.0,0.0,0.0,0.0,0.0,0.0,0.0,0.0,0.0,0.0,0.0,0.0,0.0,0.0,0.0,0.0,0.0,0.0,0.0,0.0,0.0,0.0,0.0,0.0,0.0,0.0,0.0,0.0,0.0,0.0,0.0,0.0,0.0,0.0,0.0,0.0,0.0,0.0,0.0,0.0,0.0,0.0,0.0,0.0,0.0,0.0,0.0,0.0,0.0,0.0,0.0,0.0,0.0,0.0,0.0,0.0,0.0,0.0,0.0,0.0,0.0,0.0,0.0,0.0,0.0,0.0,0.0,0.0,0.0,0.0,0.0,0.0,0.0,0.0,0.0,0.0,0.0,0.0,-3.01,-3.1389,-3.2622,-3.4028,-3.4065,-3.3373,-3.1923,-3.074,-2.8947,-2.6274,0.0,0.0,0.0,0.0,0.0,0.0,0.0,0.0,0.0,0.0,0.0,0.0,0.0,0.0,0.0,0.0,0.0,0.0,0.0,0.0,0.0,0.0,0.0,0.0,0.0,0.0,0.0,0.0,0.0,0.0,0.0,0.0,0.0,0.0,0.0,0.0,0.0,0.0,0.0,0.0,0.0,0.0,0.0,0.0,0.0,0.0,0.0,0.0,0.0,0.0,0.0,0.0,0.0,0.0,0.0,0.0,0.0,0.0,0.0,0.0,0.0,0.0,0.0,0.0,0.0,0.0,0.0,0.0,0.0,0.0,0.0,0.0,0.0,0.0,0.0,0.0,0.0,0.0,0.0,0.0,0.0,0.0,0.0,0.0,0.0,0.0,0.0,0.0,0.0,0.0,0.0,0.0,0.0,0.0,0.0,0.0,0.0,0.0,0.0,0.0,0.0,0.0,-2.9433,-3.0684,-3.1859,-3.3331,-3.3269,-3.2591,-3.1193,-3.0328,-2.8757,-2.614,0.0,0.0,0.0,0.0,0.0,0.0,0.0,0.0,0.0,0.0,0.0,0.0,0.0,0.0,0.0,0.0,0.0,0.0,0.0,0.0,0.0,0.0,0.0,0.0,0.0,0.0,0.0,0.0,0.0,0.0,0.0,0.0,0.0,0.0,0.0,0.0,0.0,0.0,0.0,0.0,0.0,0.0,0.0,0.0,0.0,0.0,0.0,0.0,0.0,0.0,0.0,0.0,0.0,0.0,0.0,0.0,0.0,0.0,0.0,0.0,-2.4664,0.0,0.0,0.0,0.0,0.0,0.0,0.0,0.0,0.0,0.0,0.0,0.0,0.0,0.0,0.0,0.0,0.0,0.0,0.0,0.0,0.0,0.0,0.0,0.0,0.0,0.0,0.0,0.0,0.0,0.0,0.0,0.0,0.0,0.0,0.0,0.0,0.0,0.0,0.0,0.0,0.0,-2.8561,-2.9898,-3.1103,-3.228,-3.2245,-3.1577,-3.0212,-2.9354,-2.7854,-2.5308,-2.3877,0.0,0.0,0.0,0.0,0.0,0.0,0.0,0.0,0.0,0.0,0.0,0.0,0.0,0.0,0.0,0.0,0.0,0.0,0.0,0.0,0.0,0.0,0.0,0.0,0.0,0.0,0.0,0.0,0.0,0.0,0.0,0.0,0.0,0.0,0.0,0.0,0.0,0.0,0.0,0.0,0.0,0.0,0.0,0.0,0.0,0.0,0.0,0.0,0.0,0.0,0.0,0.0,0.0,0.0,0.0,0.0,0.0,0.0,0.0,0.0,-2.5521,0.0,0.0,0.0,0.0,0.0,0.0,0.0,0.0,0.0,0.0,0.0,0.0,0.0,0.0,0.0,0.0,0.0,0.0,0.0,0.0,0.0,0.0,0.0,0.0,0.0,0.0,0.0,0.0,0.0,0.0,0.0,0.0,0.0,0.0,0.0,0.0,0.0,0.0,0.0,0.0,-2.7759,-2.9099,-3.0237,-3.1272,-3.1294,-3.0671,-2.9229,-2.8724,-2.7575,-2.5365,-2.4131,0.0,0.0,0.0,0.0,0.0,0.0,0.0,0.0,0.0,0.0,0.0,0.0,0.0,0.0,0.0,0.0,0.0,0.0,0.0,0.0,0.0,0.0,0.0,0.0,0.0,0.0,0.0,0.0,0.0,0.0,0.0,0.0,0.0,0.0,0.0,0.0,0.0,0.0,0.0,0.0,0.0,0.0,0.0,0.0,0.0,0.0,0.0,0.0,0.0,0.0,0.0,0.0,0.0,-2.943,-2.9735,-2.977,-2.9316,-2.9321,-2.9642,-2.8211,-2.7305,-2.6666,-2.5658,0.0,0.0,0.0,0.0,0.0,0.0,0.0,0.0,0.0,0.0,0.0,0.0,0.0,0.0,0.0,0.0,0.0,0.0,0.0,0.0,0.0,0.0,0.0,0.0,-2.4995,-2.4672,-2.3595,0.0,0.0,0.0,0.0,0.0,0.0,0.0,0.0,0.0,0.0,0.0,-2.71,-2.8317,-2.9342,-3.0302,-3.0355,-2.9706,-2.8318,-2.8145,-2.7358,-2.5535,-2.4531,-2.338,0.0,0.0,0.0,0.0,0.0,0.0,0.0,0.0,0.0,0.0,0.0,0.0,0.0,0.0,0.0,0.0,0.0,0.0,0.0,0.0,0.0,0.0,0.0,0.0,0.0,0.0,0.0,0.0,0.0,0.0,0.0,0.0,-2.1052,-2.1511,0.0,0.0,0.0,0.0,0.0,0.0,0.0,0.0,0.0,0.0,0.0,0.0,0.0,-2.7469,-2.8731,-2.8938,-2.9415,-3.0233,-3.0113,-3.0273,-3.0663,-3.0316,-3.0247,-3.0287,-2.9842,0.0,-2.8118,-2.6744,0.0,0.0,0.0,0.0,0.0,0.0,0.0,0.0,0.0,0.0,0.0,0.0,0.0,0.0,0.0,0.0,0.0,0.0,0.0,0.0,0.0,0.0,-2.6,-2.6212,-2.6254,-2.6122,0.0,-2.4036,-2.2817,-2.2714,-2.183,0.0,0.0,0.0,0.0,0.0,0.0,0.0,-2.6702,-2.7562,-2.8387,-2.9449,-2.9263,-2.8586,-2.7433,-2.7186,-2.6396,-2.4764,-2.4488,-2.3766,-2.2271,-2.1188,0.0,0.0,0.0,0.0,0.0,0.0,0.0,0.0,0.0,0.0,0.0,0.0,0.0,0.0,0.0,0.0,0.0,0.0,0.0,0.0,0.0,0.0,0.0,0.0,0.0,0.0,0.0,0.0,0.0,-2.1501,-2.2352,-2.2777,-2.2676,-2.2453,0.0,0.0,0.0,0.0,0.0,0.0,0.0,0.0,0.0,-2.7498,-2.8066,-2.8721,-2.961,-3.0107,-3.0601,-3.098,-3.1124,-3.1224,-3.1184,-3.0876,-3.0623,-3.0407,-3.0064,-2.9558,-2.8873,-2.7815,-2.6705,-2.5603,0.0,0.0,0.0,0.0,-2.4009,-2.4049,-2.4331,-2.4431,-2.4371,-2.4088,0.0,0.0,0.0,0.0,0.0,0.0,0.0,0.0,0.0,0.0,-2.625,-2.6454,-2.6634,-2.6681,-2.6468,-2.5365,-2.4256,0.0,-2.2776,-2.1943,-2.1943,0.0,0.0,0.0,0.0,-2.442,-2.6081,-2.7002,-2.7762,-2.8457,-2.8235,-2.7609,-2.6476,-2.6268,-2.569,-2.4425,-2.4038,-2.3525,-2.2777,-2.1691,-2.0665,0.0,0.0,0.0,0.0,0.0,0.0,0.0,0.0,0.0,0.0,0.0,0.0,0.0,0.0,0.0,0.0,0.0,0.0,0.0,0.0,0.0,0.0,0.0,0.0,0.0,0.0,0.0,0.0,-2.2458,-2.3288,-2.3841,-2.39,-2.3782,0.0,0.0,0.0,0.0,0.0,0.0,-2.6141,-2.7237,-2.8103,-2.8622,-2.9332,-2.9853,-3.0277,-3.0992,-3.1301,-3.1301,-3.1568,-3.1549,-3.126,-3.094,-3.0588,-3.0284,-3.0005,-2.9583,-2.9194,-2.8496,-2.7617,-2.6634,-2.616,-2.5583,-2.5064,-2.542,-2.5555,-2.5594,-2.5952,-2.599,-2.5806,-2.5478,-2.4679,-2.3878,-2.3635,0.0,0.0,0.0,0.0,-2.4356,-2.5022,-2.5765,-2.6364,-2.6607,-2.6733,-2.675,-2.6646,-2.6109,-2.5445,0.0,-2.3572,-2.278,-2.278,0.0,0.0,0.0,0.0,-2.4431,-2.5662,-2.6511,-2.7128,-2.7441,-2.7307,-2.672,-2.5655,-2.5412,-2.502,-2.4135,-2.3578,-2.3198,-2.3019,-2.2018,-2.1195,-2.0566,0.0,0.0,0.0,0.0,0.0,0.0,0.0,0.0,0.0,0.0,0.0,0.0,0.0,0.0,0.0,0.0,0.0,0.0,0.0,0.0,0.0,0.0,0.0,0.0,0.0,0.0,0.0,0.0,0.0,-2.4174,-2.4221,0.0,0.0,0.0,0.0,-2.473,-2.6258,-2.7425,-2.7841,-2.8653,-2.9485,-3.0357,-3.0414,-3.0641,-3.1016,-3.1073,-3.1153,-3.1091,-3.0846,-3.0642,-3.0624,-3.0334,-3.013,-3.0112,-2.9723,-2.9444,-2.9071,-2.8724,-2.8294,-2.7876,-2.746,-2.727,-2.7252,-2.727,-2.727,-2.727,-2.7289,-2.7043,-2.665,-2.6631,-2.578,-2.4771,-2.4287,-2.3871,0.0,0.0,-2.4679,-2.5392,-2.6083,-2.6448,-2.6715,-2.703,-2.6806,-2.6403,-2.596,-2.5959,-2.597,0.0,-2.4436,-2.3553,-2.3553,0.0,-2.2986,-2.3444,-2.3895,-2.4563,-2.5649,-2.5989,-2.6255,-2.6565,-2.6404,-2.5934,-2.5182,-2.4723,-2.4242,-2.376,-2.3279,-2.292,-2.2734,-2.2222,-2.1675,-2.0956,-1.983,0.0,0.0,0.0,0.0,0.0,0.0,0.0,0.0,0.0,0.0,0.0,0.0,0.0,0.0,0.0,0.0,0.0,0.0,0.0,0.0,0.0,0.0,0.0,0.0,0.0,0.0,0.0,0.0,-2.5149,-2.5481,0.0,-2.5629,-2.5964,-2.626,-2.6354,-2.732,-2.8046,-2.8287,-2.8811,-2.9415,-3.0021,-3.0039,-3.0238,-3.0656,-3.0656,-3.0656,-3.0656,-3.0528,-3.032,-3.005,-2.9942,-2.9609,-2.9128,-2.9002,-2.8789,-2.8428,-2.8069,-2.783,-2.7585,-2.7441,-2.7223,-2.6988,-2.6988,-2.6988,-2.6988,-2.6988,-2.6897,-2.668,-2.6173,-2.5827,-2.5512,-2.5057,-2.4913,-2.502,-2.5321,-2.5623,-2.5876,-2.613,-2.6059,-2.5929,-2.6048,-2.5868,-2.5684,-2.5527,-2.5444,-2.5325,-2.5214,-2.4609,-2.4115,-2.4115,-2.3606,-2.3281,-2.343,-2.4104,-2.4709,-2.5098,-2.5467,-2.5771,-2.5841,-2.5695,-2.5355,-2.4757,-2.4164,-2.3615,-2.3147,-2.2565,-2.2176,-2.2101,-2.1841,-2.1416,-2.0886,-2.0053,-1.9111,0.0,0.0,0.0,0.0,0.0,0.0,0.0,0.0,0.0,0.0,0.0,0.0,0.0,0.0,0.0,0.0,0.0,0.0,0.0,0.0,0.0,0.0,0.0,0.0,0.0,0.0,-2.4756,-2.5682,-2.6145,-2.643,-2.6554,-2.6928,-2.7227,-2.7299,-2.8023,-2.8465,-2.8542,-2.8926,-2.9305,-2.9632,-2.9632,-2.9772,-3.0035,-3.0035,-3.0035,-3.0035,-2.9905,-2.97,-2.9439,-2.931,-2.8995,-2.8499,-2.8499,-2.8303,-2.7959,-2.7706,-2.7497,-2.728,-2.726,-2.7116,-2.6889,-2.6889,-2.6889,-2.6871,-2.6848,-2.6812,-2.6765,-2.6169,-2.6036,-2.6061,-2.5757,-2.5572,-2.553,-2.5887,-2.5885,-2.5811,-2.6045,-2.5726,-2.5298,-2.54,-2.5189,-2.4941,-2.5039,-2.4957,-2.489,-2.4938,-2.4703,-2.4442,-2.4344,-2.3985,-2.3722,-2.3557,-2.4116,-2.4618,-2.4618,-2.4914,-2.5147,-2.5084,-2.4956,-2.4703,-2.4284,-2.3722,-2.3205,-2.2709,-2.206,-2.1655,-2.1492,-2.13,-2.1044,-2.0762,-1.9939,-1.9104,-1.834,0.0,0.0,0.0,0.0,0.0,0.0,0.0,0.0,0.0,0.0,0.0,0.0,0.0,0.0,0.0,0.0,0.0,0.0,0.0,0.0,0.0,0.0,0.0,-2.2367,-2.3421,-2.4544,-2.5666,-2.6202,-2.6577,-2.6857,-2.7248,-2.7531,-2.7531,-2.8259,-2.867,-2.867,-2.9045,-2.925,-2.925,-2.925,-2.925,-2.925,-2.925,-2.925,-2.925,-2.8905,-2.8774,-2.8774,-2.8395,-2.8263,-2.8263,-2.8263,-2.7982,-2.7653,-2.7636,-2.7439,-2.706,-2.6996,-2.7012,-2.7012,-2.6995,-2.6995,-2.6944,-2.6925,-2.6863,-2.6852,-2.676,-2.6562,-2.6261,-2.6243,-2.5695,-2.5146,-2.5572,-2.5413,-2.5272,-2.5918,-2.5469,-2.4927,-2.5188,-2.467,-2.4134,-2.443,-2.448,-2.4529,-2.4775,-2.4735,-2.4546,-2.4157,-2.4302,-2.4319,-2.3834,-2.3991,0.0,-2.4163,-2.4337,-2.438,-2.4206,-2.4163,-2.4077,-2.3797,-2.3396,-2.2974,-2.2532,-2.1849,-2.1332,-2.0916,-2.0722,-2.0605,-2.0605,-1.956,-1.8705,-1.8052,0.0,0.0,0.0,0.0,0.0,0.0,0.0,0.0,0.0,0.0,0.0,0.0,0.0,0.0,0.0,0.0,0.0,0.0,0.0,0.0,0.0,0.0,-2.2269,-2.3255,-2.4421,-2.5418,-2.625,-2.6682,-2.6948,-2.7048,-2.738,-2.766,-2.766,-2.8093,-2.8426,-2.8426,-2.8526,-2.8461,-2.818,-2.8444,-2.8461,-2.8114,-2.8461,-2.8593,-2.8593,-2.818,-2.7965,-2.7965,-2.7666,-2.74,-2.7134,-2.7134,-2.6937,-2.6511,-2.6261,-2.609,-2.6064,-2.651,-2.6727,-2.6694,-2.6427,-2.6388,-2.6355,-2.6315,-2.6342,-2.6292,-2.5982,-2.5612,-2.5374,-2.5275,-2.4979,-2.4675,-2.5203,-2.5261,-2.5263,-2.5716,-2.5201,-2.4613,-2.4718,-2.411,-2.3587,-2.3687,-2.3705,-2.3737,-2.3805,-2.3901,-2.4044,-2.424,-2.3924,-2.366,-2.3524,-2.3472,0.0,-2.3667,-2.3754,-2.3754,-2.3711,-2.3667,-2.358,-2.3319,-2.2754,-2.2376,-2.2217,-2.1643,-2.123,-2.1115,-2.1075,-2.0933,-2.075,-2.016,-1.9683,0.0,0.0,0.0,0.0,0.0,0.0,0.0,0.0,0.0,0.0,0.0,0.0,0.0,0.0,0.0,0.0,0.0,0.0,0.0,0.0,0.0,0.0,-2.1948,-2.3055,-2.4202,-2.4782,-2.5402,-2.6104,-2.6376,-2.6551,-2.6646,-2.6903,-2.7078,-2.7222,-2.7496,-2.7672,-2.7816,-2.7832,-2.7617,-2.7257,-2.7474,-2.741,-2.7051,-2.7267,-2.74,-2.74,-2.7134,-2.7051,-2.6985,-2.68,-2.6599,-2.6465,-2.6465,-2.6331,-2.6063,-2.5865,-2.5774,0.0,0.0,0.0,0.0,0.0,-2.54,-2.5272,-2.5394,-2.5456,-2.5485,-2.5533,-2.5185,-2.4828,-2.4903,-2.4601,-2.4256,-2.4573,-2.4684,-2.4684,-2.4906,-2.4393,-2.3824,-2.3824,-2.3238,-2.2736,-2.2837,-2.2937,-2.3038,-2.3188,-2.3388,0.0,-2.3889,-2.3598,-2.3347,-2.3267,-2.3019,-2.2882,-2.3013,-2.3057,-2.3057,-2.3057,-2.3057,-2.2969,-2.2838,-2.2432,0.0,0.0,0.0,-2.1001,-2.0624,-2.0624,0.0,0.0,0.0,-2.0292,-2.0242,0.0,0.0,0.0,-1.8618,-1.8675,0.0,0.0,0.0,0.0,0.0,0.0,0.0,0.0,0.0,0.0,0.0,0.0,0.0,0.0,0.0,0.0,-2.2826,-2.3867,-2.4789,-2.4698,-2.4823,-2.5545,-2.5687,-2.5743,-2.6048,-2.6109,-2.6178,-2.652,-2.6512,-2.6664,-2.6968,0.0,0.0,0.0,0.0,-2.633,-2.5944,-2.5928,-2.6011,-2.6011,-2.5928,-2.5944,-2.5944,-2.5861,-2.5861,-2.5861,-2.5861,-2.5861,-2.5861,-2.5861,-2.5861,-2.5801,-2.5363,-2.5153,-2.5077,-2.4741,-2.4421,-2.4161,-2.444,0.0,0.0,-2.5242,-2.4928,-2.4408,-2.4701,-2.4269,-2.3697,-2.3753,-2.3809,-2.3809,-2.3865,-2.3305,-2.2798,-2.2798,-2.2253,-2.1776,-2.1979,-2.2232,-2.2485,-2.2719,-2.2987,-2.3206,-2.3256,-2.3251,-2.3177,-2.2951,-2.2584,-2.2321,-2.2264,-2.2309,-2.2309,-2.2309,0.0,0.0,-2.2321,-2.2321,-2.2145,-2.1845,-2.1459,-2.0858,-2.0085,-2.0085,-2.0201,-2.0536,-2.0492,-2.0606,-2.0867,-2.0867,-2.0867,-2.0832,-1.9877,-1.9557,0.0,0.0,0.0,0.0,0.0,0.0,0.0,0.0,0.0,0.0,0.0,0.0,0.0,0.0,0.0,-2.1566,-2.2474,-2.3306,-2.3747,-2.3975,-2.4616,-2.5822,-2.5972,-2.6002,-2.6063,-2.6035,-2.6079,-2.6139,-2.6047,-2.607,-2.6143,-2.6143,-2.5857,-2.5244,-2.552,-2.5442,-2.4849,-2.5052,-2.5172,-2.5172,0.0,0.0,-2.4781,-2.451,-2.4442,-2.4442,-2.4442,-2.4442,-2.4442,-2.4442,-2.4442,-2.4467,-2.5225,-2.5367,-2.5077,-2.4741,-2.4573,-2.4482,-2.4269,-2.4177,-2.4239,-2.4363,-2.39,-2.3361,-2.3479,-2.2999,0.0,-2.2796,-2.3022,-2.3247,-2.3528,-2.3195,-2.2798,-2.2798,-2.2253,-2.1725,-2.1776,-2.1827,-2.1878,-2.1928,-2.1979,-2.208,-2.2333,-2.2603,-2.2697,-2.2398,-2.2003,-2.1689,-2.1607,-2.1616,-2.1616,-2.1616,-2.1616,-2.1653,-2.1733,-2.1769,-2.1831,-2.2017,-2.1942,-2.1813,-2.1649,-2.1649,-2.148,-2.1221,-2.1221,-2.1019,-2.0676,-2.0676,-2.0676,-2.066,-2.095,-2.1068,0.0,0.0,0.0,0.0,0.0,0.0,0.0,0.0,0.0,0.0,0.0,-1.8522,0.0,0.0,-2.0835,-2.1647,-2.2261,-2.2832,-2.3146,-2.3311,-2.3816,-2.4916,-2.5198,-2.5218,-2.5218,-2.5371,-2.5478,-2.5637,-2.5583,-2.567,-2.5827,-2.5841,-2.5627,-2.5088,-2.5143,-2.4984,-2.4465,-2.4513,-2.4495,-2.4495,-2.4292,-2.4224,-2.4224,-2.4102,-2.4034,-2.4034,-2.4034,-2.4034,-2.4034,-2.4034,-2.4034,-2.4074,-2.4593,-2.4613,-2.4276,-2.389,-2.3735,-2.3545,-2.3223,-2.3106,-2.3168,-2.3479,-2.317,-2.2647,-2.2989,-2.265,-2.2116,-2.2286,-2.2456,-2.257,-2.274,-2.2514,-2.2164,-2.1989,-2.1544,-2.1115,-2.111,-2.1216,-2.1318,-2.1471,-2.1623,-2.1725,-2.1878,-2.208,-2.2223,-2.2232,-2.1895,-2.1673,-2.1728,-2.1756,-2.1756,-2.1756,-2.1756,-2.1781,-2.1837,-2.1855,-2.1878,-2.193,-2.1804,-2.1709,-2.1566,-2.1422,-2.1315,-2.1307,-2.1324,-2.1261,-2.1131,-2.1131,-2.1131,-2.118,-2.1489,-2.1394,0.0,0.0,0.0,0.0,0.0,0.0,0.0,0.0,-1.8278,-1.8455,-1.8886,-1.9484,-2.0087,-2.0429,-2.0911,-2.1674,-2.2044,-2.2389,-2.2627,-2.2654,-2.2928,-2.3475,-2.3956,-2.4205,-2.4205,-2.4384,-2.463,-2.495,-2.4946,-2.5025,-2.5345,-2.5359,-2.5222,-2.4833,-2.4671,-2.4396,-2.4023,-2.3791,-2.3639,-2.3639,-2.357,-2.3543,-2.3543,-2.3543,-2.3543,-2.3543,-2.3543,-2.3543,-2.3543,-2.3543,-2.3543,-2.3543,-2.3543,-2.3364,-2.3061,-2.3008,-2.2874,-2.2608,-2.223,-2.2104,-2.2167,-2.2659,-2.2454,-2.2035,-2.2483,-2.224,-2.1774,-2.1774,-2.1831,-2.1945,-2.1945,-2.1744,-2.1521,-2.1185,-2.0834,-2.0551,-2.0437,-2.0617,-2.0822,-2.1011,-2.1216,-2.1369,-2.1369,-2.1369,-2.1543,-2.2038,-2.181,-2.1634,-2.1804,-2.1804,-2.1804,-2.1804,-2.1804,-2.1839,-2.1926,-2.1979,-2.1935,-2.1772,-2.1579,-2.1337,-2.1142,-2.0948,-2.095,-2.1213,-2.1213,-2.1344,-2.1522,-2.1522,-2.1522,-2.1522,-2.1522,-2.1261,-1.3493,-1.4321,-1.5335,-1.5667,-1.6458,-1.7162,0.0,0.0,-1.8186,-1.8954,-1.9328,-1.9723,-2.0362,-2.0846,-2.1254,-2.1344,-2.1667,-2.1872,-2.1897,-2.191,-2.1966,-2.2035,-2.2836,-2.344,-2.344,-2.3594,-2.3635,-2.3674,-2.3615,-2.3622,-2.3661,-2.3661,-2.3533,-2.325,-2.3212,-2.307,-2.2788,-2.2563,-2.2409,-2.2409,-2.2164,-2.2035,-2.2035,-2.2035,-2.2035,-2.2035,-2.2035,-2.2035,-2.2035,-2.2035,-2.2035,-2.2035,-2.2035,-2.1868,-2.1719,-2.2679,-2.3,-2.2888,-2.2314,-2.2104,-2.2062,-2.192,-2.1596,-2.1258,-2.1109,-2.0784,-2.05,-2.05,-2.0917,-2.1318,-2.1318,-2.1463,-2.1521,-2.1185,-2.0834,-2.0498,-2.0214,-2.0189,-2.0189,-2.0241,-2.0241,-2.0292,-2.0292,-2.0292,-2.0527,-2.1213,-2.1279,-2.113,-2.083,-2.0797,-2.0797,-2.0797,-2.0797,-2.093,-2.1279,-2.1578,-2.1761,-2.1711,-2.1711,-2.1644,-2.161,-2.161,-2.1474,-2.1269,-2.1269,-2.1183,-2.0976,-2.0976,-2.0976,-2.0976,-2.0976,-2.1183,-1.4414,-1.5352,-1.6277,-1.6668,-1.7456,-1.8116,-1.823,-1.8724,-1.9208,-1.9362,-1.9596,-1.9756,-1.999,-2.0043,-2.0099,0.0,-2.0443,-2.0515,-2.0515,-2.0515,-2.0515,-2.0515,-2.0953,-2.1749,-2.2776,-2.3078,-2.3241,-2.3408,-2.3449,-2.3364,-2.3364,-2.3364,-2.3313,-2.3273,-2.312,-2.298,-2.2866,-2.2574,-2.2345,-2.2179,-2.2065,-2.1925,-2.176,-2.176,-2.176,-2.176,-2.176,-2.176,-2.176,-2.176,-2.1739,-2.1599,-2.1599,-2.142,-2.1232,-2.1634,-2.1674,-2.154,-2.132,-2.1235,-2.1272,-2.1526,-2.1279,-2.0925,-2.104,-2.0721,-2.027,-2.027,-2.05,-2.0687,-2.0687,-2.0744,-2.0741,-2.0407,-2.0267,-2.0106,-1.9925,-1.9859,-1.9931,-2.0086,-2.0086,-2.0086,-2.0086,-2.0086,-2.0195,-2.0515,-2.0804,-2.1059,-2.1246,-2.123,-2.123,-2.123,-2.123,-2.1279,-2.1494,-2.1841,-2.2055,-2.2055,-2.2097,-2.2002,-2.1828,-2.1478,-2.1159,-2.0898,-2.0695,-2.055,-2.0447,-2.0447,-2.0447,-2.0447,-2.0447,-2.055,-1.4986,-1.582,-1.6574,-1.7116,-1.7917,-1.8569,-1.8569,-1.9086,-1.9591,-1.933,-1.9346,-1.9444,-1.9422,-1.9323,-1.9233,-1.9473,-1.9565,-1.9611,-1.9611,-1.9611,-1.9611,-1.9541,-1.9712,-2.0344,-2.1687,-2.2164,-2.2448,-2.2645,-2.2732,-2.2781,-2.2781,-2.2781,-2.2781,-2.2781,-2.2584,-2.2485,-2.2485,-2.2213,-2.1978,-2.1768,-2.162,-2.1447,-2.1249,-2.1244,-2.1207,-2.1207,-2.1207,-2.1207,-2.1138,-2.1133,-2.0984,-2.0798,-2.0724,-2.0538,-2.029,-2.0224,-2.0363,-2.0475,-2.0451,-2.0488,-2.0539,-2.0952,-2.077,-2.0443,-2.0509,-2.0215,-1.9918,-1.9894,-1.9982,-2.004,-2.0155,-2.0213,-2.02,-1.9878,-1.9751,-1.9659,-1.9492,-1.9386,-1.9413,-1.962,-1.962,-1.962,-1.962,-1.962,-1.9672,-1.9709,-2.0086,-2.055,-2.1165,-2.1267,-2.1267,-2.1267,-2.1348,-2.1412,-2.1412,-2.1752,-2.1962,-2.1962,-2.1991,-2.1919,-2.1672,-2.1277,-2.0894,-2.059,-2.0345,-2.0178,-2.0086,-2.0086,-2.0086,-2.0086,-2.0086,-2.0086,-1.4733,-1.5384,-1.5841,-1.6389,-1.7268,-1.7999,-1.7999,-1.8216,-1.849,-1.8797,-1.8604,-1.8513,-1.8764,-1.9004,-1.9175,-1.9175,-1.945,-1.9611,-1.9611,-1.9611,-1.9611,-1.9529,-1.9541,-1.9725,0.0,-2.0459,-2.0745,-2.0757,-2.0997,-2.1146,-2.1146,-2.1146,-2.1146,-2.1146,-2.1135,-2.1135,-2.1135,-2.0871,-2.0734,-2.0711,-2.023,-2.0,-1.9977,-1.9725,-1.968,-1.968,-1.968,-1.9611,-1.9588,-1.9347,-1.9244,-1.9221,-1.898,-1.8728,-1.851,-1.851,-1.9352,-2.0475,-2.0195,-2.0106,-2.0068,-1.9851,-1.9762,-1.9634,-1.9073,-1.8835,-1.8877,-1.8901,-1.9113,-1.9417,-1.9751,-2.004,-2.02,-1.9878,-1.957,-1.9331,-1.9008,-1.8646,-1.8422,-1.8475,-1.8475,-1.8475,-1.8475,-1.8475,-1.8527,-1.8826,-1.8826,-1.919,-2.0034,-2.0138,-2.0138,-2.0138,-2.0428,-2.0627,-2.0627,-2.0933,-2.1132,-2.1132,-2.1148,-2.1148,-2.1093,-2.1093,-2.0925,-2.0605,-2.0574,-2.0406,-2.0086,-2.0086,-2.0086,-2.0086,-2.0086,-2.0086,-1.5261,-1.5966,-1.6592,-1.7093,-1.773,-1.825,-1.8015,-1.8365,-1.8584,-1.8305,-1.8149,-1.8039,-1.8083,-1.8061,-1.8116,-1.8446,-1.8567,-1.8677,-1.8762,-1.8784,-1.8784,-1.8784,-1.8784,0.0,0.0,0.0,0.0,-2.0649,-2.0751,-2.0877,-2.106,-2.1071,-2.1071,-2.1071,-2.1071,-2.1071,-2.1071,-2.098,-2.0843,-2.066,-2.0169,-1.9838,-1.9667,-1.9645,-1.9611,-1.9611,-1.9611,-1.9611,-1.9518,-1.9278,-1.9073,-1.8901,-1.8639,-1.8387,-1.8106,-1.8106,-1.843,-1.8923,-1.9301,-1.9468,-1.9507,-1.9865,-1.9852,-1.9661,-1.947,-1.914,-1.8809,-1.8839,-1.879,-1.8706,-1.8823,-1.8939,-1.9087,-1.9154,-1.9142,-1.9027,-1.8933,-1.8793,-1.8674,-1.8464,-1.8422,-1.8422,-1.8422,-1.8422,-1.8422,-1.8527,-1.8893,-1.9257,-1.9532,-1.9724,-1.9918,-2.0144,-2.0423,-2.0681,-2.091,-2.1231,-2.1429,-2.1429,-2.142,-2.1373,-2.1163,-2.0773,-2.0376,-2.0053,-1.969,-1.9415,-1.9314,-1.9098,-1.8997,-1.8997,-1.8997,-1.8997,-1.5115,-1.5828,-1.6407,-1.6812,-1.7271,-1.7599,-1.7435,-1.7566,-1.7686,-1.727,-1.7098,-1.6969,-1.6923,-1.6899,-1.7047,-1.737,-1.757,-1.7749,-1.7981,-1.8012,-1.8012,-1.8012,-1.8012,-1.7942,0.0,0.0,0.0,-1.9574,-1.9683,-1.9837,-2.0089,-2.01,-2.0144,-2.0232,-2.0232,-2.0232,-2.0232,-2.0232,-2.0067,-1.9727,-1.942,-1.9102,-1.8773,-1.8773,-1.8773,-1.8773,-1.8773,-1.8773,-1.8762,-1.852,-1.8279,-1.797,-1.7719,-1.7478,-1.7324,-1.74,-1.7464,-1.7582,-1.8431,-1.8688,-1.8752,-1.92,-1.9345,-1.9323,-1.9212,-1.8926,-1.8601,-1.8633,-1.8467,-1.8311,-1.8357,-1.8415,-1.8473,-1.8648,-1.8672,-1.8582,-1.8565,-1.8507,-1.8347,-1.809,-1.8076,-1.8114,-1.8114,-1.8032,-1.795,-1.795,-1.8213,-1.8527,-1.8907,-1.9101,-1.9389,-1.9711,-2.0003,-2.0318,-2.0589,-2.0914,-2.1163,-2.1163,-2.1143,-2.1089,-2.0917,-2.0473,-2.009,-1.9808,-1.9416,-1.9164,-1.9052,-1.8744,-1.859,-1.859,-1.8478,-1.8422,-1.4439,-1.4993,-1.5367,-1.5536,-1.5994,-1.6308,-1.6287,-1.6115,-1.5964,-1.5934,-1.5643,-1.5339,0.0,0.0,-1.6004,-1.6277,-1.6672,-1.7036,-1.7288,-1.7329,-1.7329,0.0,0.0,0.0,0.0,0.0,0.0,-1.7622,0.0,-1.8057,-1.8269,-1.8289,-1.839,-1.8527,-1.8547,-1.8547,-1.8537,-1.8537,-1.839,-1.7966,-1.7966,-1.7733,-1.7308,-1.7308,-1.7308,-1.7308,-1.7308,-1.7308,-1.7288,-1.7066,-1.6843,-1.6543,-1.6388,-1.6166,-1.6039,-1.6364,-1.6504,-1.6623,-1.7582,-1.7905,-1.7969,-1.7969,-1.8238,-1.8524,-1.8265,-1.8194,-1.8239,-1.8348,-1.8136,-1.796,-1.824,-1.8298,-1.8298,-1.8298,-1.8154,-1.7964,-1.7951,-1.7735,-1.7545,-1.7477,-1.7537,-1.7562,-1.7562,-1.7381,-1.7212,-1.7225,-1.6934,-1.712,-1.816,-1.8331,-1.851,-1.8817,-1.9192,-1.9556,-1.9808,-2.0102,-2.027,-2.027,-2.027,-2.0213,-2.0213,-2.0213,-2.0073,-1.978,-1.9766,-1.9542,-1.925,-1.8998,-1.8859,-1.8791,-1.8499,-1.8359,-1.4953,-1.5337,-1.561,-1.5832,-1.6105,-1.6227,-1.5893,-1.5903,-1.5832,-1.5337,-1.5064,-1.4922,-1.5095,0.0,0.0,-1.6196,-1.654,0.0,-1.747,-1.7551,0.0,-1.7711,0.0,-1.7659,-1.7431,-1.7369,0.0,0.0,-1.7404,-1.7897,-1.8047,-1.8067,-1.8087,-1.8148,-1.8309,-1.8309,-1.8148,-1.8148,-1.8006,-1.7795,-1.7795,-1.7581,-1.7308,-1.7308,-1.7308,-1.7308,-1.7308,-1.7308,-1.7278,-1.6884,-1.6692,-1.6601,-1.6206,-1.6025,-1.6039,-1.6104,-1.6104,-1.6169,-1.6429,-1.7012,-1.7658,-1.7905,-1.8033,-1.815,-1.8093,-1.7834,-1.7538,-1.7591,-1.7241,-1.6891,-1.695,-1.7009,-1.7067,-1.7291,-1.7477,-1.7612,-1.7633,-1.7774,-1.7786,-1.7571,-1.7525,-1.7529,-1.7529,-1.73,-1.7185,-1.7402,-1.7194,-1.7032,-1.7133,-1.7716,-1.8239,-1.8591,-1.9278,-1.9822,-2.013,-2.0228,-2.0213,-1.9924,-1.9693,-1.9461,-1.9287,-1.8997,-1.8958,-1.911,-1.8897,-1.8695,-1.8615,-1.838,-1.8081,-1.7861,-1.7783,-1.7757,-1.489,-1.5047,-1.5103,-1.5284,-1.5211,-1.5089,-1.4881,-1.4809,-1.4667,-1.4241,-1.4084,-1.4005,-1.4045,-1.4162,-1.444,0.0,0.0,0.0,-1.6272,-1.6511,-1.6591,0.0,-1.6819,0.0,-1.6655,-1.6582,-1.6452,0.0,-1.6755,-1.7188,-1.7316,-1.7316,-1.7365,-1.7463,-1.7581,-1.7581,-1.7463,-1.7316,-1.7136,-1.6923,-1.6769,-1.6663,-1.6532,-1.6532,-1.6673,-1.6815,0.0,-1.6815,-1.6785,-1.6442,-1.6245,-1.6137,-1.5793,-1.5597,-1.5518,-1.5714,-1.5789,-1.5779,-1.5974,-1.6364,-1.6882,-1.7206,-1.7453,-1.7582,-1.7723,-1.7564,-1.7302,-1.7302,-1.6937,-1.6478,-1.6478,-1.6478,-1.6537,-1.6773,-1.695,-1.7091,-1.7053,-1.7191,-1.7292,-1.7138,-1.7089,-1.7109,-1.7098,-1.6895,-1.6735,-1.6894,-1.6673,-1.6416,-1.626,-1.7136,-1.789,-1.8233,-1.8698,-1.9139,-1.9435,-1.9461,-1.9403,-1.9171,-1.8997,-1.8823,-1.8706,-1.8473,-1.8473,-1.8706,-1.8494,-1.8403,-1.8403,-1.8133,-1.7879,-1.771,-1.7583,-1.7477,-1.4418,-1.441,-1.4333,-1.4306,-1.3911,-1.3596,-1.3653,-1.3371,-1.3049,-1.2907,-1.2909,-1.2843,-1.2692,-1.2855,-1.3217,-1.3662,0.0,-1.4323,-1.4806,-1.5123,-1.5377,-1.5404,-1.558,-1.5703,-1.5703,-1.5703,-1.5694,-1.5667,-1.6141,-1.6365,-1.6337,-1.6309,-1.6393,-1.6608,-1.659,-1.659,-1.6618,-1.6214,-1.5967,-1.5804,-1.5515,-1.5417,-1.5541,-1.5541,-1.5683,-1.6037,-1.6037,-1.6037,-1.6028,-1.5812,-1.5606,-1.54,-1.5184,-1.4912,-1.48,-1.5137,-1.5267,-1.5332,-1.5649,-1.5779,-1.5844,-1.6299,-1.6623,-1.6936,-1.7206,-1.7218,-1.71,-1.7128,-1.6718,-1.6346,-1.6371,-1.636,-1.636,-1.636,-1.6419,-1.6419,-1.6419,-1.6478,-1.6527,-1.6599,-1.661,-1.6598,-1.6613,-1.6372,-1.6179,-1.6214,-1.5977,-1.575,-1.5773,-1.671,-1.7503,-1.7869,-1.7919,-1.8103,-1.8402,-1.8415,-1.8357,-1.8369,-1.8369,-1.8298,-1.8298,-1.8298,-1.8298,-1.8298,-1.8298,-1.824,-1.8181,-1.8,-1.783,-1.7772,-1.7522,-1.7353,-1.3973,-1.3988,-1.397,-1.3755,-1.3684,-1.3462,-1.3066,-1.2773,-1.2454,-1.1951,-1.171,-1.1639,-1.1763,-1.2129,-1.2596,-1.3314,-1.3861,-1.4367,-1.4982,-1.5325,-1.5632,0.0,-1.5984,-1.6107,-1.6107,-1.6107,0.0,0.0,-1.5759,-1.5647,-1.5551,-1.5328,-1.5399,-1.5595,-1.5444,-1.5444,-1.5677,-1.5372,-1.5203,-1.5168,-1.5096,-1.5079,-1.5123,-1.5123,-1.5123,-1.5195,-1.5195,0.0,-1.5177,-1.4973,-1.4838,-1.4642,-1.4455,-1.425,-1.4071,-1.4137,-1.4211,-1.4211,-1.4539,-1.467,-1.4856,-1.5779,-1.6104,-1.6169,-1.6234,-1.6113,-1.5929,-1.6054,-1.5862,-1.5608,-1.5704,-1.5779,-1.5779,-1.5779,-1.5957,-1.6146,-1.6146,-1.6371,-1.6526,-1.6539,-1.6527,-1.6516,-1.6529,-1.6298,-1.6172,-1.6436,-1.6229,-1.6114,-1.6319,-1.6564,-1.686,-1.7195,-1.7621,-1.806,-1.8357,-1.8415,-1.8311,-1.8089,-1.8089,-1.796,-1.7655,-1.7655,-1.7655,-1.7655,-1.7655,-1.7537,-1.7232,-1.7184,-1.7055,-1.6762,-1.6716,-1.6704,-1.3822,-1.3752,-1.3578,-1.3388,-1.3063,-1.2648,-1.2319,-1.1966,-1.1651,-1.1239,-1.1125,-1.1133,-1.1125,-1.1411,-1.1802,-1.2362,-1.2901,-1.3335,-1.3684,-1.4156,0.0,-1.4455,-1.4649,-1.4794,0.0,-1.4899,-1.4859,-1.477,-1.46,-1.4794,-1.5419,-1.5322,-1.5342,-1.5334,-1.5246,-1.5193,-1.5184,-1.4882,-1.4759,-1.4759,-1.4546,-1.4546,-1.4759,-1.4759,-1.4839,-1.4981,-1.4981,-1.4981,-1.4964,-1.4763,-1.4692,-1.4578,-1.4288,-1.4112,-1.4015,-1.3919,-1.3875,-1.394,-1.4071,-1.4137,-1.4202,-1.4726,-1.5257,-1.5779,-1.5974,-1.5822,-1.56,-1.5555,-1.5391,-1.5176,-1.5129,-1.5067,-1.5067,-1.5067,-1.5186,-1.5315,-1.5315,-1.5423,-1.5531,-1.5531,-1.5531,-1.5531,-1.5531,-1.5387,-1.5344,-1.5521,-1.5376,-1.5355,-1.5461,-1.5671,-1.6063,-1.6704,-1.7043,-1.7232,-1.742,-1.742,-1.7361,-1.7256,-1.7197,-1.7126,-1.7009,-1.695,-1.695,-1.695,-1.695,-1.6891,-1.6762,-1.6762,-1.6655,-1.6478,-1.6478,-1.6478,-1.3453,-1.3259,-1.298,-1.2757,-1.2272,-1.176,-1.1413,-1.1059,-1.0708,-1.0408,-1.0433,-1.0476,-1.0374,-1.0581,-1.0869,-1.1273,-1.1744,-1.2059,-1.225,-1.2789,-1.3172,0.0,-1.3349,0.0,-1.3677,-1.3645,0.0,-1.3667,-1.3617,-1.3989,-1.5049,-1.5106,-1.5038,-1.4885,-1.4885,-1.4736,-1.4601,-1.4344,-1.4176,-1.4176,-1.3849,-1.3833,-1.4118,-1.4118,-1.4261,-1.4546,-1.4546,-1.4546,-1.4537,-1.4384,-1.4299,-1.4231,-1.3942,-1.3772,-1.3687,-1.3535,-1.345,-1.3481,-1.3613,-1.3678,-1.3678,-1.3875,-1.4473,-1.5202,-1.5453,-1.5465,-1.5351,-1.5187,-1.503,-1.4942,-1.4721,-1.463,-1.459,-1.459,-1.459,-1.459,-1.459,-1.459,-1.459,-1.459,-1.459,-1.459,-1.459,-1.459,-1.459,-1.459,-1.459,-1.461,-1.466,-1.49,-1.5389,-1.6149,-1.6369,-1.6419,-1.6478,-1.6478,-1.6478,-1.6478,-1.6478,-1.6478,-1.6478,-1.6478,-1.6419,-1.6301,-1.6301,-1.6242,-1.6065,-1.6065,-1.6065,-1.6065,-1.6065,-1.6065,-1.2193,-1.2049,-1.1841,-1.1524,-1.1306,-1.0997,-1.0406,-0.9997,-0.9648,-0.9299,-0.9117,-0.9064,-0.9208,-0.9398,-0.9693,-1.0163,-1.0679,-1.1194,-1.1637,-1.227,-1.2675,-1.2847,0.0,0.0,-1.3513,-1.3655,0.0,-1.3667,-1.3729,-1.358,-1.3416,-1.3401,-1.3393,-1.3378,-1.3378,-1.3371,-1.3356,-1.3205,-1.313,-1.3122,-1.2971,-1.2896,-1.2968,-1.2968,-1.2968,-1.2968,-1.2968,0.0,0.0,-1.2952,-1.2861,-1.2725,-1.2695,-1.2498,-1.2232,-1.2217,-1.2111,-1.2107,-1.27,-1.2898,-1.303,-1.3678,-1.394,-1.4071,-1.4071,-1.4259,-1.453,-1.4638,-1.4755,-1.4863,-1.4942,-1.4801,-1.459,-1.459,-1.459,-1.459,-1.459,-1.459,-1.459,-1.459,-1.459,-1.459,-1.459,-1.459,-1.459,-1.459,-1.459,-1.466,-1.4923,-1.5014,-1.5085,-1.5401,-1.586,-1.6253,-1.6478,-1.6478,-1.6478,-1.6478,-1.6478,-1.6478,-1.6478,-1.6478,-1.6242,-1.572,-1.5661,-1.5364,-1.4769,-1.4769,-1.4769,-1.4769,-1.4769,-1.4769,-1.152,-1.1562,-1.1434,-1.1203,-1.1003,-1.0666,-1.0047,-0.966,-0.9332,-0.8996,-0.887,-0.8847,-0.8914,-0.9063,-0.9362,-0.9751,-1.0231,-1.0643,-1.1053,-1.1519,-1.1833,-1.2066,-1.2283,0.0,0.0,0.0,-1.2888,-1.2656,-1.2424,-1.2216,-1.2026,-1.2934,-1.3422,-1.3401,-1.3394,-1.3349,-1.3178,-1.3119,-1.3155,-1.3155,-1.2984,-1.2902,-1.2902,-1.2869,-1.2824,-1.2824,-1.2824,0.0,0.0,-1.2824,-1.2716,-1.2649,-1.2552,-1.244,-1.2298,-1.2104,-1.1985,-1.1918,-1.2145,-1.2173,-1.2239,-1.2568,-1.2634,-1.2766,-1.3613,-1.4006,-1.4101,-1.4033,-1.4052,-1.4042,-1.3843,-1.3602,-1.3444,-1.3444,-1.3444,-1.3444,-1.3444,-1.3444,-1.3444,-1.3444,-1.3444,-1.3444,-1.3444,-1.3444,-1.349,-1.3611,-1.3639,-1.3765,-1.4218,-1.4433,-1.472,-1.4985,-1.5391,-1.5655,-1.5767,-1.5767,-1.5767,-1.5767,-1.5767,-1.5767,-1.5767,-1.5767,-1.5582,-1.5275,-1.5264,-1.5022,-1.459,-1.459,-1.459,-1.459,-1.459,-1.459,-1.0929,-1.0929,-1.0866,-1.0762,-1.0485,-1.012,-0.9577,-0.9169,-0.8815,-0.8485,-0.8379,-0.8329,-0.8329,-0.8421,-0.8648,-0.8966,-0.9369,-0.9727,-1.0122,-1.0476,-1.0772,0.0,0.0,-1.1516,0.0,-1.2009,-1.2037,-1.1727,-1.1495,-1.1262,-1.1262,-1.2347,-1.2916,-1.288,-1.2872,-1.2747,-1.2641,-1.2599,-1.2578,-1.2578,-1.2416,-1.2318,-1.2269,-1.2156,-1.2151,-1.2108,-1.2108,-1.2108,0.0,-1.2108,-1.2108,-1.2094,-1.1988,-1.1854,-1.1783,-1.1516,-1.1389,-1.1326,-1.1437,-1.1446,-1.1512,-1.171,-1.1776,-1.1975,-1.2964,-1.3416,-1.3521,-1.3392,-1.3453,-1.3523,-1.3189,-1.2996,-1.2891,-1.2891,-1.2891,-1.2891,-1.2891,-1.2847,-1.2812,-1.2812,-1.2812,-1.2812,-1.2812,-1.2856,-1.2943,-1.3084,-1.3102,-1.3234,-1.3681,-1.396,-1.4241,-1.4487,-1.474,-1.4998,-1.5307,-1.5297,-1.5297,-1.5297,-1.5297,-1.5297,-1.5297,-1.5182,-1.505,-1.4767,-1.4706,-1.4504,-1.4237,-1.4237,-1.4237,-1.4237,-1.4178,-1.411,-1.0222,-1.0183,-0.995,-0.9863,-0.9598,-0.9266,-0.8818,-0.8321,-0.7865,-0.7672,-0.7391,-0.7235,-0.7235,-0.7235,-0.7327,-0.7555,-0.7877,-0.8194,-0.8657,-0.918,-0.9623,0.0,0.0,-1.0638,-1.0915,-1.1186,-1.134,-1.134,-1.1262,0.0,-1.1262,-1.134,-1.134,-1.134,-1.134,-1.134,-1.1333,-1.1134,-1.099,-1.099,-1.0926,-1.0717,-1.0584,-1.0584,-1.0584,-1.0527,0.0,0.0,0.0,-1.0527,-1.0527,-1.0527,-1.0527,-1.0376,-1.0248,-1.0177,-0.9967,-0.99,-1.0505,-1.0717,-1.085,-1.1578,-1.1776,-1.1776,-1.185,-1.2305,-1.284,-1.2832,-1.3158,-1.355,-1.3348,-1.3295,-1.3295,-1.3295,-1.3295,-1.3295,-1.3295,-1.3146,-1.3014,-1.3014,-1.3014,-1.3014,-1.3014,-1.3172,-1.3295,-1.3295,-1.3295,-1.3365,-1.3567,-1.3594,-1.3664,-1.3914,-1.3932,-1.4299,-1.5212,-1.5297,-1.5297,-1.5297,-1.5297,-1.5297,-1.5297,-1.4932,-1.4558,-1.4307,-1.3922,-1.3609,-1.3295,-1.3295,-1.3295,-1.3286,-1.3102,-1.2908,-0.8858,-0.8878,-0.8845,-0.88,-0.8647,-0.8431,-0.8107,-0.7762,-0.7441,-0.7347,-0.7217,-0.7125,-0.7173,-0.7185,-0.7276,-0.7549,-0.7816,-0.8219,-0.878,0.0,0.0,-1.0017,-1.0503,-1.0915,0.0,0.0,-1.0796,-1.0796,-1.0563,-1.0408,-1.0408,-1.0408,-1.0719,-1.1262,-1.1262,-1.1262,-1.1262,-1.1219,-1.1201,-1.1201,-1.099,-1.0857,-1.0798,-1.0626,-1.0584,0.0,0.0,-1.0527,-1.0527,-1.0527,-1.0527,-1.0527,-1.0527,-1.0431,-1.0376,-1.0248,-1.0113,-1.0041,-1.0041,-1.0069,-1.006,-1.0259,-1.0392,-1.0392,-1.0658,-1.138,-1.2114,-1.2114,-1.2115,-1.2161,-1.2106,-1.194,-1.1854,-1.1854,-1.1854,-1.1854,-1.1854,-1.1815,-1.1776,-1.1776,-1.1776,-1.1776,-1.1776,-1.1823,-1.1893,-1.2075,-1.209,-1.2282,-1.2988,-1.3078,-1.3291,-1.3875,-1.3875,-1.4018,-1.4346,-1.4336,-1.4336,-1.4336,-1.4336,-1.4336,-1.4336,-1.4207,-1.4024,-1.3825,-1.3697,-1.3499,-1.3295,-1.3295,-1.3295,-1.3295,-1.3102,-1.2987,-0.7937,-0.8116,-0.8152,-0.8152,-0.8054,-0.7882,-0.7611,-0.7321,-0.7063,-0.7014,-0.6801,-0.6686,-0.6714,-0.6776,-0.6879,-0.7136,-0.7477,-0.7875,-0.8233,0.0,0.0,-0.931,0.0,0.0,0.0,-1.007,-0.9942,-0.9942,-0.9708,-0.9558,-0.9558,-0.9558,-0.9786,-1.033,-1.0641,-1.0796,-1.0796,-1.0796,-1.0719,-1.0563,-1.0489,-1.0281,-0.996,-1.0031,-0.99,0.0,-0.9951,-1.0023,0.0,-1.0023,-1.0023,-1.0023,-1.0023,-1.0023,-1.0006,-0.9883,-0.9789,-0.9689,-0.9644,-0.9599,-0.9594,-0.9679,-0.9728,-0.9728,-0.9927,-1.0724,-1.1578,-1.1784,-1.1702,-1.162,-1.162,-1.1545,-1.1406,-1.1406,-1.1406,-1.1406,-1.1406,-1.1362,-1.1318,-1.1318,-1.1318,-1.1318,-1.1318,-1.1369,-1.1444,-1.1605,-1.162,-1.1788,-1.2363,-1.2444,-1.2568,-1.3087,-1.3087,-1.3087,-1.3087,-1.3613,-1.3875,-1.3875,-1.3809,-1.3678,-1.3678,-1.3416,-1.3234,-1.3124,-1.2994,-1.2872,-1.2747,-1.2747,-1.2714,-1.2639,-1.2469,-1.2345,0.0,-0.7687,-0.7797,-0.7756,-0.7665,-0.7501,-0.7234,-0.6868,0.0,-0.6597,-0.6203,-0.5899,-0.5972,-0.6083,-0.6199,-0.6368,-0.689,-0.7206,-0.7204,-0.7575,0.0,0.0,-0.835,0.0,-0.8621,-0.8721,-0.8778,-0.8778,-0.8778,-0.8778,-0.8778,-0.8778,-0.8778,-0.8778,-0.9558,-0.9942,-0.9942,-0.9942,-0.9708,-0.9324,-0.9324,-0.9049,-0.8535,-0.8835,-0.8864,0.0,-0.909,-0.923,-0.923,-0.923,-0.923,-0.923,-0.923,-0.923,-0.9219,-0.9045,-0.8997,-0.903,-0.9148,-0.9194,-0.9239,-0.9527,-0.9625,-0.9692,-0.9692,-1.0339,-1.1181,-1.1585,-1.1652,-1.1652,-1.1652,-1.1652,-1.1652,-1.1652,-1.1644,-1.171,-1.171,-1.1592,-1.1416,-1.1416,-1.1416,-1.1416,-1.1416,-1.1607,-1.1718,-1.171,-1.1718,-1.171,-1.1784,-1.1784,-1.1784,-1.1776,-1.1776,-1.1776,-1.1776,-1.3021,-1.3744,-1.3744,-1.3481,-1.3284,-1.3284,-1.2634,-1.2246,-1.2246,-1.1982,-1.1776,-1.1776,-1.1776,-1.1694,-1.1545,-1.1466,-1.1303,-0.6096,0.0,-0.6737,-0.663,-0.6513,-0.639,0.0,-0.5714,-0.5618,-0.5746,-0.5615,-0.547,-0.5653,-0.5824,-0.5964,-0.6153,-0.6454,-0.6764,-0.6993,0.0,0.0,-0.8345,-0.8502,-0.8626,-0.8731,-0.8764,-0.8778,-0.8778,-0.8778,-0.8778,-0.8778,-0.8778,-0.8778,-0.8778,-0.9012,-0.909,-0.909,-0.909,-0.9012,-0.8934,-0.8934,-0.8823,-0.8535,-0.861,-0.8493,-0.8222,-0.8367,-0.8367,-0.8367,-0.8367,-0.8367,-0.8367,-0.8367,-0.8367,-0.8367,-0.8343,-0.8279,-0.8272,-0.8288,-0.8214,-0.8208,-0.8602,-0.9073,-0.9555,-0.9555,-0.9752,-1.006,-1.0193,-1.0193,-1.0193,-1.0193,-1.0193,-1.0193,-1.0193,-1.0392,-1.0591,-1.0591,-1.0756,-1.0861,-1.0861,-1.0861,-1.0795,-1.0538,-1.0763,-1.085,-1.0591,-1.079,-1.1049,-1.1314,-1.1314,-1.1446,-1.1784,-1.1776,-1.1776,-1.1776,-1.2107,-1.2305,-1.2305,-1.2239,-1.2173,-1.2173,-1.2041,-1.1916,-1.1916,-1.1843,-1.1776,-1.1776,-1.1776,-1.1762,-1.1717,-1.1323,-1.1099,-0.5477,-0.5736,-0.5991,-0.5951,-0.5886,-0.5812,-0.5562,-0.5398,-0.5351,-0.5465,-0.5345,-0.5271,-0.5473,-0.5629,-0.578,-0.5941,-0.6373,-0.6747,0.0,0.0,-0.7656,-0.7906,-0.8022,-0.8121,0.0,-0.8232,-0.8232,-0.8232,-0.8232,-0.8232,-0.8232,-0.7998,-0.792,-0.792,-0.7759,-0.7994,-0.8778,-0.8778,-0.87,-0.8549,-0.8549,-0.8361,-0.7938,-0.8088,-0.8049,-0.786,-0.8005,-0.8078,-0.8078,-0.8078,-0.8078,-0.8078,-0.8078,-0.8078,-0.8078,-0.8078,-0.8045,-0.806,-0.8012,-0.7921,-0.7836,-0.8045,-0.8392,-0.874,-0.874,-0.8787,-0.8962,-0.9641,-0.9844,-0.9826,-0.9765,-0.9747,-0.9734,-0.9679,-0.9861,-0.9994,-0.9994,-1.0127,-1.0259,-1.0259,-1.0259,-1.0193,-0.9994,-1.0127,-1.0193,-0.9994,-1.0127,-1.0326,-1.0518,-1.0525,-1.0585,-1.079,-1.0857,-1.0857,-1.0857,-1.0857,-1.1115,-1.1784,-1.1446,-1.1314,-1.1314,-1.0982,-1.0818,-1.0886,-1.0954,-1.0988,-1.0988,-1.092,-1.0886,-1.0879,-1.0531,-1.0365,-0.5176,-0.5312,-0.5419,-0.5532,-0.5536,-0.5494,-0.5429,-0.5391,-0.5373,-0.5387,-0.5156,-0.5025,-0.5218,-0.542,-0.5537,-0.5647,-0.6231,0.0,-0.6838,-0.6847,-0.6925,-0.7093,-0.7197,0.0,-0.7283,-0.7291,-0.7291,-0.7291,-0.7291,-0.7283,-0.7271,-0.6963,-0.6803,-0.6789,-0.6474,-0.694,-0.8343,-0.837,-0.8232,-0.792,-0.7907,-0.7654,-0.7113,-0.7394,-0.7442,-0.7349,0.0,0.0,-0.7715,-0.7715,-0.7715,-0.7715,-0.7715,-0.7788,-0.786,-0.786,-0.786,-0.7923,-0.7835,-0.7813,-0.7743,-0.7743,-0.7813,-0.7813,-0.7813,-0.7813,-0.8093,-0.9352,-0.9672,-0.9607,-0.9547,-0.9511,-0.9482,-0.9358,-0.9395,-0.9461,-0.9461,-0.9528,-0.9528,-0.9528,-0.9528,-0.9528,-0.9528,-0.9594,-0.9594,-0.9594,-0.9661,-0.9728,-0.9728,-0.9728,-0.9728,-0.9728,-0.9728,-0.974,-0.9692,-0.9692,-1.0232,-1.1452,-1.0877,-1.0532,-1.0552,-1.0044,-0.9771,-0.9813,-0.9928,-0.9989,-0.9989,-0.9868,-0.9813,-0.9813,-0.9704,-0.9594,-0.4938,-0.4875,-0.4946,-0.532,-0.529,-0.5134,-0.4951,-0.4797,-0.4758,-0.4789,-0.467,-0.4572,-0.4684,-0.4687,-0.4718,0.0,0.0,-0.5598,0.0,0.0,-0.6103,-0.6269,0.0,-0.6495,-0.6506,-0.6509,-0.6509,-0.6509,-0.6509,-0.6481,-0.6421,-0.634,-0.6309,-0.6243,-0.6163,-0.6239,-0.6543,-0.6597,-0.6666,-0.6587,-0.6523,-0.6444,-0.628,-0.6287,-0.6205,-0.6043,0.0,-0.6116,-0.6116,-0.6116,-0.6116,-0.6116,-0.6116,-0.6337,-0.6631,-0.6631,-0.6845,-0.7131,-0.7191,-0.7391,-0.7666,-0.7666,-0.781,-0.803,-0.803,-0.803,-0.8102,-0.8318,-0.8257,-0.8154,-0.8045,-0.8015,-0.799,-0.7885,-0.8128,-0.8323,-0.8323,-0.859,-0.879,-0.879,-0.879,-0.879,-0.879,-0.8989,-0.9183,-0.9183,-0.9455,-0.9728,-0.9728,-0.9728,-0.9728,-0.9728,-0.9728,-0.9704,-0.9814,-0.9752,-0.9937,-1.026,-0.9985,-0.991,-0.9949,-0.993,-0.9934,-0.9953,-0.9977,-0.9989,-0.9989,-0.9965,-0.9953,-0.9953,-0.9665,-0.9503,-0.4473,-0.4363,-0.4313,-0.4719,-0.4934,-0.5035,-0.4814,-0.4712,-0.4634,-0.4512,-0.4404,-0.4369,-0.4519,-0.4589,-0.4744,-0.5016,0.0,-0.5484,-0.5692,-0.588,-0.6016,0.0,0.0,-0.6275,-0.6275,-0.6275,-0.6275,-0.6275,-0.6237,-0.6203,-0.6169,-0.5975,-0.5784,-0.5751,-0.5525,-0.5374,-0.5374,-0.5434,-0.5695,-0.6155,-0.6198,-0.6142,-0.6067,-0.6032,-0.59,-0.5825,0.0,-0.5825,-0.5825,-0.5825,-0.5825,-0.5825,-0.5825,-0.5901,-0.6047,-0.6047,-0.6192,-0.6333,-0.6333,-0.6478,-0.6624,-0.6624,-0.6696,-0.6845,-0.6845,-0.6845,-0.6845,-0.6845,-0.736,-0.7979,-0.7874,-0.7802,-0.7736,-0.7631,-0.7699,-0.7794,-0.7794,-0.7922,-0.7989,-0.7989,-0.7989,-0.7989,-0.7989,-0.8123,-0.8256,-0.8256,-0.839,-0.8528,-0.8528,-0.8528,-0.855,-0.8609,-0.862,-0.8663,-0.8713,-0.8724,-0.9021,-0.9706,-0.9468,-0.9223,-0.9073,-0.8981,-0.89,-0.89,-0.8965,-0.9002,-0.9002,-0.8933,-0.89,-0.89,-0.8697,-0.8601,-0.4047,-0.3966,-0.3908,-0.4243,-0.4578,-0.4854,-0.4675,-0.4643,-0.4568,-0.4412,-0.4342,-0.4349,-0.4415,-0.4584,0.0,-0.5044,-0.5269,-0.5376,-0.5444,-0.5625,-0.5827,-0.5827,-0.5951,-0.5958,-0.5958,-0.5945,-0.5936,-0.5936,-0.5874,-0.5905,-0.5889,-0.5528,-0.534,-0.5325,-0.4951,-0.4804,-0.4804,-0.4654,-0.5043,-0.5827,-0.581,-0.5774,-0.5719,-0.5702,-0.5663,-0.5535,-0.5535,-0.5535,-0.5535,-0.5535,-0.5535,-0.5535,-0.5535,-0.5607,-0.5683,-0.5756,-0.5825,-0.5825,-0.5825,-0.5825,-0.5825,-0.5825,-0.5825,-0.5825,-0.5825,-0.5825,-0.5825,-0.5825,-0.6612,-0.7517,-0.7442,-0.7349,-0.7252,-0.7223,-0.7125,-0.7058,-0.7125,-0.7058,-0.7058,-0.7125,-0.7121,-0.7121,-0.7259,-0.7326,-0.7393,-0.7459,-0.7526,-0.7526,-0.7526,-0.7545,-0.7588,-0.7664,-0.7698,-0.7755,-0.786,-0.7893,-0.8258,-0.9105,-0.8868,-0.8573,-0.8298,-0.8116,-0.8031,-0.8031,-0.804,-0.8078,-0.8078,-0.8069,-0.8031,-0.8031,-0.7945,-0.7837,-0.3752,-0.3861,-0.397,-0.4254,-0.4262,-0.4296,-0.4377,-0.4461,-0.4512,-0.4462,-0.4396,-0.4331,-0.4343,-0.431,-0.4386,-0.4519,-0.4597,-0.466,-0.4794,0.0,-0.492,-0.492,-0.5026,-0.5097,-0.5097,-0.505,-0.502,-0.502,-0.4962,-0.4904,-0.492,-0.4837,-0.481,-0.4752,-0.4749,-0.4679,-0.4679,-0.4311,-0.4364,-0.492,-0.4862,-0.4909,-0.4903,-0.4844,-0.4813,-0.481,-0.481,-0.481,-0.481,-0.481,-0.481,-0.481,-0.481,-0.4956,-0.5323,-0.5683,-0.5825,-0.5825,-0.5825,-0.5825,-0.5825,-0.5825,-0.5825,-0.5825,-0.5825,-0.5825,-0.5825,-0.5825,-0.5846,-0.5862,-0.5855,-0.5803,-0.5726,-0.5649,-0.5573,-0.5647,-0.5979,-0.5781,-0.5647,-0.5979,-0.6046,-0.6113,-0.6518,-0.6853,-0.7121,-0.7459,-0.7526,-0.7526,-0.7526,-0.7607,-0.7669,-0.7674,-0.7764,-0.7864,-0.7974,-0.8074,-0.8131,-0.8203,-0.8107,-0.8054,-0.8054,-0.8083,-0.8068,-0.8068,-0.8078,-0.8078,-0.8078,-0.8073,-0.8068,-0.8068,-0.8059,-0.8059,-0.3518,-0.3482,-0.3489,-0.3728,-0.385,-0.3933,-0.4195,-0.4328,-0.4344,-0.4186,-0.4119,-0.406,-0.3968,0.0,-0.3979,-0.3844,-0.3854,-0.3916,-0.3935,-0.3999,-0.4043,-0.4043,-0.4103,-0.4221,-0.4221,-0.4202,-0.4192,-0.4192,-0.407,-0.4034,-0.4089,-0.3983,-0.3958,-0.3937,-0.3937,-0.3937,-0.3937,-0.3791,-0.3809,-0.3994,-0.3976,-0.3967,-0.3965,-0.3946,-0.3937,-0.3937,-0.3937,-0.3937,-0.3937,-0.3937,-0.3937,-0.401,-0.4226,-0.4371,-0.4587,-0.491,-0.5039,-0.5033,-0.4991,-0.4863,-0.4682,-0.4682,-0.4563,-0.4374,-0.4374,-0.4374,-0.4366,-0.4402,-0.433,-0.4549,-0.5441,-0.5624,-0.5529,-0.5502,-0.5437,-0.5446,-0.558,-0.5513,-0.5446,-0.558,-0.558,-0.5662,-0.5851,-0.5994,-0.6213,-0.6542,-0.6619,-0.6687,-0.6966,-0.7065,-0.7039,-0.6815,-0.6689,-0.6614,-0.6645,-0.668,-0.6696,-0.6696,-0.7319,-0.7729,-0.7729,-0.7548,-0.7425,-0.7425,-0.7425,-0.7425,-0.7425,-0.7135,-0.7092,-0.7068,-0.6796,-0.6727,-0.3125,-0.3025,-0.2924,-0.3142,-0.3334,-0.3503,-0.3793,-0.4049,-0.4184,-0.397,-0.3826,-0.3743,-0.3615,0.0,0.0,0.0,-0.3451,-0.35,-0.35,-0.3541,-0.3569,-0.3569,-0.3681,-0.3708,-0.3708,-0.3696,-0.3688,-0.3688,-0.3572,-0.3547,-0.3547,-0.3518,-0.35,-0.35,-0.35,-0.35,-0.35,-0.3354,-0.3281,-0.3281,-0.3195,-0.327,-0.35,-0.35,-0.35,-0.35,-0.3486,-0.348,-0.3477,-0.3463,-0.3457,-0.3529,-0.3745,-0.3886,-0.3882,-0.4132,-0.419,-0.4185,-0.4148,-0.4029,-0.3863,-0.3863,-0.3682,-0.35,-0.35,-0.35,-0.3494,-0.3535,-0.3467,-0.3688,-0.4726,-0.5005,-0.508,-0.5216,-0.5162,-0.5172,-0.5217,-0.5146,-0.5146,-0.5214,-0.5214,-0.5237,-0.5309,-0.546,-0.5615,-0.5876,-0.5953,-0.6023,-0.6306,-0.6399,-0.6304,-0.6173,-0.5963,-0.5863,-0.5863,-0.5883,-0.5897,-0.5897,-0.6631,-0.7047,-0.7063,-0.6769,-0.6627,-0.6627,-0.6655,-0.6666,-0.6666,-0.6404,-0.6297,-0.6344,-0.5994,-0.5853,-0.2656,-0.2537,-0.2414,-0.2594,-0.2702,-0.2874,-0.3056,-0.3653,-0.4102,-0.3758,-0.3508,-0.3295,-0.3295,-0.3331,0.0,-0.3361,-0.3471,-0.35,-0.35,-0.3539,-0.3569,-0.3569,-0.3679,-0.3706,-0.3706,-0.3594,-0.3569,-0.3569,-0.3527,-0.35,-0.35,-0.35,-0.35,-0.35,-0.35,-0.35,-0.35,-0.3063,-0.2915,-0.2915,-0.252,-0.2737,-0.35,-0.35,-0.35,-0.3498,-0.3523,-0.3504,-0.35,-0.3383,-0.3365,-0.3365,-0.3365,-0.3365,-0.3365,-0.3365,-0.3365,-0.3365,-0.3365,-0.3464,-0.3504,-0.3504,-0.3463,-0.35,-0.35,-0.35,-0.35,-0.35,-0.3467,-0.3361,-0.3361,-0.372,-0.4078,-0.4501,-0.4526,-0.4536,-0.4821,-0.4604,-0.4467,-0.4806,-0.4875,-0.4896,-0.4963,-0.5328,-0.5611,-0.5611,-0.5611,-0.5611,-0.5611,-0.5672,-0.5743,-0.5818,-0.5823,-0.5867,-0.5867,-0.5934,-0.5978,-0.5978,-0.5978,-0.5911,-0.5835,-0.5829,-0.5829,-0.5829,-0.5903,-0.5867,-0.5867,-0.5941,-0.5978,-0.5978,-0.5978,-0.5978,-0.2455,-0.2457,-0.2506,-0.2684,-0.2795,-0.2907,-0.3148,-0.3333,-0.3499,-0.3445,-0.3347,-0.3225,-0.3013,-0.2975,0.0,-0.2648,-0.2676,-0.2624,-0.2624,-0.2706,-0.2713,-0.2713,-0.2722,-0.2727,-0.2727,-0.2719,-0.2713,-0.2713,-0.263,-0.2624,-0.2624,-0.2624,-0.2624,-0.2624,-0.2624,-0.2624,-0.2624,-0.253,-0.2448,-0.2448,-0.2344,-0.2345,-0.2662,-0.2638,-0.2555,-0.2555,-0.2615,-0.2612,-0.261,-0.2529,-0.2526,-0.2596,-0.2875,-0.2943,-0.3011,-0.3259,-0.3316,-0.3316,-0.3316,-0.3207,-0.3037,-0.2993,-0.2813,-0.2624,-0.2624,-0.2624,-0.2619,-0.267,-0.2673,-0.2676,-0.3011,-0.3167,-0.3319,-0.3612,-0.3654,-0.3711,-0.3765,-0.3693,-0.3623,-0.3762,-0.3971,-0.4198,-0.4256,-0.4619,-0.4991,-0.5254,-0.5333,-0.5404,-0.5689,-0.5535,-0.544,-0.5459,-0.523,-0.5118,-0.5118,-0.5135,-0.5071,-0.4767,-0.4767,-0.513,-0.5914,-0.5911,-0.5911,-0.5911,-0.5934,-0.5944,-0.5944,-0.5738,-0.5622,-0.567,-0.5016,-0.4791,-0.2228,-0.2236,-0.2286,-0.2426,-0.2529,-0.2639,-0.2793,-0.2965,-0.3053,-0.3119,-0.2991,-0.2847,-0.2634,-0.2579,0.0,-0.2307,-0.2322,-0.2333,-0.2333,-0.2333,-0.2333,-0.2333,-0.2333,-0.2333,-0.2333,-0.2333,-0.2333,-0.2333,-0.2187,-0.2114,-0.2114,-0.1969,-0.1892,-0.1882,-0.1881,-0.1876,-0.1867,-0.1853,-0.1847,-0.1845,-0.1821,-0.1818,-0.1831,-0.2108,-0.2175,-0.2175,-0.2092,-0.2013,-0.1933,-0.1933,-0.1933,-0.2002,-0.2415,-0.2553,-0.2619,-0.2803,-0.2871,-0.2886,-0.2886,-0.2713,-0.2618,-0.2569,-0.2454,-0.2333,-0.2333,-0.2333,-0.233,-0.2312,-0.232,-0.2328,-0.2599,-0.2681,-0.276,-0.3288,-0.3347,-0.3343,-0.3325,-0.3321,-0.3321,-0.3321,-0.3533,-0.3689,-0.3812,-0.4035,-0.4261,-0.4514,-0.4519,-0.4592,-0.4883,-0.4717,-0.4604,-0.4604,-0.4452,-0.4347,-0.4347,-0.4367,-0.4302,-0.407,-0.407,-0.4376,-0.5069,-0.5097,-0.5069,-0.5069,-0.5094,-0.5109,-0.5109,-0.4902,-0.4778,-0.4812,-0.4316,-0.4088,-0.1947,-0.183,-0.175,-0.1896,-0.1988,-0.2017,-0.2194,-0.2435,-0.2659,-0.2838,-0.2551,-0.226,-0.226,-0.226,-0.2187,-0.2187,-0.2187,-0.2187,-0.2187,-0.226,-0.226,-0.226,-0.226,-0.226,-0.226,-0.226,-0.226,-0.2187,-0.1895,-0.175,-0.175,-0.1386,-0.1234,-0.1217,-0.1217,-0.1209,-0.1193,-0.1191,-0.119,-0.119,-0.1105,-0.1098,-0.1098,-0.1807,-0.2097,-0.2096,-0.1793,-0.1635,-0.1548,-0.1548,-0.1548,-0.1616,-0.1952,-0.2087,-0.2087,-0.2087,-0.2106,-0.2132,-0.2134,-0.2173,-0.222,-0.2223,-0.2168,-0.2187,-0.2187,-0.2187,-0.2187,-0.2187,-0.2187,-0.2187,-0.2187,-0.2187,-0.2405,-0.3136,-0.3354,-0.3344,-0.3303,-0.3295,-0.3295,-0.3295,-0.3295,-0.3379,-0.3421,-0.35,-0.35,-0.35,-0.35,-0.3502,-0.3506,-0.3473,-0.3501,-0.3505,-0.3655,-0.3706,-0.3706,-0.3743,-0.3768,-0.3768,-0.3768,-0.3689,-0.3689,-0.3611,-0.3645,-0.3645,-0.3684,-0.3706,-0.3706,-0.3747,-0.3768,-0.3768,-0.3768,-0.3768,-0.1121,-0.1129,-0.1127,-0.1181,-0.1256,-0.1324,-0.1353,-0.1443,-0.1745,-0.2331,-0.2187,-0.1895,-0.1895,-0.1678,-0.146,-0.146,-0.146,-0.146,-0.146,-0.1677,-0.1895,-0.1895,-0.2114,-0.2187,-0.1968,-0.1895,-0.175,-0.1459,-0.1386,-0.1313,-0.1313,-0.1241,-0.1234,-0.1217,-0.1217,-0.1209,-0.1193,-0.118,-0.1104,-0.1104,-0.1089,-0.1082,-0.1082,-0.1289,-0.1358,-0.1358,-0.1286,-0.1215,-0.1212,-0.1212,-0.1212,-0.1212,-0.1279,-0.1346,-0.1346,-0.1346,-0.1358,-0.1308,-0.1322,-0.1341,-0.1362,-0.1449,-0.1456,-0.146,-0.146,-0.146,-0.146,-0.146,-0.146,-0.146,-0.146,-0.146,-0.146,-0.1679,-0.2115,-0.255,-0.2542,-0.2541,-0.2541,-0.2541,-0.2758,-0.2979,-0.3061,-0.3281,-0.35,-0.35,-0.35,-0.3514,-0.3475,-0.3517,-0.3631,-0.3668,-0.3721,-0.3753,-0.3753,-0.3762,-0.3611,-0.3297,-0.3219,-0.314,-0.2828,-0.3437,-0.3739,-0.3739,-0.3747,-0.3753,-0.3753,-0.3764,-0.3768,-0.3768,-0.3454,-0.3219,-0.0869,-0.0924,-0.098,-0.1047,-0.1093,-0.1128,-0.1151,-0.1162,-0.1314,-0.1678,-0.1605,-0.1532,-0.1532,-0.1313,-0.1168,-0.1168,-0.1168,-0.1168,-0.1168,-0.1386,-0.1532,-0.1532,-0.1678,-0.1678,-0.1532,-0.1532,-0.1459,-0.1241,-0.1022,-0.0949,-0.0949,-0.0726,-0.0647,-0.0638,-0.0634,-0.0628,-0.0619,-0.0615,-0.0544,-0.0544,-0.054,-0.0606,-0.0606,-0.0943,-0.1077,-0.1077,-0.0875,-0.0808,-0.0808,-0.0808,-0.0808,-0.0808,-0.101,-0.1077,-0.1078,-0.1085,-0.1098,-0.1113,-0.1128,-0.1143,-0.1158,-0.1165,-0.1168,-0.1168,-0.1168,-0.1168,-0.1168,-0.1168,-0.1168,-0.1168,-0.1168,-0.1168,-0.1168,-0.1168,-0.1459,-0.1751,-0.1751,-0.1751,-0.1751,-0.1751,-0.2114,-0.2405,-0.2405,-0.2697,-0.2917,-0.2917,-0.2932,-0.2951,-0.297,-0.3021,-0.3062,-0.3159,-0.3118,-0.3142,-0.3142,-0.2985,-0.2748,-0.2512,-0.2356,-0.212,-0.1964,-0.2356,-0.2748,-0.3142,-0.2985,-0.2905,-0.2905,-0.2669,-0.2591,-0.2591,-0.2356,-0.2277,-0.071,-0.0763,-0.0822,-0.0889,-0.0907,-0.0915,-0.1012,-0.1018,-0.1019,-0.1021,-0.1022,-0.1095,-0.1095,-0.1022,-0.1022,-0.1022,-0.1022,-0.1022,-0.1022,-0.1022,-0.1095,-0.1095,-0.1168,-0.1168,-0.1095,-0.1095,-0.1095,-0.1022,-0.0657,-0.051,-0.0509,-0.0216,0.0,0.0,0.0069,0.0068,0.0067,0.0135,0.0202,0.0202,0.0202,0.0202,0.0202,-0.0471,-0.0808,-0.0875,-0.0539,-0.0404,-0.0404,-0.0404,-0.0404,-0.0471,-0.0808,-0.0876,-0.0812,-0.0821,-0.0764,-0.0705,-0.0713,-0.0722,-0.0803,-0.0876,-0.0876,-0.0876,-0.0949,-0.1022,-0.1022,-0.1022,-0.1022,-0.1022,-0.1022,-0.1022,-0.1022,-0.1022,-0.1022,-0.1022,-0.1168,-0.1168,-0.1168,-0.1168,-0.1459,-0.1677,-0.1677,-0.1895,-0.2115,-0.212,-0.214,-0.2158,-0.2168,-0.2209,-0.2316,-0.2321,-0.2265,-0.2278,-0.2278,-0.1964,-0.1807,-0.1807,-0.1493,-0.1336,-0.1336,-0.1336,-0.165,-0.2278,-0.1964,-0.1807,-0.1807,-0.1493,-0.1336,-0.1336,-0.1336,-0.1336,-0.0105,-0.0116,-0.0127,-0.0134,-0.0137,-0.0139,-0.0143,-0.0144,-0.0144,-0.0146,-0.0438,-0.0657,-0.0657,-0.0365,-0.0146,-0.0146,-0.0146,-0.0146,-0.0146,-0.0438,-0.0657,-0.0657,-0.1022,-0.1095,-0.073,-0.0657,-0.0511,-0.0219,-0.0146,-0.0073,-0.0072,0.0,0.0,0.0,0.0275,0.041,0.0404,0.0808,0.0943,0.0943,0.0943,0.0943,0.0943,0.0875,0.0471,-0.0135,-0.0067,-0.0067,-0.0067,-0.0067,-0.0067,-0.0067,-0.0135,0.0068,0.0343,0.0343,0.0559,0.0928,0.0858,0.0866,0.0803,0.0438,0.0365,0.0292,-0.0073,-0.0146,-0.0146,-0.0146,-0.0146,-0.0146,-0.0146,-0.0146,-0.0146,-0.0146,-0.0146,-0.0365,-0.1022,-0.1168,-0.1168,-0.1168,-0.1241,-0.1314,-0.1314,-0.1314,-0.1318,-0.1332,-0.1336,-0.1348,-0.1377,-0.1386,-0.1394,-0.1487,-0.1491,-0.1493,-0.1493,-0.1414,-0.1414,-0.1414,-0.1336,-0.1336,-0.1336,-0.1336,-0.1336,-0.1493,-0.1414,-0.1414,-0.1414,-0.1336,-0.1336,-0.1336,-0.1336,-0.1336,0.0427,0.0465,0.0499,0.0525,0.0538,0.0547,0.0633,0.0637,0.0639,0.0648,0.0505,0.0217,-0.0219,-0.0146,0.0073,0.0292,0.0365,0.0365,0.0365,0.0219,0.0,-0.0219,-0.0435,-0.0433,-0.0289,-0.0287,-0.0143,0.0285,0.0285,0.0356,0.0637,0.0632,0.0626,0.0619,0.075,0.0813,0.0808,0.101,0.1077,0.1077,0.1077,0.1077,0.1077,0.1077,0.0943,0.0606,0.0606,0.0606,0.0606,0.0606,0.0606,0.0606,0.0606,0.0747,0.0894,0.0901,0.0985,0.1218,0.1227,0.1235,0.1168,0.1022,0.0949,0.0876,0.073,0.0657,0.0657,0.0657,0.0657,0.0657,0.0657,0.066,0.0663,0.0663,0.0519,0.0223,-0.0149,-0.0369,-0.0585,-0.081,-0.089,-0.0969,-0.1192,-0.1192,-0.1194,-0.1201,-0.1209,-0.1219,-0.1233,-0.1241,-0.125,-0.1334,-0.1336,-0.1336,-0.1336,-0.1021,-0.0942,-0.0942,-0.0707,-0.055,-0.055,-0.0393,-0.0236,-0.0236,-0.0707,-0.0942,-0.0942,-0.0707,-0.055,-0.055,-0.055,-0.0471,0.0744,0.0796,0.0901,0.0954,0.098,0.1002,0.1034,0.1041,0.1046,0.1064,0.1071,0.0933,0.0362,0.0291,0.0438,0.073,0.073,0.073,0.073,0.073,0.0657,0.0365,0.0289,0.0286,0.0286,0.0283,0.0351,0.0631,0.0631,0.0771,0.1117,0.1106,0.1098,0.1094,0.1151,0.1212,0.1212,0.1346,0.1414,0.1414,0.1414,0.1414,0.1414,0.1414,0.1414,0.1346,0.1212,0.1077,0.1077,0.1077,0.1077,0.1077,0.1077,0.1154,0.1239,0.1256,0.1345,0.1506,0.1453,0.1459,0.1459,0.1386,0.1386,0.1313,0.1241,0.1168,0.1168,0.1168,0.1168,0.1168,0.1172,0.1181,0.119,0.1194,0.0978,0.0681,0.053,0.0224,-0.0074,-0.0373,-0.0451,-0.053,-0.0833,-0.0909,-0.091,-0.0912,-0.092,-0.0926,-0.093,-0.0937,-0.0942,-0.0864,-0.0785,-0.0785,-0.0628,-0.0315,-0.0079,-0.0079,0.0158,0.0315,0.0314,0.0628,0.0785,0.0785,0.0157,-0.0079,-0.0079,0.0157,0.0314,0.0314,0.0314,0.0471,0.07,0.0749,0.0798,0.0899,0.093,0.0897,0.1002,0.1012,0.102,0.1117,0.1135,0.1074,0.1074,0.1086,0.1168,0.1168,0.1168,0.1168,0.1168,0.1168,0.1168,0.1168,0.1082,0.1074,0.1074,0.106,0.1052,0.1052,0.1052,0.1046,0.1102,0.11,0.1093,0.1079,0.1414,0.1548,0.1548,0.1952,0.2154,0.2154,0.2154,0.2154,0.2154,0.2154,0.2154,0.2087,0.1414,0.1077,0.1077,0.1077,0.1077,0.1077,0.1077,0.1357,0.1652,0.1675,0.1911,0.2223,0.225,0.226,0.2187,0.1895,0.175,0.1677,0.1313,0.1168,0.1168,0.1168,0.1168,0.1171,0.1184,0.1188,0.1192,0.1282,0.1286,0.106,0.0227,0.0,0.0,0.0,0.0,-0.0076,-0.0076,-0.0076,-0.0076,-0.0077,-0.0077,-0.0077,-0.0078,-0.0078,0.0079,0.0471,0.0471,0.0707,0.1099,0.1191,0.1193,0.1179,0.1191,0.1192,0.1257,0.1256,0.1256,0.1256,0.1256,0.1178,0.1178,0.1256,0.1256,0.1256,0.1256,0.1256,0.1176,0.1242,0.1363,0.1452,0.1453,0.1507,0.1641,0.1682,0.1717,0.1767,0.1797,0.1819,0.1834,0.1438,0.1314,0.1532,0.1605,0.1605,0.1605,0.1521,0.1442,0.1153,0.1131,0.1116,0.1116,0.1102,0.1162,0.1435,0.1435,0.15,0.1763,0.1831,0.1827,0.1818,0.1952,0.1952,0.1952,0.2154,0.2223,0.2223,0.2425,0.2492,0.2559,0.2759,0.2827,0.2827,0.2556,0.2221,0.1818,0.1818,0.1818,0.1818,0.1818,0.1912,0.2021,0.2031,0.2134,0.2319,0.233,0.2333,0.226,0.2187,0.2114,0.2114,0.1969,0.1896,0.1896,0.1896,0.1896,0.1902,0.1925,0.1944,0.1891,0.1698,0.1706,0.1551,0.0931,0.0848,0.0843,0.0843,0.0848,0.0853,0.0853,0.0853,0.0854,0.0858,0.0858,0.086,0.0863,0.0864,0.0864,0.1021,0.1021,0.1103,0.1271,0.1276,0.1282,0.1286,0.1291,0.1291,0.1286,0.1516,0.1669,0.1669,0.1972,0.1807,0.1336,0.1336,0.1336,0.1336,0.1267,0.143,0.1549,0.158,0.1614,0.1717,0.1742,0.1819,0.191,0.1977,0.2039,0.2175,0.2157,0.2193,0.2225,0.1845,0.1656,0.1872,0.1943,0.1943,0.1943,0.193,0.1778,0.1493,0.1464,0.1443,0.1443,0.1493,0.1548,0.1818,0.1818,0.0,0.2155,0.2223,0.2223,0.2223,0.229,0.2357,0.2357,0.249,0.2558,0.2558,0.2759,0.2894,0.2894,0.3094,0.3228,0.3228,0.3228,0.2961,0.2558,0.2558,0.2558,0.2559,0.2571,0.2468,0.2373,0.2393,0.2356,0.232,0.2475,0.2478,0.2551,0.2624,0.2697,0.2697,0.2697,0.2697,0.2697,0.2551,0.2478,0.2488,0.2383,0.2424,0.2386,0.2191,0.2121,0.2043,0.1728,0.1483,0.1319,0.1319,0.1328,0.1336,0.1336,0.1336,0.1336,0.1336,0.1336,0.1336,0.1336,0.1336,0.1336,0.1493,0.1498,0.1586,0.1758,0.1772,0.1702,0.1708,0.1714,0.1715,0.1709,0.2018,0.2172,0.2333,0.2633,0.2544,0.2146,0.1893,0.1732,0.1739,0.1753,0.1927,0.0,0.0,0.0,0.16,0.1684,0.1722,0.1813,0.1824,0.1952,0.2042,0.2173,0.2227,0.2191,0.2221,0.2171,0.2171,0.2174,0.2175,0.2175,0.2175,0.2174,0.2174,0.2217,0.2199,0.2199,0.2172,0.2223,0.2223,0.2223,0.2223,0.2223,0.2223,0.2223,0.2223,0.2559,0.2694,0.2694,0.3028,0.3228,0.3228,0.3228,0.3228,0.3228,0.3228,0.3228,0.3228,0.3228,0.3228,0.3228,0.3228,0.323,0.3234,0.3279,0.3094,0.2762,0.2904,0.2648,0.2367,0.276,0.2917,0.299,0.3354,0.35,0.35,0.35,0.35,0.3427,0.3063,0.2917,0.2861,0.2483,0.2469,0.2514,0.2514,0.2514,0.2514,0.2514,0.1964,0.1336,0.1336,0.1336,0.1336,0.1336,0.1336,0.1336,0.1336,0.1336,0.1336,0.1336,0.1336,0.1494,0.1888,0.1907,0.2081,0.2562,0.2615,0.2635,0.2607,0.2632,0.2635,0.2605,0.2604,0.2848,0.3336,0.3334,0.3496,0.3905,0.3022,0.2611,0.2642,0.2642,0.2917,0.1834,0.0,0.0,0.0,0.0,0.0,0.1894,0.1884,0.1858,0.1949,0.2015,0.2065,0.2095,0.2127,0.2147,0.2147,0.2134,0.2175,0.2175,0.2226,0.2213,0.2213,0.2185,0.2168,0.2168,0.2227,0.2223,0.0,0.2223,0.229,0.2559,0.2759,0.2894,0.2894,0.3028,0.3096,0.3096,0.3161,0.3228,0.3228,0.3497,0.3633,0.3633,0.3902,0.3969,0.3969,0.3969,0.3969,0.3969,0.343,0.3249,0.3279,0.3291,0.3267,0.3258,0.3353,0.3237,0.3194,0.3278,0.3354,0.3354,0.3427,0.35,0.35,0.35,0.35,0.35,0.3354,0.3354,0.3301,0.331,0.3392,0.3456,0.3456,0.3456,0.3456,0.3456,0.3297,0.2905,0.2278,0.22,0.22,0.22,0.2215,0.2228,0.2228,0.2244,0.2255,0.2255,0.2255,0.2255,0.2417,0.2423,0.2598,0.3031,0.3132,0.3233,0.3581,0.3592,0.3594,0.3583,0.3638,0.3707,0.3789,0.3758,0.3823,0.3905,0.3636,0.3551,0.3563,0.3593,0.3716,0.0,0.0,0.0,0.0,0.0,0.0,0.2077,0.204,0.2095,0.2145,0.2221,0.2346,0.2397,0.2436,0.246,0.246,0.2525,0.2519,0.2204,0.2192,0.2181,0.2181,0.2232,0.2223,0.2425,0.2425,0.2492,0.2625,0.2625,0.2692,0.2894,0.3078,0.3135,0.3135,0.3316,0.3371,0.3371,0.3503,0.3569,0.3569,0.3858,0.3934,0.4003,0.4227,0.4308,0.4308,0.4308,0.4308,0.4241,0.3835,0.3731,0.378,0.3801,0.379,0.3723,0.374,0.3622,0.35,0.3718,0.3718,0.3791,0.3937,0.401,0.401,0.401,0.401,0.3937,0.3791,0.3673,0.3572,0.3641,0.3715,0.3768,0.3768,0.3768,0.3768,0.3768,0.3768,0.3611,0.3142,0.3063,0.3068,0.3083,0.3103,0.3123,0.314,0.3158,0.3171,0.3171,0.3171,0.3171,0.3171,0.3185,0.3285,0.3557,0.3573,0.3675,0.395,0.4036,0.4036,0.4036,0.4011,0.4082,0.4248,0.4222,0.429,0.4537,0.4086,0.3915,0.3933,0.4144,0.4264,0.0,0.0,0.0,0.0,0.0,0.0,0.2214,0.2324,0.2394,0.2525,0.262,0.2704,0.2847,0.2903,0.2939,0.2943,0.3044,0.2913,0.2403,0.2278,0.2278,0.2278,0.2283,0.2418,0.2687,0.2759,0.2894,0.3161,0.3224,0.3291,0.3295,0.3249,0.3226,0.3231,0.3509,0.3672,0.3672,0.3997,0.4125,0.4125,0.4253,0.4281,0.4284,0.4411,0.4442,0.4442,0.4442,0.4442,0.4442,0.4375,0.4346,0.4412,0.4463,0.4314,0.4092,0.4136,0.3937,0.3718,0.4007,0.4153,0.4226,0.4592,0.4665,0.4665,0.4665,0.4665,0.4592,0.4306,0.3939,0.3719,0.3842,0.3888,0.3925,0.3925,0.3925,0.3925,0.3925,0.3925,0.3927,0.3931,0.3855,0.3867,0.3909,0.3925,0.3946,0.3907,0.3915,0.3919,0.3919,0.3919,0.3919,0.3919,0.3956,0.4063,0.4063,0.4097,0.412,0.412,0.412,0.412,0.412,0.412,0.4372,0.4794,0.4794,0.5046,0.5468,0.4534,0.4103,0.4146,0.4605,0.4878,0.0,0.0,0.0,0.0,0.0,0.0,0.2484,0.2398,0.2264,0.2345,0.2439,0.257,0.2569,0.2643,0.2708,0.2741,0.2843,0.2853,0.2911,0.2929,0.2929,0.2929,0.2894,0.2979,0.3047,0.3076,0.3161,0.3228,0.3461,0.3656,0.3698,0.3808,0.3906,0.3952,0.4028,0.3997,0.3997,0.4318,0.4514,0.4514,0.4841,0.5004,0.5007,0.5145,0.5178,0.5178,0.5178,0.5178,0.5178,0.4842,0.464,0.4466,0.4477,0.4551,0.4576,0.4587,0.4519,0.4447,0.4589,0.4592,0.4592,0.4665,0.4665,0.4665,0.4665,0.4665,0.4676,0.4649,0.4641,0.4555,0.4611,0.4745,0.4787,0.4787,0.4787,0.4787,0.4787,0.4787,0.48,0.4847,0.43,0.3905,0.3915,0.3978,0.395,0.3958,0.3989,0.4009,0.4009,0.4009,0.4009,0.4009,0.4017,0.4191,0.4528,0.4535,0.471,0.5132,0.5132,0.5132,0.5132,0.5132,0.5132,0.53,0.5633,0.5885,0.5969,0.536,0.5104,0.5117,0.5628,0.5801,0.0,0.0,0.0,0.2768,0.0,0.0,0.0,0.2603,0.2499,0.26,0.2705,0.2792,0.2792,0.2886,0.2962,0.2987,0.311,0.3188,0.3267,0.3165,0.3062,0.3062,0.3103,0.3195,0.3325,0.341,0.3489,0.3621,0.3796,0.3934,0.3993,0.4018,0.4109,0.4169,0.4209,0.4224,0.4224,0.4605,0.4731,0.4731,0.4993,0.5107,0.5212,0.5287,0.5345,0.5379,0.5379,0.5379,0.5379,0.5178,0.5059,0.5045,0.4835,0.4982,0.5247,0.5247,0.5247,0.5247,0.5247,0.5247,0.5247,0.5247,0.5247,0.5247,0.5247,0.5268,0.5385,0.5453,0.5449,0.5517,0.5581,0.5624,0.5645,0.5645,0.5492,0.5335,0.5335,0.5179,0.5117,0.5419,0.5139,0.4846,0.4631,0.4598,0.4643,0.4669,0.4693,0.471,0.471,0.471,0.471,0.471,0.471,0.4794,0.5046,0.5046,0.5216,0.5717,0.5717,0.5804,0.6056,0.6056,0.6056,0.6056,0.634,0.6525,0.6525,0.6309,0.612,0.6056,0.6308,0.6389,0.0,0.0,0.0,0.0,0.0,0.2706,0.0,0.0,0.0,0.2826,0.2969,0.3061,0.3063,0.0,0.0,0.3251,0.0,0.0,0.0,0.3238,0.0,0.3158,0.3215,0.3379,0.3643,0.3653,0.3791,0.4061,0.4104,0.4123,0.4194,0.4085,0.411,0.417,0.4377,0.4499,0.4499,0.481,0.4995,0.4995,0.5129,0.527,0.5411,0.5428,0.5506,0.558,0.558,0.558,0.558,0.5513,0.5607,0.5747,0.5324,0.5412,0.5825,0.5825,0.5825,0.5825,0.5825,0.5825,0.5825,0.5825,0.5825,0.5825,0.5825,0.588,0.6032,0.6108,0.6187,0.6186,0.6254,0.6275,0.6275,0.6275,0.604,0.5811,0.5824,0.551,0.5376,0.5857,0.5997,0.5972,0.5616,0.5551,0.5576,0.5628,0.5636,0.5636,0.5636,0.5636,0.5636,0.5636,0.5636,0.5636,0.5636,0.5636,0.5804,0.6221,0.6221,0.6389,0.6727,0.6727,0.6727,0.6727,0.6884,0.7003,0.7003,0.717,0.7059,0.6768,0.6856,0.6846,0.0,0.0,0.0,0.0,0.2736,0.0,0.0,0.0,0.264,0.27,0.0,0.0,0.0,0.0,0.0,0.0,0.0,0.0,0.3122,0.3205,0.3374,0.358,0.3761,0.3849,0.3841,0.3891,0.4005,0.412,0.3967,0.3956,0.4131,0.4273,0.4357,0.4425,0.4729,0.4872,0.4872,0.5176,0.536,0.536,0.5695,0.597,0.6118,0.6145,0.6233,0.6388,0.6388,0.6388,0.6317,0.5982,0.6149,0.6516,0.5817,0.5625,0.5825,0.5825,0.5825,0.5825,0.5825,0.5825,0.5825,0.5825,0.5825,0.5825,0.5825,0.588,0.6032,0.6108,0.6187,0.6186,0.6254,0.6275,0.6275,0.6275,0.6275,0.6213,0.628,0.6294,0.6257,0.6479,0.6512,0.6522,0.6447,0.6503,0.655,0.656,0.656,0.656,0.656,0.656,0.656,0.656,0.656,0.656,0.656,0.656,0.656,0.6643,0.6643,0.6643,0.6727,0.6727,0.6727,0.6727,0.7223,0.7433,0.7433,0.7945,0.7717,0.7008,0.7356,0.7492,0.0,0.0,0.0,0.0,0.0,0.0,0.2692,0.0,0.2556,0.0,0.0,0.0,0.0,0.0,0.0,0.0,0.3164,0.0,0.0,0.0,0.3466,0.0,0.0,0.0,0.3782,0.3845,0.3891,0.3916,0.4027,0.4177,0.4267,0.4534,0.4719,0.4787,0.5033,0.5176,0.5176,0.5544,0.5671,0.5671,0.583,0.6047,0.6182,0.6219,0.6317,0.6522,0.6522,0.6522,0.6455,0.6317,0.6393,0.6582,0.6356,0.6338,0.6482,0.6482,0.6482,0.6482,0.6482,0.6482,0.6482,0.6482,0.6482,0.649,0.6539,0.6615,0.6773,0.6854,0.6942,0.6937,0.6967,0.6978,0.6978,0.6978,0.6859,0.6745,0.6781,0.6585,0.6566,0.692,0.7024,0.7121,0.7418,0.7038,0.6727,0.6727,0.6727,0.6727,0.6727,0.6727,0.6727,0.6727,0.6727,0.6727,0.6727,0.6765,0.6873,0.7131,0.7429,0.7626,0.7626,0.7626,0.7626,0.7626,0.8223,0.8445,0.8532,0.9061,0.9105,0.8749,0.8557,0.84,0.3087,0.0,0.0,0.0,0.0,0.0,0.0,0.0,0.0,0.0,0.0,0.0,0.0,0.0,0.0,0.0,0.0,0.3296,0.0,0.3406,0.0,0.0,0.0,0.0,0.0,0.387,0.392,0.3972,0.4177,0.436,0.4526,0.4841,0.5056,0.5133,0.5389,0.5544,0.5544,0.5794,0.5916,0.5916,0.5916,0.601,0.6182,0.6182,0.628,0.6522,0.6522,0.6522,0.6522,0.6522,0.6576,0.6735,0.6827,0.7031,0.7246,0.7055,0.699,0.699,0.699,0.699,0.699,0.699,0.699,0.7007,0.7096,0.719,0.728,0.7366,0.7456,0.7525,0.7525,0.7525,0.7533,0.7558,0.7378,0.7198,0.7248,0.7063,0.7044,0.762,0.7718,0.7821,0.8386,0.7729,0.7063,0.7063,0.7063,0.7063,0.7063,0.7063,0.7063,0.7063,0.7063,0.7063,0.7063,0.7215,0.744,0.7894,0.8297,0.8593,0.868,0.868,0.868,0.868,0.9123,0.9435,0.9435,0.9801,1.003,1.0026,0.9522,0.9266,0.0,0.0,0.0,0.3156,0.0,0.0,0.0,0.0,0.3061,0.0,0.0,0.0,0.0,0.0,0.0,0.0,0.0,0.0,0.0,0.0,0.0,0.0,0.0,0.0,0.0,0.4166,0.4256,0.0,0.4418,0.4529,0.4754,0.5121,0.5339,0.536,0.5732,0.5855,0.5855,0.5916,0.5916,0.5916,0.5916,0.601,0.6182,0.6182,0.628,0.6522,0.6522,0.6522,0.6522,0.6522,0.6707,0.7073,0.7243,0.7551,0.787,0.7246,0.699,0.699,0.699,0.699,0.699,0.699,0.699,0.7007,0.7096,0.719,0.728,0.7366,0.7456,0.7525,0.7525,0.7525,0.7546,0.7635,0.766,0.7713,0.7807,0.7847,0.8041,0.8549,0.865,0.8817,0.924,0.865,0.8064,0.8064,0.8064,0.8064,0.8064,0.8064,0.8064,0.8064,0.8064,0.8064,0.8064,0.8146,0.8407,0.8926,0.8934,0.9194,0.9711,0.9716,0.9716,0.9716,0.9816,0.9873,0.9873,0.9978,1.003,1.003,0.9937,0.9964,0.0,0.0,0.3406,0.3343,0.0,0.0,0.0,0.0,0.0,0.0,0.0,0.0,0.0,0.0,0.0,0.0,0.0,0.0,0.0,0.0,0.0,0.0,0.0,0.0,0.0,0.0,0.0,0.0,0.4522,0.0,0.5013,0.542,0.5641,0.5728,0.5855,0.5978,0.6219,0.6219,0.6346,0.6591,0.6591,0.6696,0.6887,0.6887,0.6996,0.7192,0.7192,0.7192,0.7192,0.7192,0.721,0.7391,0.7562,0.7715,0.7837,0.7724,0.7715,0.7715,0.7715,0.7715,0.7715,0.7715,0.7756,0.7902,0.8002,0.8106,0.8206,0.8306,0.8361,0.8388,0.8388,0.8434,0.8409,0.8128,0.8478,0.8671,0.8414,0.8641,0.8948,0.9147,0.9156,0.924,0.9407,0.9212,0.9062,0.8993,0.8984,0.8984,0.8984,0.8984,0.8984,0.8984,0.8984,0.9012,0.908,0.9239,0.9463,0.9652,0.9656,0.9745,0.9926,0.9926,0.9926,0.9926,1.0224,1.0421,1.0421,1.0811,1.101,1.101,1.101,1.0811,0.3365,0.3449,0.0,0.3622,0.3712,0.0,0.3795,0.0,0.0,0.0,0.0,0.0,0.0,0.0,0.0,0.0,0.0,0.0,0.0,0.3601,0.0,0.0,0.0,0.0,0.0,0.0,0.0,0.0,0.0,0.0,0.0,0.5518,0.5833,0.6046,0.6084,0.6223,0.6591,0.6591,0.6714,0.6903,0.6903,0.7007,0.7207,0.7207,0.7322,0.7526,0.7526,0.7526,0.7526,0.7526,0.7593,0.7746,0.7957,0.8109,0.8209,0.8146,0.8078,0.8078,0.8078,0.8078,0.8087,0.812,0.825,0.8326,0.8474,0.8564,0.864,0.875,0.8778,0.8778,0.8778,0.8933,0.8935,0.8655,0.8959,0.9259,0.8967,0.9193,0.949,0.9657,0.9653,0.9751,0.9874,1.0023,0.9964,0.9558,0.9492,0.9502,0.9469,0.9464,0.9445,0.9407,0.944,0.9521,0.9664,0.9797,1.0004,1.0204,1.0209,1.0298,1.0565,1.0565,1.0565,1.0565,1.0832,1.101,1.101,1.1366,1.1632,1.1721,1.1721,1.1632]},{"header":{"parameterUnit":"m.s-1","parameterCategory":1,"la1":30.6,"la2":29.2853,"lo1":-89.7004,"lo2":-87.6739,"dy":0.0162,"dx":0.0183,"nx":112,"ny":82,"refTime":"2023-10-01T18:00:00:Z","depth":0,"parameterNumber":3,"parameterNumberName":"V-component_of_WINDS"},"data":[0.0,0.0,0.0,0.0,0.0,0.0,0.0,0.0,0.0,0.0,0.0,0.0,0.0,0.0,0.0,0.0,0.0,0.0,0.0,0.0,0.0,0.0,0.0,0.0,0.0,0.0,0.0,0.0,0.0,0.0,0.0,0.0,0.0,0.0,0.0,0.0,0.0,0.0,0.0,0.0,0.0,0.0,0.0,0.0,0.0,0.0,0.0,0.0,0.0,0.0,0.0,0.0,0.0,0.0,0.0,0.0,0.0,0.0,0.0,0.0,0.0,0.0,0.0,0.0,0.0,0.0,0.0,0.0,0.0,0.0,0.0,0.0,0.0,0.0,0.0,0.0,0.0,0.0,0.0,0.0,0.0,0.0,0.0,0.0,0.0,0.0,0.0,0.0,0.0,0.0,0.0,2.5284,2.7021,2.8073,2.8095,2.7241,2.5969,2.4167,0.0,0.0,0.0,0.0,0.0,0.0,0.0,0.0,0.0,0.0,0.0,0.0,0.0,0.0,0.0,0.0,0.0,0.0,0.0,0.0,0.0,0.0,0.0,0.0,0.0,0.0,0.0,0.0,0.0,0.0,0.0,0.0,0.0,0.0,0.0,0.0,0.0,0.0,0.0,0.0,0.0,0.0,0.0,0.0,0.0,0.0,0.0,0.0,0.0,0.0,0.0,0.0,0.0,0.0,0.0,0.0,0.0,0.0,0.0,0.0,0.0,0.0,0.0,0.0,0.0,0.0,0.0,0.0,0.0,0.0,0.0,0.0,0.0,0.0,0.0,0.0,0.0,0.0,0.0,0.0,0.0,0.0,0.0,0.0,0.0,0.0,0.0,0.0,0.0,0.0,0.0,0.0,0.0,0.0,0.0,0.0,0.0,0.0,0.0,0.0,0.0,0.0,0.0,0.0,2.4725,2.7267,2.8023,2.84,2.8573,2.7405,2.6185,2.4897,0.0,0.0,0.0,0.0,0.0,0.0,0.0,0.0,0.0,0.0,0.0,0.0,0.0,0.0,0.0,0.0,0.0,0.0,0.0,0.0,0.0,0.0,0.0,0.0,0.0,0.0,0.0,0.0,0.0,0.0,0.0,0.0,0.0,0.0,0.0,0.0,0.0,0.0,0.0,0.0,0.0,0.0,0.0,0.0,0.0,0.0,0.0,0.0,0.0,0.0,0.0,0.0,0.0,0.0,0.0,0.0,0.0,0.0,0.0,0.0,0.0,0.0,0.0,0.0,0.0,0.0,0.0,0.0,0.0,0.0,0.0,0.0,0.0,0.0,0.0,0.0,0.0,0.0,0.0,0.0,0.0,0.0,0.0,0.0,0.0,0.0,0.0,0.0,0.0,0.0,0.0,0.0,0.0,0.0,0.0,0.0,0.0,0.0,0.0,0.0,0.0,0.0,0.0,2.4309,2.6124,2.7805,2.856,2.8891,2.8726,2.7691,2.6396,2.4766,2.2797,0.0,0.0,0.0,0.0,0.0,0.0,0.0,0.0,0.0,0.0,0.0,0.0,0.0,0.0,0.0,0.0,0.0,0.0,0.0,0.0,0.0,0.0,0.0,0.0,0.0,0.0,0.0,0.0,0.0,0.0,0.0,0.0,0.0,0.0,0.0,0.0,0.0,0.0,0.0,0.0,0.0,0.0,0.0,0.0,0.0,0.0,0.0,0.0,0.0,0.0,0.0,0.0,0.0,0.0,0.0,0.0,0.0,0.0,0.0,0.0,0.0,0.0,0.0,0.0,0.0,0.0,0.0,0.0,0.0,0.0,0.0,0.0,0.0,0.0,0.0,0.0,0.0,0.0,0.0,0.0,0.0,0.0,0.0,0.0,0.0,0.0,0.0,0.0,0.0,0.0,0.0,0.0,0.0,0.0,0.0,0.0,0.0,0.0,0.0,0.0,0.0,0.0,2.5828,2.7368,2.8241,2.8958,2.9265,2.8842,2.7773,2.6293,2.4458,2.2677,0.0,0.0,0.0,0.0,0.0,0.0,0.0,0.0,0.0,0.0,0.0,0.0,0.0,0.0,0.0,0.0,0.0,0.0,0.0,0.0,0.0,0.0,0.0,0.0,0.0,0.0,0.0,0.0,0.0,0.0,0.0,0.0,0.0,0.0,0.0,0.0,0.0,0.0,0.0,0.0,0.0,0.0,0.0,0.0,0.0,0.0,0.0,0.0,0.0,0.0,0.0,0.0,0.0,0.0,0.0,0.0,0.0,0.0,0.0,0.0,0.0,0.0,0.0,0.0,0.0,0.0,0.0,0.0,0.0,0.0,0.0,0.0,0.0,0.0,0.0,0.0,0.0,0.0,0.0,0.0,0.0,0.0,0.0,0.0,0.0,0.0,0.0,0.0,0.0,0.0,0.0,0.0,0.0,0.0,0.0,0.0,0.0,0.0,0.0,0.0,0.0,0.0,2.6534,2.8199,2.9207,2.9347,2.9348,2.9159,2.7363,2.5612,2.4303,2.2446,0.0,0.0,0.0,0.0,0.0,0.0,0.0,0.0,0.0,0.0,0.0,0.0,0.0,0.0,0.0,0.0,0.0,0.0,0.0,0.0,0.0,0.0,0.0,0.0,0.0,0.0,0.0,0.0,0.0,0.0,0.0,0.0,0.0,0.0,0.0,0.0,0.0,0.0,0.0,0.0,0.0,0.0,0.0,0.0,0.0,0.0,0.0,0.0,0.0,0.0,0.0,0.0,0.0,0.0,0.0,0.0,0.0,0.0,0.0,0.0,0.0,0.0,0.0,0.0,0.0,0.0,0.0,0.0,0.0,0.0,0.0,0.0,0.0,0.0,0.0,0.0,0.0,0.0,0.0,0.0,0.0,0.0,0.0,0.0,0.0,0.0,0.0,0.0,0.0,0.0,0.0,0.0,0.0,0.0,0.0,0.0,0.0,0.0,0.0,0.0,0.0,0.0,2.6572,2.8108,0.0,2.9332,2.9323,2.8915,2.7491,2.5861,2.4126,0.0,0.0,0.0,0.0,0.0,0.0,0.0,0.0,0.0,0.0,0.0,0.0,0.0,0.0,0.0,0.0,0.0,0.0,0.0,0.0,0.0,0.0,0.0,0.0,0.0,0.0,0.0,0.0,0.0,0.0,0.0,0.0,0.0,0.0,0.0,0.0,0.0,0.0,0.0,0.0,0.0,0.0,0.0,0.0,0.0,0.0,0.0,0.0,0.0,0.0,0.0,0.0,0.0,0.0,0.0,0.0,0.0,0.0,0.0,0.0,0.0,0.0,0.0,0.0,0.0,0.0,0.0,0.0,0.0,0.0,0.0,0.0,0.0,0.0,0.0,0.0,0.0,0.0,0.0,0.0,0.0,0.0,0.0,0.0,0.0,0.0,0.0,0.0,0.0,0.0,0.0,0.0,0.0,0.0,0.0,0.0,0.0,0.0,0.0,0.0,0.0,0.0,2.5094,2.6942,2.8387,0.0,2.9659,2.9631,2.8934,2.7654,2.6029,2.3983,0.0,0.0,0.0,0.0,0.0,0.0,0.0,0.0,0.0,0.0,0.0,0.0,0.0,0.0,0.0,0.0,0.0,0.0,0.0,0.0,0.0,0.0,0.0,0.0,0.0,0.0,0.0,0.0,0.0,0.0,0.0,0.0,0.0,0.0,0.0,0.0,0.0,0.0,0.0,0.0,0.0,0.0,0.0,0.0,0.0,0.0,0.0,0.0,0.0,0.0,0.0,0.0,0.0,0.0,0.0,0.0,0.0,0.0,0.0,0.0,0.0,0.0,0.0,0.0,0.0,0.0,0.0,0.0,0.0,0.0,0.0,0.0,0.0,0.0,0.0,0.0,0.0,0.0,0.0,0.0,0.0,0.0,0.0,0.0,0.0,0.0,0.0,0.0,0.0,0.0,0.0,0.0,0.0,0.0,0.0,0.0,0.0,0.0,0.0,0.0,0.0,0.0,2.5856,2.7751,2.9251,3.0114,3.0398,3.017,2.9252,2.7783,2.6012,0.0,0.0,0.0,0.0,0.0,0.0,0.0,0.0,0.0,0.0,0.0,0.0,0.0,0.0,0.0,0.0,0.0,0.0,0.0,0.0,0.0,0.0,0.0,0.0,0.0,0.0,0.0,0.0,0.0,0.0,0.0,0.0,0.0,0.0,0.0,0.0,0.0,0.0,0.0,0.0,0.0,0.0,0.0,0.0,0.0,0.0,0.0,0.0,0.0,0.0,0.0,0.0,0.0,0.0,0.0,0.0,0.0,0.0,0.0,0.0,0.0,0.0,0.0,0.0,0.0,0.0,0.0,0.0,0.0,0.0,0.0,0.0,0.0,0.0,0.0,0.0,0.0,0.0,0.0,0.0,0.0,0.0,0.0,0.0,0.0,0.0,0.0,0.0,0.0,0.0,0.0,0.0,0.0,0.0,0.0,0.0,0.0,0.0,0.0,0.0,0.0,0.0,0.0,2.6611,2.8184,2.9454,3.0369,3.0714,3.0465,2.948,2.8323,2.6754,2.4582,0.0,0.0,0.0,0.0,0.0,0.0,0.0,0.0,0.0,0.0,0.0,0.0,0.0,0.0,0.0,0.0,0.0,0.0,0.0,0.0,0.0,0.0,0.0,0.0,0.0,0.0,0.0,0.0,0.0,0.0,0.0,0.0,0.0,0.0,0.0,0.0,0.0,0.0,0.0,0.0,0.0,0.0,0.0,0.0,0.0,0.0,0.0,0.0,0.0,0.0,0.0,0.0,0.0,0.0,0.0,0.0,0.0,0.0,0.0,0.0,0.0,0.0,0.0,0.0,0.0,0.0,0.0,0.0,0.0,0.0,0.0,0.0,0.0,0.0,0.0,0.0,0.0,0.0,0.0,0.0,0.0,0.0,0.0,0.0,0.0,0.0,0.0,0.0,0.0,0.0,0.0,0.0,0.0,0.0,0.0,0.0,0.0,0.0,0.0,0.0,0.0,0.0,2.7341,2.8826,3.0024,3.0976,3.1283,3.1053,3.003,2.9235,2.7832,2.5595,0.0,0.0,0.0,0.0,0.0,0.0,0.0,0.0,0.0,0.0,0.0,0.0,0.0,0.0,0.0,0.0,0.0,0.0,0.0,0.0,0.0,0.0,0.0,0.0,0.0,0.0,0.0,0.0,0.0,0.0,0.0,0.0,0.0,0.0,0.0,0.0,0.0,0.0,0.0,0.0,0.0,0.0,0.0,0.0,0.0,0.0,0.0,0.0,0.0,0.0,0.0,0.0,0.0,0.0,0.0,0.0,0.0,0.0,0.0,0.0,0.0,0.0,0.0,0.0,0.0,0.0,0.0,0.0,0.0,0.0,0.0,0.0,0.0,0.0,0.0,0.0,0.0,0.0,0.0,0.0,0.0,0.0,0.0,0.0,0.0,0.0,0.0,0.0,0.0,0.0,0.0,0.0,0.0,0.0,0.0,0.0,0.0,0.0,0.0,0.0,0.0,0.0,2.8115,2.9631,3.0833,3.1838,3.2128,3.1818,3.0788,3.0328,2.9136,2.6833,0.0,0.0,0.0,0.0,0.0,0.0,0.0,0.0,0.0,0.0,0.0,0.0,0.0,0.0,0.0,0.0,0.0,0.0,0.0,0.0,0.0,0.0,0.0,0.0,0.0,0.0,0.0,0.0,0.0,0.0,0.0,0.0,0.0,0.0,0.0,0.0,0.0,0.0,0.0,0.0,0.0,0.0,0.0,0.0,0.0,0.0,0.0,0.0,0.0,0.0,0.0,0.0,0.0,0.0,0.0,0.0,0.0,0.0,0.0,0.0,3.4419,0.0,0.0,0.0,0.0,0.0,0.0,0.0,0.0,0.0,0.0,0.0,0.0,0.0,0.0,0.0,0.0,0.0,0.0,0.0,0.0,0.0,0.0,0.0,0.0,0.0,0.0,0.0,0.0,0.0,0.0,0.0,0.0,0.0,0.0,0.0,0.0,0.0,0.0,0.0,0.0,0.0,2.9,3.0425,3.165,3.2848,3.3101,3.277,3.1698,3.1272,3.0001,2.7619,2.6229,0.0,0.0,0.0,0.0,0.0,0.0,0.0,0.0,0.0,0.0,0.0,0.0,0.0,0.0,0.0,0.0,0.0,0.0,0.0,0.0,0.0,0.0,0.0,0.0,0.0,0.0,0.0,0.0,0.0,0.0,0.0,0.0,0.0,0.0,0.0,0.0,0.0,0.0,0.0,0.0,0.0,0.0,0.0,0.0,0.0,0.0,0.0,0.0,0.0,0.0,0.0,0.0,0.0,0.0,0.0,0.0,0.0,0.0,0.0,0.0,3.6874,0.0,0.0,0.0,0.0,0.0,0.0,0.0,0.0,0.0,0.0,0.0,0.0,0.0,0.0,0.0,0.0,0.0,0.0,0.0,0.0,0.0,0.0,0.0,0.0,0.0,0.0,0.0,0.0,0.0,0.0,0.0,0.0,0.0,0.0,0.0,0.0,0.0,0.0,0.0,0.0,2.9768,3.1136,3.2425,3.3756,3.4002,3.3619,3.2605,3.2324,3.1306,2.9243,2.7883,0.0,0.0,0.0,0.0,0.0,0.0,0.0,0.0,0.0,0.0,0.0,0.0,0.0,0.0,0.0,0.0,0.0,0.0,0.0,0.0,0.0,0.0,0.0,0.0,0.0,0.0,0.0,0.0,0.0,0.0,0.0,0.0,0.0,0.0,0.0,0.0,0.0,0.0,0.0,0.0,0.0,0.0,0.0,0.0,0.0,0.0,0.0,0.0,0.0,0.0,0.0,0.0,0.0,4.521,4.5897,4.6061,4.6351,4.6809,4.7207,4.3859,4.1746,4.0576,3.8949,0.0,0.0,0.0,0.0,0.0,0.0,0.0,0.0,0.0,0.0,0.0,0.0,0.0,0.0,0.0,0.0,0.0,0.0,0.0,0.0,0.0,0.0,0.0,0.0,3.5286,3.4509,3.1669,0.0,0.0,0.0,0.0,0.0,0.0,0.0,0.0,0.0,0.0,0.0,3.0631,3.2006,3.3238,3.4629,3.4843,3.4475,3.3451,3.3393,3.2676,3.0839,2.9693,2.8616,0.0,0.0,0.0,0.0,0.0,0.0,0.0,0.0,0.0,0.0,0.0,0.0,0.0,0.0,0.0,0.0,0.0,0.0,0.0,0.0,0.0,0.0,0.0,0.0,0.0,0.0,0.0,0.0,0.0,0.0,0.0,0.0,3.369,3.4508,0.0,0.0,0.0,0.0,0.0,0.0,0.0,0.0,0.0,0.0,0.0,0.0,0.0,4.3959,4.598,4.6311,4.7073,4.8266,4.8663,4.9161,4.9793,4.9959,5.0092,5.0159,4.9788,0.0,4.4889,4.28,0.0,0.0,0.0,0.0,0.0,0.0,0.0,0.0,0.0,0.0,0.0,0.0,0.0,0.0,0.0,0.0,0.0,0.0,0.0,0.0,0.0,0.0,3.9003,3.8861,3.8832,3.8545,0.0,3.362,3.0348,3.0279,2.8449,0.0,0.0,0.0,0.0,0.0,0.0,0.0,3.2105,3.3066,3.4056,3.5409,3.5816,3.5459,3.4181,3.4178,3.3408,3.1413,3.1133,3.0556,2.9488,2.8054,0.0,0.0,0.0,0.0,0.0,0.0,0.0,0.0,0.0,0.0,0.0,0.0,0.0,0.0,0.0,0.0,0.0,0.0,0.0,0.0,0.0,0.0,0.0,0.0,0.0,0.0,0.0,0.0,0.0,3.5432,3.6835,3.7536,3.7369,3.7002,0.0,0.0,0.0,0.0,0.0,0.0,0.0,0.0,0.0,4.6683,4.7527,4.8637,5.0018,5.0858,5.1564,5.2202,5.2707,5.2875,5.2808,5.2944,5.2774,5.2403,5.2601,5.1585,4.9634,4.7221,4.511,4.3356,0.0,0.0,0.0,0.0,4.0759,4.0826,4.1204,4.1372,4.1271,4.0894,0.0,0.0,0.0,0.0,0.0,0.0,0.0,0.0,0.0,0.0,4.1403,4.1227,4.1111,4.0987,4.066,3.7783,3.4803,0.0,3.1205,2.9587,2.9587,0.0,0.0,0.0,0.0,3.1186,3.301,3.4175,3.5216,3.626,3.6631,3.6225,3.4976,3.4938,3.4248,3.256,3.2118,3.172,3.1349,3.0062,2.8971,0.0,0.0,0.0,0.0,0.0,0.0,0.0,0.0,0.0,0.0,0.0,0.0,0.0,0.0,0.0,0.0,0.0,0.0,0.0,0.0,0.0,0.0,0.0,0.0,0.0,0.0,0.0,0.0,3.8317,3.9733,4.0676,4.0778,4.0575,0.0,0.0,0.0,0.0,0.0,0.0,4.6204,4.8141,4.9671,5.0589,5.1713,5.2631,5.3378,5.45,5.5043,5.5043,5.5655,5.5621,5.5111,5.5247,5.504,5.4494,5.4693,5.4344,5.3489,5.0884,4.8689,4.6956,4.6238,4.5218,4.43,4.4816,4.5054,4.5122,4.5637,4.5705,4.5495,4.4918,4.362,4.2098,4.1248,0.0,0.0,0.0,0.0,4.1144,4.1747,4.2668,4.3447,4.3207,4.2991,4.2704,4.2539,4.0983,3.8902,0.0,3.3899,3.2308,3.2308,0.0,0.0,0.0,0.0,3.3091,3.4366,3.5341,3.6246,3.7084,3.7328,3.7031,3.5967,3.5709,3.5077,3.3837,3.3131,3.2825,3.2951,3.1887,3.0983,3.0419,0.0,0.0,0.0,0.0,0.0,0.0,0.0,0.0,0.0,0.0,0.0,0.0,0.0,0.0,0.0,0.0,0.0,0.0,0.0,0.0,0.0,0.0,0.0,0.0,0.0,0.0,0.0,0.0,0.0,4.35,4.3697,0.0,0.0,0.0,0.0,4.4844,4.7615,4.9603,5.0355,5.1825,5.3329,5.4766,5.4869,5.5279,5.6098,5.6201,5.6201,5.6235,5.637,5.6436,5.6402,5.6603,5.6667,5.6633,5.6794,5.6411,5.5548,5.2766,5.1176,5.0291,4.9539,4.9197,4.9163,4.9197,4.9197,4.9197,4.9231,4.8787,4.8201,4.8167,4.6629,4.4687,4.3928,4.3176,0.0,0.0,4.4068,4.4652,4.5292,4.5351,4.524,4.5098,4.4503,4.3834,4.3098,4.2779,4.1763,0.0,3.6572,3.5001,3.5001,0.0,3.4158,3.4839,3.4768,3.5161,3.6546,3.6689,3.6979,3.7764,3.7972,3.7822,3.7247,3.6567,3.5855,3.5143,3.4431,3.4061,3.4185,3.3494,3.2825,3.2269,3.0903,0.0,0.0,0.0,0.0,0.0,0.0,0.0,0.0,0.0,0.0,0.0,0.0,0.0,0.0,0.0,0.0,0.0,0.0,0.0,0.0,0.0,0.0,0.0,0.0,0.0,0.0,0.0,0.0,4.6928,4.7548,0.0,4.7823,4.8574,4.9258,4.9827,5.179,5.3307,5.4195,5.5199,5.6206,5.7211,5.7246,5.7626,5.8422,5.8422,5.8422,5.8422,5.8489,5.8245,5.7725,5.7825,5.7645,5.7321,5.7384,5.7273,5.7017,5.5536,5.4035,5.271,5.2433,5.2018,5.1568,5.1568,5.1568,5.1568,5.1568,5.1395,5.098,5.0011,4.9089,4.8107,4.6756,4.6124,4.5843,4.6035,4.6225,4.6442,4.6658,4.6294,4.583,4.5807,4.5145,4.4485,4.4215,4.363,4.2885,4.186,3.9574,3.7854,3.7854,3.6788,3.6022,3.6252,3.6417,3.6718,3.7209,3.7667,3.8028,3.8311,3.8455,3.8307,3.7671,3.7032,3.6364,3.5643,3.4997,3.4643,3.4691,3.4532,3.4107,3.3425,3.2563,3.1262,0.0,0.0,0.0,0.0,0.0,0.0,0.0,0.0,0.0,0.0,0.0,0.0,0.0,0.0,0.0,0.0,0.0,0.0,0.0,0.0,0.0,0.0,0.0,0.0,0.0,0.0,4.8325,5.0133,5.1037,5.1593,5.1836,5.2566,5.3291,5.3868,5.5297,5.6474,5.7091,5.7859,5.8456,5.8948,5.8948,5.9227,5.9751,5.9751,5.9751,5.9751,5.9816,5.9569,5.9045,5.9109,5.8959,5.8593,5.8593,5.8514,5.829,5.7761,5.6691,5.5319,5.4675,5.4091,5.3637,5.3637,5.3637,5.3602,5.3265,5.3195,5.2956,5.1638,5.0961,5.0465,4.9346,4.8605,4.8142,4.8305,4.8174,4.8036,4.822,4.7505,4.6715,4.6659,4.5795,4.4995,4.494,4.445,4.3994,4.3966,4.1937,4.0181,3.9921,3.8949,3.8148,3.7882,3.8038,3.8181,3.8181,3.8548,3.8816,3.8903,3.8985,3.8869,3.8487,3.7871,3.7135,3.6431,3.5823,3.5338,3.5071,3.5188,3.5023,3.4554,3.3681,3.2677,3.1449,0.0,0.0,0.0,0.0,0.0,0.0,0.0,0.0,0.0,0.0,0.0,0.0,0.0,0.0,0.0,0.0,0.0,0.0,0.0,0.0,0.0,0.0,0.0,4.6502,4.8422,5.0743,5.3064,5.402,5.4793,5.5525,5.6334,5.6761,5.6761,5.8101,5.8944,5.8944,5.9717,6.0139,6.0139,6.0139,6.0139,6.0139,6.0139,6.0139,6.0139,6.0262,6.0325,6.0325,6.0547,6.0609,6.0609,6.0609,6.018,5.9471,5.9436,5.9011,5.8196,5.6282,5.5537,5.5537,5.5502,5.5502,5.5396,5.4449,5.4174,5.4005,5.309,5.2271,5.1679,5.1644,5.0565,4.9485,5.0189,4.9875,4.9465,5.0055,4.9056,4.7885,4.7748,4.652,4.5389,4.523,4.5203,4.5177,4.5042,4.3498,4.1984,4.1216,4.0949,4.0574,3.9863,3.9633,0.0,3.9528,3.9329,3.9302,3.9501,3.9528,3.958,3.9703,3.9033,3.833,3.7593,3.6999,3.6306,3.5508,3.5622,3.569,3.569,3.4398,3.34,3.2735,0.0,0.0,0.0,0.0,0.0,0.0,0.0,0.0,0.0,0.0,0.0,0.0,0.0,0.0,0.0,0.0,0.0,0.0,0.0,0.0,0.0,0.0,5.0461,5.0014,5.1927,5.4048,5.5815,5.6734,5.73,5.7512,5.8219,5.8648,5.8648,5.9567,6.0101,6.0101,6.0313,6.0516,6.0605,6.0481,6.0516,6.0635,6.0516,6.0454,6.0454,6.0605,6.0661,6.0661,6.0884,6.1004,6.1123,6.1123,6.1039,6.097,6.0397,6.0003,5.9588,5.7504,5.667,5.6599,5.6034,5.5793,5.5722,5.5482,5.5383,5.5277,5.4472,5.3697,5.2901,5.2255,5.1357,5.0592,5.055,5.039,5.0258,5.0335,4.9194,4.8047,4.7993,4.6812,4.5675,4.5624,4.5658,4.5598,4.5607,4.507,4.4284,4.3284,4.2072,4.1188,4.0951,4.0349,0.0,3.9781,3.9729,3.9729,3.9755,3.9781,3.9833,3.9986,3.9411,3.8952,3.8773,3.8156,3.7716,3.7512,3.7535,3.757,3.7627,3.6747,3.6251,0.0,0.0,0.0,0.0,0.0,0.0,0.0,0.0,0.0,0.0,0.0,0.0,0.0,0.0,0.0,0.0,0.0,0.0,0.0,0.0,0.0,0.0,5.1706,5.3825,5.4518,5.5499,5.672,5.8289,5.8895,5.9287,5.9672,6.0071,6.0463,6.0784,6.1218,6.161,6.193,6.1966,6.1848,6.1581,6.1527,6.1385,6.1117,6.1064,6.1004,6.1004,6.1123,6.1117,6.1146,6.127,6.1357,6.1415,6.1415,6.1473,6.1587,6.1119,6.0904,0.0,0.0,0.0,0.0,0.0,5.655,5.6265,5.6209,5.6182,5.6083,5.5545,5.463,5.3548,5.2952,5.2015,5.1141,5.0946,5.0892,5.0892,5.0784,4.96,4.8443,4.8443,4.7251,4.6105,4.6055,4.6005,4.5955,4.5879,4.5778,0.0,4.4811,4.3237,4.1903,4.1546,4.0789,4.0238,4.0163,4.0138,4.0138,4.0138,4.0138,4.0188,4.0263,3.9954,0.0,0.0,0.0,3.878,3.8584,3.8584,0.0,0.0,0.0,3.8671,3.9093,0.0,0.0,0.0,3.4651,3.4665,0.0,0.0,0.0,0.0,0.0,0.0,0.0,0.0,0.0,0.0,0.0,0.0,0.0,0.0,0.0,0.0,5.46,5.6917,5.9114,5.8898,5.9015,6.0364,6.0516,6.0832,6.1551,6.1695,6.2047,6.2666,6.2839,6.3199,6.3919,0.0,0.0,0.0,0.0,6.2407,6.168,6.1644,6.1651,6.1651,6.1644,6.168,6.168,6.1672,6.1672,6.1672,6.1672,6.1672,6.1672,6.1672,6.1672,6.1528,5.9932,5.9257,5.9078,5.8287,5.7531,5.692,5.6716,0.0,0.0,5.6364,5.5177,5.3869,5.3735,5.2644,5.1402,5.1376,5.135,5.135,5.1324,5.012,4.8891,4.8891,4.7723,4.6566,4.6471,4.635,4.6228,4.607,4.598,4.5914,4.5889,4.4309,4.2799,4.1943,4.1165,4.0686,4.0583,4.0558,4.0558,4.0558,0.0,0.0,4.0686,4.0686,4.047,3.9922,4.0042,3.9962,3.9525,3.9525,3.9861,4.0523,4.0545,4.0882,4.1625,4.1625,4.1625,4.1555,3.8491,3.7469,0.0,0.0,0.0,0.0,0.0,0.0,0.0,0.0,0.0,0.0,0.0,0.0,0.0,0.0,0.0,5.5278,5.7607,5.9547,6.0674,6.1256,6.1507,6.1392,6.1371,6.1443,6.1587,6.2277,6.2766,6.2911,6.3667,6.4122,6.4303,6.4303,6.3997,6.3275,6.3164,6.2774,6.2087,6.2005,6.1914,6.1914,0.0,0.0,6.2114,6.2222,6.2248,6.2248,6.2248,6.2248,6.2248,6.2248,6.2248,6.2112,6.071,5.9761,5.9078,5.8287,5.7891,5.7675,5.7002,5.6786,5.676,5.6707,5.563,5.4374,5.4323,5.3211,0.0,5.1808,5.1708,5.1607,5.1479,5.0171,4.8891,4.8891,4.7723,4.659,4.6566,4.6542,4.6518,4.6495,4.6471,4.6423,4.6301,4.5211,4.4069,4.3256,4.2493,4.1775,4.1069,4.0976,4.0976,4.0976,4.0976,4.1265,4.1973,4.2042,4.2274,4.2749,4.2832,4.281,4.2718,4.2718,4.2847,4.315,4.315,4.3335,4.3716,4.3716,4.3716,4.3681,4.202,4.1348,0.0,0.0,0.0,0.0,0.0,0.0,0.0,0.0,0.0,0.0,0.0,4.9375,0.0,0.0,5.6099,5.809,5.9737,6.1066,6.1908,6.2347,6.2449,6.206,6.2367,6.2612,6.2612,6.3392,6.4065,6.4464,6.4947,6.5375,6.5775,6.5812,6.5476,6.4722,6.4239,6.363,6.291,6.243,6.2185,6.2185,6.2265,6.2291,6.2291,6.2381,6.2407,6.2407,6.2407,6.2407,6.2407,6.2407,6.2407,6.2308,6.1642,6.0919,6.0086,5.9315,5.8746,5.8275,5.7478,5.7188,5.7163,5.7036,5.5938,5.4675,5.4489,5.336,5.2102,5.2029,5.1956,5.1907,5.1833,5.0865,4.9781,4.9388,4.8389,4.7426,4.7,4.6824,4.6778,4.6708,4.6637,4.659,4.6518,4.6033,4.5313,4.4349,4.3557,4.2881,4.2415,4.2356,4.2356,4.2356,4.2356,4.2519,4.2973,4.3008,4.3171,4.3626,4.3733,4.378,4.3851,4.3921,4.419,4.4671,4.4706,4.4952,4.5445,4.5445,4.5445,4.5421,4.48,4.4109,0.0,0.0,0.0,0.0,0.0,0.0,0.0,0.0,4.9049,4.9525,5.1364,5.335,5.5001,5.6706,5.8442,6.0367,6.1397,6.2145,6.2806,6.288,6.278,6.2578,6.3231,6.368,6.368,6.4573,6.544,6.6071,6.6281,6.671,6.7341,6.7378,6.7012,6.6198,6.555,6.4819,6.4041,6.321,6.2808,6.2808,6.2625,6.2552,6.2552,6.2552,6.2552,6.2552,6.2552,6.2552,6.2552,6.2552,6.2552,6.2552,6.2552,6.2077,6.1272,6.0332,5.9589,5.8896,5.7911,5.7583,5.7559,5.7157,5.6103,5.4882,5.4447,5.3363,5.2246,5.2246,5.2222,5.2174,5.2174,5.1538,5.07,4.9909,4.9081,4.8268,4.7425,4.7133,4.7043,4.6916,4.6824,4.6754,4.6754,4.6754,4.633,4.5185,4.4471,4.3991,4.3733,4.3733,4.3733,4.3733,4.3733,4.3803,4.3978,4.4082,4.4235,4.4272,4.4366,4.4483,4.4576,4.4668,4.5055,4.5751,4.5751,4.6035,4.6684,4.6684,4.6684,4.6684,4.6684,4.5987,3.8774,4.1298,4.4378,4.5338,4.7462,4.9491,0.0,0.0,5.2444,5.4658,5.5934,5.7079,5.8718,6.0328,6.1509,6.1768,6.2483,6.3073,6.3147,6.3184,6.3123,6.3099,6.3603,6.3965,6.3965,6.5489,6.6511,6.6622,6.7388,6.7882,6.7993,6.7993,6.7624,6.6812,6.6701,6.6296,6.5484,6.4611,6.4168,6.4168,6.3468,6.3099,6.3099,6.3099,6.3099,6.3099,6.3099,6.3099,6.3099,6.3099,6.3099,6.3099,6.3099,6.262,6.1761,6.0456,5.9917,5.9625,5.813,5.7583,5.7473,5.6733,5.5895,5.502,5.4282,5.3445,5.2717,5.2717,5.2595,5.2434,5.2434,5.1656,5.07,4.9909,4.9081,4.829,4.7477,4.7276,4.7276,4.7254,4.7254,4.7232,4.7232,4.7232,4.6789,4.5622,4.5375,4.5057,4.4291,4.4221,4.4221,4.4221,4.4221,4.4504,4.5246,4.5882,4.6271,4.6295,4.6295,4.6283,4.6342,4.6342,4.6448,4.6671,4.6671,4.6753,4.6975,4.6975,4.6975,4.6975,4.6975,4.6753,4.201,4.4744,4.7441,4.8753,5.0878,5.2799,5.3131,5.4572,5.6182,5.7244,5.8566,5.9913,6.1069,6.1915,6.2553,0.0,6.3386,6.361,6.361,6.361,6.361,6.361,6.4248,6.4766,6.4992,6.6086,6.7022,6.7502,6.786,6.8095,6.8095,6.8095,6.7948,6.759,6.7146,6.674,6.6408,6.5558,6.4893,6.4413,6.4081,6.3675,6.3194,6.3194,6.3194,6.3194,6.3194,6.3194,6.3194,6.3194,6.2912,6.2506,6.2506,6.1989,6.1228,6.0672,6.016,5.9585,5.8377,5.795,5.7854,5.7384,5.635,5.5231,5.4811,5.3804,5.2806,5.2806,5.2717,5.2686,5.2686,5.2327,5.1824,5.099,5.0162,4.93,4.8403,4.7796,4.7385,4.732,4.732,4.732,4.732,4.732,4.7146,4.6624,4.6453,4.6209,4.5693,4.5657,4.5657,4.5657,4.5657,4.5763,4.6094,4.6838,4.7298,4.7298,4.7795,4.814,4.8176,4.782,4.7663,4.7778,4.7312,4.712,4.7165,4.7165,4.7165,4.7165,4.7165,4.712,4.528,4.7801,4.9897,5.1528,5.3938,5.5903,5.5903,5.746,5.898,5.9271,6.021,6.1204,6.2071,6.247,6.2907,6.3446,6.3745,6.3894,6.3894,6.3894,6.3894,6.3915,6.4476,6.5016,6.5528,6.6481,6.7333,6.7926,6.8185,6.8334,6.8334,6.8334,6.8334,6.8334,6.7741,6.7444,6.7444,6.6629,6.5925,6.5295,6.485,6.4331,6.3739,6.3493,6.3382,6.3382,6.3382,6.3382,6.3405,6.316,6.2715,6.216,6.1937,6.1382,6.0641,6.0663,6.0204,5.9464,5.8563,5.826,5.8201,5.7762,5.6873,5.5786,5.5221,5.4246,5.3273,5.3032,5.2915,5.2893,5.285,5.2828,5.2623,5.1784,5.0954,5.0068,4.9168,4.8285,4.76,4.7515,4.7515,4.7515,4.7515,4.7515,4.7493,4.7436,4.732,4.712,4.6847,4.6801,4.6801,4.6801,4.6979,4.7121,4.7121,4.7868,4.833,4.833,4.896,4.9377,4.94,4.8934,4.8631,4.8506,4.7931,4.7535,4.732,4.732,4.732,4.732,4.732,4.732,4.8189,5.0318,5.2016,5.3605,5.6482,5.8872,5.8872,5.9582,6.0479,6.1243,6.0852,6.0553,6.1375,6.216,6.272,6.272,6.3371,6.3894,6.3894,6.3894,6.3894,6.3878,6.3915,6.4267,0.0,6.6657,6.7591,6.7628,6.8413,6.8898,6.8898,6.8898,6.8898,6.8898,6.8861,6.8861,6.8861,6.8002,6.7554,6.7479,6.5911,6.5164,6.5089,6.4267,6.3873,6.3873,6.3873,6.3894,6.3819,6.3035,6.2699,6.2624,6.184,6.1019,6.0309,6.0309,6.0003,5.9464,5.8652,5.8393,5.8282,5.7448,5.719,5.682,5.5196,5.47,5.4437,5.356,5.3235,5.3167,5.3002,5.2893,5.2623,5.1784,5.0982,5.0195,4.9357,4.8575,4.7992,4.7972,4.7972,4.7972,4.7972,4.7972,4.7951,4.7793,4.7793,4.7648,4.7341,4.7298,4.7298,4.7298,4.7981,4.8448,4.8448,4.9167,4.9634,4.9634,4.967,4.967,4.9693,4.9693,4.9297,4.8542,4.847,4.8075,4.732,4.732,4.732,4.732,4.732,4.732,5.011,5.2427,5.4483,5.6127,5.8219,5.9694,5.9154,6.0068,6.1022,6.0821,6.0541,6.0656,6.1539,6.1464,6.1651,6.2776,6.3188,6.3563,6.4108,6.4183,6.4183,6.4183,6.4183,0.0,0.0,0.0,0.0,6.7539,6.7875,6.8286,6.8884,6.8921,6.8921,6.8921,6.8921,6.8921,6.8921,6.8622,6.8174,6.7576,6.597,6.4887,6.4326,6.4006,6.3894,6.3894,6.3894,6.3894,6.3841,6.3056,6.2384,6.1823,6.0964,6.0142,5.9452,5.9452,5.9353,5.9115,5.8746,5.8609,5.8513,5.8104,5.7654,5.71,5.6546,5.5586,5.4626,5.4326,5.3806,5.338,5.3339,5.3297,5.3162,5.2805,5.2061,5.1229,5.0305,4.9439,4.8648,4.8101,4.7992,4.7992,4.7992,4.7992,4.7992,4.7951,4.7809,4.7663,4.7593,4.7472,4.7645,4.8185,4.8407,4.8722,4.9261,5.0016,5.0484,5.0484,5.1081,5.144,5.1568,5.1095,5.075,5.0584,4.951,4.882,4.8566,4.8021,4.7767,4.7767,4.7767,4.7767,5.2069,5.4303,5.629,5.7678,5.9253,6.0378,5.9815,6.0265,6.0678,6.0229,5.9628,5.9421,6.0003,6.0172,6.0698,6.2109,6.2824,6.3463,6.4291,6.4403,6.4403,6.4403,6.4403,6.4423,0.0,0.0,0.0,6.6882,6.7257,6.7782,6.8644,6.8682,6.8831,6.9131,6.9131,6.9131,6.9131,6.9131,6.8569,6.7407,6.6357,6.527,6.4145,6.4145,6.4145,6.4145,6.4145,6.4145,6.4108,6.3283,6.2458,6.1653,6.0791,5.9965,5.9197,5.9215,5.9196,5.912,5.8902,5.8821,5.8801,5.8656,5.8238,5.7751,5.7418,5.636,5.5192,5.4892,5.4206,5.3558,5.3501,5.3481,5.3461,5.34,5.2729,5.1932,5.1357,5.0505,4.9731,4.9201,4.8832,4.861,4.861,4.839,4.817,4.817,4.8072,4.7951,4.7845,4.7726,4.7989,4.8786,4.9046,4.9509,5.0326,5.1122,5.1568,5.1568,5.2167,5.2526,5.2595,5.214,5.1828,5.1602,5.0581,4.9925,4.9633,4.8831,4.8429,4.8429,4.8138,4.7992,5.4123,5.5956,5.7352,5.8237,5.9691,6.0861,6.0785,6.0144,5.9578,5.9465,5.8127,5.6995,0.0,0.0,5.9729,6.0748,6.2219,6.3577,6.4521,6.4672,6.4672,0.0,0.0,0.0,0.0,0.0,0.0,6.5766,0.0,6.7388,6.8181,6.8256,6.8633,6.9446,6.9521,6.9521,6.9484,6.9484,6.8633,6.7049,6.7049,6.6181,6.4596,6.4596,6.4596,6.4596,6.4596,6.4596,6.4521,6.3691,6.286,6.2011,6.1163,6.0332,5.9598,5.951,5.9512,5.9438,5.912,5.9024,5.9004,5.9004,5.8962,5.875,5.7931,5.7052,5.6134,5.5235,5.44,5.3676,5.3541,5.3521,5.3521,5.3521,5.291,5.2355,5.2318,5.169,5.1136,5.1118,5.0395,4.9766,4.9766,4.9084,4.8605,4.8642,4.8661,4.8513,4.8092,4.8068,4.8377,4.9179,4.9997,5.0778,5.1602,5.2368,5.2806,5.2806,5.2806,5.2828,5.2828,5.2828,5.2463,5.1697,5.166,5.1244,5.0477,4.9654,4.9289,4.9273,4.8506,4.8141,5.5805,5.7239,5.8257,5.9087,6.0106,6.0559,5.9314,5.9351,5.9087,5.7239,5.5977,5.5449,5.609,0.0,0.0,6.0446,6.1729,0.0,6.52,6.5502,0.0,6.6389,0.0,6.6484,6.6503,6.656,0.0,0.0,6.6107,6.6501,6.7351,6.7426,6.7501,6.7728,6.8332,6.8332,6.7728,6.7728,6.72,6.6124,6.6124,6.5615,6.4596,6.4596,6.4596,6.4596,6.4596,6.4596,6.4483,6.3011,6.2295,6.1955,6.0483,5.9804,5.9598,5.9581,5.9581,5.9563,5.9492,5.9328,5.9139,5.9024,5.8984,5.8908,5.8721,5.7656,5.648,5.6218,5.51,5.3981,5.3963,5.3944,5.3926,5.3814,5.3589,5.3216,5.2509,5.2173,5.1838,5.121,5.0895,5.0729,5.0729,5.0064,4.9732,5.0359,4.9935,4.9289,4.855,4.8839,4.9438,5.0224,5.0884,5.1639,5.2441,5.2696,5.2828,5.2937,5.3023,5.3109,5.3172,5.3277,5.3166,5.2863,5.2275,5.1891,5.1671,5.0842,5.0534,5.0613,5.0392,5.0318,5.7316,5.8446,5.9197,5.9635,5.9895,5.9685,5.8327,5.7781,5.697,5.4821,5.3974,5.3671,5.3823,5.4761,5.6343,0.0,0.0,0.0,6.4664,6.5611,6.6235,0.0,6.7144,0.0,6.7426,6.7445,6.7235,0.0,6.6274,6.6163,6.6655,6.6655,6.6844,6.7222,6.7675,6.7675,6.7222,6.726,6.6862,6.603,6.6029,6.5612,6.4799,6.4799,6.4763,6.4726,0.0,6.4726,6.4613,6.329,6.2534,6.2118,6.0794,6.0038,5.9736,5.9685,5.9705,5.9668,5.9616,5.951,5.9365,5.9272,5.9159,5.912,5.9119,5.7902,5.6594,5.6594,5.5398,5.4109,5.4109,5.4109,5.4091,5.4018,5.3963,5.3796,5.3275,5.3107,5.2828,5.1974,5.1825,5.1695,5.1287,5.0861,5.0749,5.1232,5.0934,5.0525,5.0042,5.012,5.052,5.131,5.1724,5.2229,5.3036,5.3109,5.313,5.3214,5.3277,5.3339,5.338,5.3461,5.3461,5.338,5.2957,5.2699,5.2699,5.1925,5.1558,5.1616,5.1247,5.1118,5.8644,5.945,5.9991,5.9877,5.9368,5.86,5.7422,5.5964,5.4354,5.2499,5.2016,5.175,5.1144,5.3034,5.5318,5.718,0.0,6.204,6.3813,6.5503,6.6607,6.6721,6.7483,6.8015,6.8015,6.8015,6.7977,6.7863,6.6909,6.6251,6.6137,6.6023,6.6365,6.7237,6.7161,6.7161,6.7275,6.7212,6.683,6.6146,6.6214,6.5796,6.5044,6.5044,6.501,6.4924,6.4924,6.4924,6.4886,6.4013,6.3179,6.2345,6.1473,6.0655,5.9918,5.9874,5.9841,5.9824,5.9702,5.9668,5.965,5.9528,5.9438,5.9309,5.9272,5.8128,5.6818,5.6687,5.5546,5.4312,5.4182,5.4145,5.4145,5.4145,5.4127,5.4127,5.4127,5.4109,5.3849,5.3049,5.2882,5.2641,5.1898,5.1729,5.1707,5.1819,5.1852,5.1921,5.1996,5.162,5.1563,5.2264,5.2412,5.2762,5.3444,5.3481,5.3501,5.3538,5.3538,5.3521,5.3521,5.3521,5.3521,5.3521,5.3521,5.3541,5.3561,5.2838,5.2525,5.2544,5.1804,5.149,5.9635,5.9992,5.9916,5.9284,5.898,5.831,5.6036,5.478,5.3411,5.1001,4.9974,4.967,5.0203,5.1762,5.402,5.7101,5.9741,6.223,6.4574,6.6379,6.7711,0.0,6.9233,6.9766,6.9766,6.9766,0.0,0.0,6.7922,6.7106,6.6366,6.5737,6.572,6.6556,6.591,6.591,6.6577,6.5927,6.5525,6.5373,6.5389,6.5313,6.5182,6.5182,6.5182,6.5166,6.5166,0.0,6.509,6.4215,6.3324,6.2487,6.1688,6.0814,6.0053,6.0038,6.006,6.006,5.9982,5.995,5.9864,5.9668,5.9581,5.9563,5.9545,5.8849,5.7928,5.7163,5.6243,5.5341,5.4542,5.4357,5.4357,5.4357,5.4306,5.429,5.429,5.4182,5.4054,5.3886,5.3849,5.3811,5.3644,5.3102,5.2895,5.355,5.3082,5.2913,5.3586,5.2938,5.2475,5.2531,5.3048,5.3395,5.3501,5.3481,5.3558,5.3674,5.3674,5.3676,5.3737,5.3737,5.3737,5.3737,5.3737,5.3775,5.3833,5.3684,5.3684,5.3776,5.3627,5.359,5.987,6.0167,6.0006,5.9168,5.832,5.7052,5.4444,5.2882,5.1231,4.868,4.8186,4.8224,4.8186,4.9923,5.2158,5.4634,5.7596,6.0461,6.3024,6.5199,0.0,6.8371,6.9289,6.9977,0.0,7.0473,7.0282,6.9862,6.9059,6.8139,6.7119,6.67,6.6455,6.6417,6.6036,6.5808,6.577,6.5438,6.5226,6.5226,6.5274,6.5274,6.5226,6.5226,6.5248,6.5215,6.5215,6.5215,6.5139,6.4264,6.3638,6.3144,6.1888,6.1126,6.0708,6.0289,6.0099,6.0084,6.0053,6.0038,6.0022,5.9896,5.9803,5.9668,5.9616,5.905,5.822,5.7301,5.6455,5.5664,5.4785,5.4559,5.4559,5.4559,5.4526,5.4531,5.4531,5.446,5.4388,5.4388,5.4388,5.4388,5.4388,5.4105,5.3954,5.4351,5.4067,5.3992,5.4368,5.3982,5.3582,5.3385,5.3647,5.3833,5.3813,5.3813,5.3832,5.3907,5.3926,5.3907,5.3944,5.3963,5.3963,5.3963,5.3963,5.3981,5.3981,5.3981,5.4055,5.4109,5.4109,5.4109,5.9754,6.0118,6.0099,5.9068,5.7734,5.5925,5.3124,5.1202,4.932,4.6946,4.682,4.7011,4.6553,4.8228,5.0324,5.2195,5.525,5.8297,6.0889,6.357,6.5844,0.0,6.8675,0.0,7.0363,7.0608,0.0,7.0723,7.0056,6.9146,6.7883,6.779,6.7485,6.6799,6.6799,6.6472,6.5862,6.5718,6.5635,6.5635,6.5505,6.5429,6.5368,6.5368,6.5337,6.5274,6.5274,6.5274,6.5236,6.4549,6.4168,6.3863,6.2567,6.1804,6.1423,6.0737,6.0355,6.0188,6.0159,6.0144,6.0144,6.0099,5.9998,5.9857,5.9753,5.9265,5.8568,5.7683,5.6835,5.601,5.5179,5.484,5.4689,5.4689,5.4689,5.4689,5.4689,5.4689,5.4689,5.4689,5.4689,5.4689,5.4689,5.4689,5.4689,5.4689,5.4689,5.4764,5.4953,5.4888,5.4794,5.4738,5.4387,5.4127,5.4109,5.4109,5.4109,5.4109,5.4109,5.4109,5.4109,5.4109,5.4127,5.4163,5.4163,5.418,5.4233,5.4233,5.4233,5.4233,5.4233,5.4233,5.9267,5.9894,6.0214,5.8604,5.7493,5.5921,5.2614,5.0544,4.8782,4.7019,4.6099,4.5831,4.6559,4.7517,4.9011,5.1387,5.3993,5.6599,5.9179,6.2399,6.4827,6.5709,0.0,0.0,6.9519,7.0248,0.0,7.0723,7.0631,6.9864,6.8224,6.8148,6.811,6.8033,6.8033,6.7995,6.7918,6.7151,6.6768,6.673,6.5963,6.558,6.5566,6.5566,6.5566,6.5566,6.5566,0.0,0.0,6.5489,6.5029,6.4339,6.4186,6.319,6.1849,6.1772,6.1236,6.052,6.0398,6.0356,6.0328,6.0144,6.0084,6.0053,6.0053,5.9969,5.9662,5.871,5.7835,5.696,5.601,5.5239,5.4689,5.4689,5.4689,5.4689,5.4689,5.4689,5.4689,5.4689,5.4689,5.4689,5.4689,5.4689,5.4689,5.4689,5.4689,5.4953,5.5692,5.5788,5.6052,5.6736,5.531,5.4218,5.4109,5.4109,5.4109,5.4109,5.4109,5.4109,5.4109,5.4109,5.418,5.4375,5.4392,5.4476,5.4641,5.4641,5.4641,5.4641,5.4641,5.4641,5.8247,5.8796,5.8821,5.7632,5.6278,5.4553,5.1689,4.9695,4.8008,4.6282,4.563,4.5515,4.586,4.6627,4.7882,4.9876,5.2329,5.5075,5.8218,6.0674,6.3079,6.5499,6.7088,0.0,0.0,0.0,7.0829,7.0871,7.0912,7.0631,6.999,6.9788,6.9457,6.8944,6.8905,6.8675,6.8191,6.7885,6.7678,6.7678,6.6797,6.6375,6.6375,6.5824,6.5594,6.5594,6.5594,0.0,0.0,6.5594,6.5416,6.5071,6.4573,6.3997,6.3269,6.2272,6.1658,6.1313,6.0711,6.0506,6.0493,6.0425,6.0412,6.0384,6.0159,6.0068,5.9885,5.9019,5.8532,5.7932,5.6573,5.5586,5.4941,5.4941,5.4941,5.4941,5.4941,5.4941,5.4941,5.4941,5.4941,5.4941,5.4941,5.4941,5.5131,5.5624,5.5738,5.5989,5.6762,5.6829,5.6916,5.717,5.6455,5.5977,5.5905,5.5905,5.5905,5.5905,5.5905,5.5905,5.5905,5.5905,5.5714,5.5312,5.5275,5.5098,5.4689,5.4689,5.4689,5.4689,5.4689,5.4689,5.6889,5.7565,5.7577,5.6683,5.5224,5.3305,5.0745,4.8874,4.7271,4.5783,4.5485,4.5494,4.5494,4.5993,4.6944,4.8673,5.0863,5.3458,5.6681,5.9038,6.1485,0.0,0.0,6.7461,0.0,7.0349,7.0979,7.103,7.1068,7.1106,7.1106,7.0925,7.0546,6.9917,6.9879,6.9624,6.9047,6.8817,6.8702,6.8702,6.7818,6.728,6.7011,6.6396,6.596,6.573,6.573,6.573,0.0,6.573,6.573,6.5653,6.5077,6.4744,6.436,6.29,6.2208,6.1862,6.0968,6.0648,6.0635,6.0597,6.0585,6.0546,6.0342,6.0203,6.0059,5.9488,5.9153,5.8576,5.713,5.6293,5.5836,5.5836,5.5836,5.5836,5.5836,5.5646,5.5493,5.5493,5.5493,5.5493,5.5493,5.5684,5.6064,5.6673,5.6749,5.7039,5.7817,5.7871,5.7923,5.8104,5.804,5.7732,5.7125,5.7088,5.7088,5.7088,5.7088,5.7088,5.7088,5.7159,5.6911,5.6339,5.6355,5.6084,5.5548,5.5548,5.5548,5.5548,5.5321,5.5056,5.5154,5.6313,5.6791,5.5934,5.4434,5.2549,5.001,4.8114,4.6686,4.5847,4.5695,4.568,4.568,4.568,4.6259,4.8042,4.9732,5.1738,5.4275,5.7554,6.0331,0.0,0.0,6.6696,6.8432,7.0129,7.1093,7.1093,7.1106,0.0,7.1106,7.1093,7.1093,7.1093,7.1093,7.1093,7.1055,7.0295,6.9883,6.9883,6.8984,6.8147,6.7298,6.7298,6.6823,6.6001,0.0,0.0,0.0,6.6001,6.6001,6.6001,6.6001,6.5511,6.4701,6.3803,6.2926,6.2067,6.1135,6.0781,6.0757,6.0623,6.0585,6.0585,6.061,6.048,6.0408,6.037,5.966,5.869,5.7815,5.7587,5.7587,5.7587,5.7587,5.7587,5.7587,5.694,5.6369,5.6369,5.6369,5.6369,5.6369,5.7054,5.7587,5.7587,5.7587,5.7891,5.8767,5.8881,5.9185,5.9969,6.0045,5.9276,5.7272,5.7088,5.7088,5.7088,5.7088,5.7088,5.7088,5.7224,5.7321,5.7384,5.7438,5.7513,5.7587,5.7587,5.7587,5.7549,5.6749,5.5912,5.2579,5.3408,5.3572,5.3302,5.2377,5.1066,4.9101,4.7336,4.6004,4.5742,4.5248,4.4986,4.5611,4.5688,4.6267,4.8004,4.9702,5.1892,5.5046,0.0,0.0,6.28,6.5847,6.8432,0.0,0.0,7.1178,7.1178,7.1213,7.1236,7.1236,7.1236,7.119,7.1106,7.1106,7.1106,7.1106,7.0836,7.072,7.072,6.9883,6.9034,6.8173,6.7568,6.6823,0.0,0.0,6.6001,6.6001,6.6001,6.6001,6.6001,6.6001,6.5859,6.5511,6.4701,6.3852,6.2954,6.2084,6.1406,6.0933,6.09,6.0877,6.0877,6.0831,6.066,6.0558,6.0558,5.988,5.9113,5.8846,5.8361,5.794,5.794,5.794,5.794,5.794,5.7749,5.7558,5.7558,5.7558,5.7558,5.7558,5.7787,5.8132,5.8693,5.8769,5.9049,5.9817,5.9917,5.9951,6.0099,6.0099,5.9825,5.9185,5.9147,5.9147,5.9147,5.9147,5.9147,5.9147,5.9178,5.8981,5.8426,5.8456,5.8181,5.7587,5.7587,5.7587,5.7587,5.6749,5.6255,4.9761,5.088,5.1112,5.1112,5.0494,4.9414,4.7717,4.6221,4.5233,4.5241,4.4839,4.4737,4.5602,4.6027,4.6723,4.8106,5.003,5.2301,5.5091,0.0,0.0,6.4211,0.0,0.0,0.0,7.1087,7.1302,7.1302,7.1334,7.1394,7.1394,7.1394,7.1324,7.1247,7.1201,7.1178,7.1178,7.1178,7.119,7.1213,7.0711,6.9833,6.8696,6.8133,6.7244,0.0,6.6091,6.608,0.0,6.608,6.608,6.608,6.608,6.608,6.5964,6.5153,6.4535,6.3879,6.266,6.1916,6.1443,6.1113,6.0987,6.0987,6.0955,6.0819,6.0623,6.0623,6.0201,5.9779,5.9779,5.9396,5.9025,5.9025,5.9025,5.9025,5.9025,5.8795,5.8565,5.8565,5.8565,5.8565,5.8565,5.8833,5.9217,5.9703,5.9779,5.9946,6.0428,6.0491,6.0425,6.0275,6.0275,6.0275,6.0275,6.0159,6.0099,6.0099,6.0114,6.0144,6.0144,6.0203,6.0003,5.9507,5.9536,5.9283,5.871,5.871,5.8557,5.8214,5.7731,5.7158,0.0,4.8536,4.923,4.9316,4.8737,4.7695,4.5997,4.4947,0.0,4.4474,4.4491,4.4809,4.5745,4.6597,4.7488,4.8372,5.0627,5.2949,5.4723,5.8023,0.0,0.0,6.8005,0.0,7.0215,7.1029,7.1494,7.1494,7.1494,7.1494,7.1494,7.1494,7.1494,7.1494,7.1394,7.1302,7.1302,7.1302,7.1334,7.1425,7.1425,7.0515,6.8887,6.8849,6.79,0.0,6.6254,6.6195,6.6195,6.6195,6.6195,6.6195,6.6195,6.6195,6.6118,6.5393,6.5045,6.4764,6.309,6.2452,6.2287,6.1453,6.1201,6.119,6.119,6.0965,6.0697,6.0661,6.0649,6.0649,6.0649,6.0649,6.0649,6.0649,6.061,6.0597,6.0597,5.9984,5.9421,5.9421,5.9421,5.9421,5.9421,6.0061,6.0636,6.0597,6.0636,6.0597,6.0623,6.0623,6.0623,6.0585,6.0585,6.0585,6.0585,6.0289,6.0129,6.0129,6.0188,6.0232,6.0232,6.0412,6.0531,6.0531,6.0584,6.0585,6.0585,6.0585,6.0163,5.9396,5.9332,5.8488,4.4072,0.0,4.6822,4.7548,4.7091,4.6201,0.0,4.3769,4.3033,4.4395,4.4136,4.4155,4.5628,4.659,4.7714,4.9226,5.1629,5.411,5.6443,0.0,0.0,6.7966,6.9245,7.0253,7.1106,7.1378,7.1494,7.1494,7.1494,7.1494,7.1494,7.1494,7.1494,7.1494,7.1465,7.1455,7.1455,7.1455,7.1465,7.1475,7.1475,7.0583,6.8887,6.8878,6.7948,6.6367,6.6349,6.6349,6.6349,6.6349,6.6349,6.6349,6.6349,6.6349,6.6349,6.6156,6.5652,6.5023,6.4587,6.4006,6.3416,6.3206,6.3061,6.299,6.299,6.2011,6.0933,6.0911,6.0911,6.0911,6.0911,6.0911,6.0911,6.0911,6.0877,6.0843,6.0843,6.0615,6.0438,6.0438,6.0438,6.045,6.0535,6.0654,6.0757,6.0843,6.0808,6.0722,6.0673,6.0673,6.0648,6.0623,6.0585,6.0585,6.0585,6.052,6.048,6.048,6.0493,6.0506,6.0506,6.0533,6.0597,6.0597,6.0572,6.0585,6.0585,6.0585,6.0508,6.0278,5.9638,5.9163,4.3051,4.4318,4.5506,4.6377,4.6268,4.5686,4.4891,4.3967,4.3579,4.4509,4.4327,4.4533,4.624,4.7559,4.8839,5.0196,5.2859,5.5962,0.0,0.0,6.6553,6.8726,6.9735,7.0589,0.0,7.1559,7.1559,7.1559,7.1559,7.1559,7.1559,7.1586,7.1594,7.1594,7.1573,7.1547,7.1494,7.1494,7.1504,7.1561,7.1561,7.064,6.8998,6.898,6.8002,6.6411,6.6394,6.6385,6.6385,6.6385,6.6385,6.6385,6.6385,6.6385,6.6385,6.6385,6.6114,6.564,6.5252,6.4515,6.3817,6.3791,6.3747,6.37,6.37,6.3023,6.2288,6.2187,6.2155,6.2039,6.1653,6.1537,6.146,6.1113,6.0965,6.0944,6.0944,6.0922,6.09,6.09,6.09,6.0911,6.0944,6.0922,6.0911,6.0944,6.0922,6.0888,6.0816,6.0854,6.0804,6.0808,6.0796,6.0796,6.0796,6.0796,6.071,6.0623,6.0648,6.0673,6.0673,6.0734,6.0962,6.1346,6.1731,6.1923,6.1923,6.1538,6.1346,6.1308,6.0496,5.993,4.2931,4.4056,4.4948,4.5879,4.5917,4.5568,4.5025,4.4715,4.456,4.4676,4.4821,4.5426,4.7173,4.8998,5.0557,5.1567,5.4685,0.0,6.2439,6.5149,6.7301,6.8933,6.9943,0.0,7.1544,7.1622,7.1622,7.1622,7.1622,7.1544,7.1428,7.1497,7.1474,7.1318,7.1308,7.1264,7.1153,7.1386,7.1559,7.1594,7.1478,7.0602,6.9127,6.8901,6.7953,6.6431,0.0,0.0,6.6428,6.6428,6.6428,6.6428,6.6428,6.642,6.6411,6.6411,6.6411,6.6325,6.5588,6.4804,6.4222,6.4222,6.4214,6.4214,6.4214,6.4214,6.4179,6.4008,6.3763,6.3338,6.2478,6.2246,6.2053,6.1242,6.1039,6.1029,6.1029,6.1018,6.1018,6.1018,6.1018,6.1018,6.1018,6.1008,6.1008,6.1008,6.0997,6.0987,6.0987,6.0987,6.0987,6.0987,6.0987,6.1064,6.119,6.119,6.1142,6.1044,6.0911,6.0893,6.1008,6.1252,6.1692,6.2397,6.313,6.3516,6.3516,6.2744,6.2397,6.2397,6.1702,6.1008,4.292,4.4067,4.516,4.669,4.5986,4.506,4.567,4.4704,4.3883,4.4626,4.5385,4.6416,4.8093,5.0407,5.2601,0.0,0.0,6.166,0.0,0.0,6.8047,6.9052,0.0,7.1542,7.1658,7.1697,7.1697,7.1697,7.1697,7.1386,7.0725,7.0693,7.0342,6.9603,6.9571,6.9564,6.9536,7.0944,7.1683,7.169,7.099,7.0134,6.9168,6.8423,6.7528,6.6562,0.0,6.6555,6.6555,6.6555,6.6555,6.6555,6.6555,6.6574,6.6585,6.6585,6.6524,6.6454,6.633,6.6151,6.6001,6.6001,6.5985,6.5997,6.5997,6.5997,6.5989,6.5962,6.4906,6.3541,6.2689,6.2456,6.2263,6.1449,6.122,6.1155,6.1155,6.1118,6.109,6.109,6.109,6.109,6.109,6.106,6.0992,6.0992,6.099,6.0987,6.0987,6.0987,6.0987,6.0987,6.0987,6.1267,6.1962,6.2011,6.2298,6.2998,6.1737,6.1274,6.194,6.2695,6.3169,6.3285,6.3439,6.3516,6.3516,6.3362,6.3285,6.3285,6.325,6.3117,4.301,4.3807,4.4793,4.7383,4.7439,4.6918,4.7295,4.6795,4.6528,4.7403,4.7923,4.8711,5.0384,5.2456,5.4913,5.8065,0.0,6.3474,6.5064,6.7204,6.8761,0.0,0.0,7.1718,7.1718,7.1718,7.1718,7.1718,7.129,7.0901,7.0512,7.0058,6.9604,6.9214,6.9233,6.9245,6.9245,7.0024,7.0395,7.0356,6.996,6.9338,6.8482,6.8093,6.7438,6.6581,0.0,6.6581,6.6581,6.6581,6.6581,6.6581,6.6581,6.6614,6.6601,6.6601,6.6588,6.6535,6.6535,6.6521,6.6507,6.6507,6.65,6.6524,6.6524,6.6524,6.6524,6.6524,6.5879,6.4981,6.4128,6.3546,6.3003,6.215,6.1591,6.1264,6.1264,6.1208,6.1199,6.1199,6.1199,6.1199,6.1199,6.1182,6.1164,6.1164,6.1146,6.1166,6.1166,6.1166,6.1321,6.1746,6.1824,6.2133,6.2994,6.3071,6.3187,6.352,6.2885,6.2645,6.3061,6.3903,6.4348,6.4348,6.4812,6.5083,6.5083,6.458,6.4348,6.4348,6.3903,6.3719,4.3013,4.3687,4.4673,4.7898,4.8652,4.8743,4.9114,4.9352,4.9712,5.0432,5.0909,5.1653,5.3137,5.5161,0.0,6.1512,6.3414,6.4699,6.5516,6.7696,6.9208,6.9208,7.0687,7.1706,7.1706,7.155,7.1433,7.1433,7.0694,7.0142,6.9948,6.9272,6.8816,6.8622,6.865,6.8699,6.8699,6.871,6.8878,6.9208,6.9013,6.8585,6.7924,6.7729,6.7262,6.6606,6.6606,6.6606,6.6606,6.6606,6.6606,6.6606,6.6606,6.66,6.6633,6.6627,6.6581,6.6581,6.6581,6.6581,6.6581,6.6581,6.6581,6.6581,6.6581,6.6581,6.6581,6.6581,6.639,6.5979,6.5319,6.4504,6.3651,6.2789,6.1935,6.1353,6.1345,6.1353,6.1353,6.1345,6.1306,6.1306,6.133,6.1322,6.1314,6.1306,6.1297,6.1297,6.1297,6.1452,6.1801,6.2422,6.2693,6.3158,6.4011,6.4283,6.4355,6.428,6.4116,6.4038,6.4113,6.4924,6.5407,6.5407,6.6075,6.6385,6.6385,6.5717,6.5407,6.5407,6.4709,6.4408,4.2883,4.4128,4.5373,4.8015,4.872,4.9109,5.0671,5.1643,5.2227,5.231,5.3609,5.5025,5.5964,5.8866,6.1758,6.3629,6.472,6.5616,6.6468,0.0,6.9278,6.9278,7.0759,7.1772,7.1772,7.111,7.0681,7.0681,6.9863,6.9045,6.8221,6.811,6.772,6.6902,6.6863,6.6907,6.6907,6.6892,6.7711,6.9278,6.846,6.8065,6.7987,6.7169,6.6741,6.6702,6.6702,6.6702,6.6702,6.6702,6.6702,6.6702,6.6702,6.6691,6.6702,6.6633,6.6581,6.6581,6.6581,6.6581,6.6581,6.6581,6.6581,6.6581,6.6581,6.6581,6.6581,6.6581,6.5991,6.5362,6.5285,6.4701,6.3845,6.2989,6.2133,6.146,6.1389,6.1447,6.146,6.1389,6.1383,6.1376,6.1373,6.1337,6.1306,6.1306,6.1297,6.1297,6.1297,6.1956,6.246,6.2499,6.3236,6.405,6.4942,6.5756,6.6221,6.6212,6.5437,6.5011,6.5011,6.5834,6.6308,6.6308,6.6385,6.6385,6.6385,6.6346,6.6308,6.6308,6.623,6.623,4.2903,4.4238,4.5609,4.8725,5.0322,5.1412,5.2567,5.3497,5.4436,5.5506,5.6256,5.7161,5.8577,0.0,6.2804,6.3986,6.5355,6.6408,6.672,6.7812,6.8553,6.8553,6.9566,7.0264,7.0264,6.9952,6.9796,6.9796,6.9021,6.8397,6.808,6.7539,6.711,6.6759,6.6759,6.6759,6.6759,6.6767,6.7079,6.7734,6.7422,6.7266,6.7227,6.6915,6.6759,6.6759,6.6759,6.6759,6.6759,6.6759,6.6759,6.6755,6.6702,6.6693,6.6639,6.6068,6.5862,6.5784,6.5239,6.5444,6.5928,6.5928,6.6288,6.6732,6.6732,6.6732,6.6615,6.6064,6.6069,6.6093,6.5477,6.4286,6.3196,6.2885,6.2145,6.1478,6.1466,6.1472,6.1478,6.1466,6.1466,6.1615,6.2186,6.2251,6.2387,6.2903,6.2973,6.2966,6.2975,6.3239,6.3635,6.417,6.5008,6.5683,6.5994,6.6344,6.65,6.65,6.6159,6.5915,6.5915,6.6251,6.6461,6.6461,6.6461,6.6461,6.6461,6.6493,6.6773,6.7247,6.6764,6.681,4.3325,4.4663,4.6157,4.9588,5.1728,5.344,5.5104,5.6143,5.7152,5.8616,5.9369,6.0118,6.13,0.0,0.0,0.0,6.5847,6.6783,6.6783,6.7563,6.8109,6.8109,6.8808,6.9315,6.9315,6.9081,6.8925,6.8925,6.8149,6.768,6.768,6.7134,6.6783,6.6783,6.6783,6.6783,6.6783,6.6791,6.6794,6.6794,6.6525,6.656,6.6783,6.6783,6.6783,6.6783,6.651,6.6393,6.6354,6.6081,6.5964,6.596,6.5948,6.5901,6.5823,6.5221,6.5021,6.4943,6.4359,6.4718,6.5511,6.5511,6.6108,6.6783,6.6783,6.6783,6.6666,6.6077,6.6159,6.6225,6.5533,6.4493,6.3665,6.3614,6.2953,6.2246,6.1968,6.1935,6.1935,6.1929,6.1929,6.2202,6.3058,6.3202,6.3384,6.3949,6.4021,6.4014,6.4026,6.4252,6.4733,6.5609,6.6491,6.701,6.701,6.7243,6.7399,6.7399,6.733,6.7052,6.6501,6.6492,6.6546,6.6546,6.6818,6.6934,6.6934,6.7274,6.7716,6.8221,6.7665,6.7755,4.4217,4.5554,4.7047,5.0558,5.2665,5.4846,5.8318,5.9732,6.0564,6.1448,6.2988,6.4212,6.4212,6.4914,0.0,6.55,6.6237,6.6783,6.6783,6.7524,6.8109,6.8109,6.8769,6.9276,6.9276,6.8578,6.8109,6.8109,6.729,6.6783,6.6783,6.6783,6.6783,6.6783,6.6783,6.6783,6.6783,6.6805,6.6772,6.6772,6.5967,6.5998,6.6783,6.6783,6.6783,6.6744,6.5843,6.5492,6.5414,6.456,6.4209,6.4209,6.4209,6.4209,6.4209,6.4209,6.4209,6.4209,6.4209,6.4751,6.5492,6.5492,6.6081,6.6783,6.6783,6.6783,6.6783,6.6783,6.6159,6.55,6.55,6.5519,6.5498,6.5392,6.4725,6.3862,6.3019,6.2878,6.2888,6.2824,6.2819,6.3091,6.3948,6.4115,6.413,6.413,6.413,6.413,6.413,6.483,6.5648,6.6504,6.7405,6.7911,6.7911,6.8689,6.9195,6.9195,6.9195,6.8417,6.6698,6.662,6.662,6.662,6.7476,6.7911,6.7911,6.8767,6.9195,6.9195,6.9195,6.9195,4.4972,4.6889,4.8842,5.2314,5.4459,5.6644,6.0074,6.1042,6.1619,6.3109,6.3858,6.4216,6.4187,6.4893,0.0,6.5571,6.6274,6.6784,6.6784,6.7016,6.7172,6.7172,6.7406,6.7523,6.7523,6.7328,6.7172,6.7172,6.694,6.6784,6.6784,6.6784,6.6784,6.6784,6.6784,6.6784,6.6784,6.6241,6.597,6.597,6.5075,6.5114,6.5923,6.5337,6.5028,6.5028,6.4752,6.4674,6.4635,6.4364,6.4286,6.4283,6.4232,6.419,6.4148,6.351,6.3272,6.3272,6.3272,6.3865,6.4694,6.5283,6.6073,6.6784,6.6784,6.6784,6.6667,6.6118,6.6196,6.6274,6.5673,6.5939,6.6088,6.486,6.4349,6.4111,6.3834,6.3799,6.3803,6.3795,6.3783,6.4042,6.4939,6.5031,6.5239,6.5845,6.5917,6.5911,6.5848,6.6606,6.7241,6.7475,6.8355,6.8872,6.8872,6.9106,6.9268,6.925,6.925,6.9028,6.8456,6.8417,6.8417,6.8417,6.8689,6.8806,6.8806,6.9059,6.9499,7.0083,6.9546,6.9601,4.6392,4.8777,5.1082,5.4203,5.6506,5.8964,6.2398,6.3172,6.3559,6.4925,6.5244,6.5211,6.522,6.5652,0.0,6.6053,6.6483,6.6795,6.6795,6.6795,6.6795,6.6795,6.6795,6.6795,6.6795,6.6795,6.6795,6.6795,6.68,6.6802,6.6802,6.6846,6.6692,6.634,6.6301,6.6145,6.5794,6.5325,6.5091,6.5052,6.4193,6.4076,6.4544,6.4379,6.4299,6.4299,6.3911,6.3601,6.3252,6.3252,6.3252,6.3249,6.3235,6.323,6.3149,6.2632,6.2629,6.2942,6.2942,6.3731,6.483,6.5379,6.6126,6.6795,6.6795,6.6795,6.6717,6.6209,6.6444,6.6678,6.616,6.6391,6.6544,6.5464,6.5227,6.5149,6.4797,6.4719,6.4719,6.4719,6.4708,6.4973,6.5866,6.597,6.6113,6.6644,6.6722,6.6717,6.6696,6.7452,6.7969,6.7969,6.9075,6.9826,6.9826,7.0137,7.0337,7.0312,7.0312,7.0293,7.0286,6.9618,6.9229,6.9229,6.9579,6.9774,6.9774,7.0102,7.0541,7.1048,7.0571,7.0624,4.8203,5.0826,5.3448,5.6062,5.8755,6.1607,6.4846,6.5619,6.5845,6.6658,6.6787,6.6798,6.6798,6.6798,6.68,6.68,6.68,6.68,6.68,6.6798,6.6798,6.6798,6.6798,6.6798,6.6798,6.6798,6.6798,6.68,6.6809,6.6813,6.6813,6.686,6.6512,6.5614,6.5614,6.5184,6.4325,6.4208,6.4169,6.4169,6.3311,6.2881,6.292,6.3685,6.4067,6.4028,6.3217,6.2439,6.1699,6.1699,6.1699,6.1697,6.1688,6.1683,6.1683,6.1683,6.2269,6.3011,6.3089,6.4221,6.5626,6.5704,6.6214,6.68,6.68,6.68,6.68,6.68,6.68,6.68,6.68,6.68,6.6792,6.6801,6.6791,6.6596,6.5776,6.562,6.562,6.562,6.562,6.5851,6.667,6.6783,6.6783,6.6783,6.6783,6.6822,6.69,6.7684,6.823,6.8308,6.9748,7.0723,7.0723,7.1425,7.1893,7.1893,7.1893,7.1897,7.1897,7.0376,6.9553,6.9553,7.0294,7.0723,7.0723,7.1503,7.1893,7.1893,7.1893,7.1893,4.8932,5.1745,5.4363,5.698,6.0573,6.3853,6.5259,6.6117,6.6657,6.6756,6.68,6.6809,6.6809,6.6854,6.6898,6.6898,6.6898,6.6898,6.6898,6.6815,6.6809,6.6809,6.6802,6.68,6.6807,6.6809,6.6813,6.6859,6.686,6.6862,6.6862,6.6902,6.6512,6.5614,6.5614,6.5184,6.4325,6.3622,6.3271,6.3271,6.2412,6.1983,6.1983,6.2174,6.2251,6.2251,6.2057,6.1863,6.1707,6.1707,6.1707,6.1707,6.1705,6.1704,6.1704,6.1704,6.2251,6.3111,6.3775,6.4713,6.5728,6.639,6.6742,6.6898,6.6898,6.6898,6.6898,6.6898,6.6898,6.6898,6.6898,6.6898,6.6898,6.6893,6.6841,6.6748,6.6553,6.6514,6.6514,6.6514,6.6505,6.6574,6.6766,6.6794,6.6783,6.6783,6.6783,6.7056,6.7723,6.8542,6.928,6.9982,7.0996,7.162,7.162,7.1776,7.1901,7.1916,7.192,7.1924,7.1976,7.1558,7.1347,7.1347,7.1503,7.162,7.162,7.1815,7.1893,7.1893,7.1909,7.192,4.9797,5.2922,5.6163,5.9991,6.2647,6.4638,6.5927,6.6552,6.6901,6.6854,6.6856,6.6857,6.6857,6.6862,6.6904,6.6904,6.6904,6.6904,6.6904,6.686,6.6857,6.6857,6.6854,6.6854,6.6857,6.6857,6.6859,6.6902,6.6906,6.6907,6.6907,6.6519,6.5895,6.4997,6.4567,6.3942,6.3044,6.2614,6.238,6.238,6.1912,6.1716,6.1716,6.1711,6.1709,6.1709,6.1712,6.1713,6.1713,6.1713,6.1713,6.1713,6.171,6.1709,6.1748,6.2178,6.2881,6.374,6.4638,6.5498,6.6318,6.6747,6.6904,6.6904,6.6904,6.6904,6.6904,6.6904,6.6904,6.6904,6.6904,6.6904,6.6904,6.6904,6.6859,6.6852,6.6852,6.6852,6.6852,6.6852,6.6802,6.6792,6.6792,6.6781,6.6811,6.6811,6.7162,6.7592,6.8021,6.9192,7.0128,7.0593,7.1416,7.1963,7.1963,7.1969,7.194,7.1948,7.1953,7.1961,7.2004,7.1953,7.194,7.1963,7.1969,7.1933,7.1933,7.1943,7.1945,7.1945,7.1953,7.1956,5.0034,5.3823,5.7963,6.2689,6.3978,6.4525,6.6281,6.6672,6.6711,6.6867,6.6906,6.6905,6.6905,6.6906,6.6906,6.6906,6.6906,6.6906,6.6906,6.6906,6.6905,6.6905,6.6904,6.6904,6.6905,6.6905,6.6905,6.6906,6.6911,6.6834,6.6678,6.5976,6.5117,6.4101,6.3398,6.2578,6.1719,6.1718,6.1718,6.1718,6.1718,6.1718,6.1718,6.1717,6.1713,6.1712,6.1716,6.1717,6.1717,6.1717,6.1717,6.1717,6.1713,6.1791,6.2026,6.2729,6.3667,6.4644,6.5348,6.6168,6.6909,6.6908,6.6908,6.6908,6.6907,6.6906,6.6906,6.6906,6.6906,6.6906,6.6906,6.6906,6.6906,6.6906,6.6906,6.6906,6.6904,6.6904,6.6904,6.6904,6.6859,6.6815,6.6815,6.6809,6.6841,6.6998,6.7622,6.8208,6.852,6.9809,7.0743,7.0899,7.1566,7.1995,7.1995,7.2004,7.2008,7.2008,7.2016,7.2019,7.2019,7.2019,7.2012,7.1995,7.2004,7.2008,7.2008,7.2016,7.2019,7.2019,7.2019,7.2019,4.8281,5.3398,5.8437,6.1328,6.2617,6.3633,6.539,6.5781,6.5976,6.6757,6.6912,6.6911,6.6911,6.6913,6.6914,6.6914,6.6914,6.6914,6.6914,6.6912,6.6911,6.6911,6.6906,6.6905,6.691,6.6911,6.6912,6.6914,6.6914,6.6562,6.582,6.5664,6.4844,6.3203,6.3046,6.2577,6.1717,6.1713,6.1711,6.1711,6.1711,6.1711,6.1711,6.1712,6.1717,6.1718,6.1719,6.1719,6.1719,6.1719,6.1719,6.1719,6.1718,6.2148,6.285,6.2968,6.4021,6.5423,6.5541,6.6166,6.6909,6.6912,6.6913,6.6913,6.6914,6.6914,6.6914,6.6914,6.6914,6.6914,6.6914,6.6914,6.6914,6.6914,6.6914,6.6913,6.6906,6.6904,6.6904,6.6904,6.6902,6.6901,6.6901,6.6901,6.7135,6.7838,6.8034,6.8658,7.0143,7.0572,7.1002,7.1742,7.1938,7.2016,7.2016,7.2017,7.2017,7.2017,7.2019,7.2019,7.2019,7.2019,7.2019,7.2016,7.2017,7.2017,7.2017,7.2019,7.2019,7.2019,7.2019,7.2019,4.8982,5.3318,5.7185,6.0193,6.1638,6.2732,6.4489,6.488,6.5114,6.5973,6.617,6.6328,6.6796,6.6914,6.6914,6.6913,6.6913,6.6913,6.6913,6.6914,6.6914,6.6914,6.6483,6.617,6.6171,6.5741,6.5429,6.5429,6.5429,6.5272,6.488,6.4411,6.3786,6.3005,6.2534,6.2104,6.1713,6.171,6.1709,6.1709,6.1709,6.1709,6.1709,6.1709,6.1711,6.1716,6.1716,6.1716,6.1716,6.1716,6.1716,6.1716,6.1716,6.2222,6.304,6.3548,6.4524,6.5653,6.616,6.659,6.6904,6.6906,6.6907,6.6908,6.691,6.6911,6.6911,6.6911,6.6911,6.6911,6.6911,6.7223,6.7575,6.7575,6.7967,6.8281,6.8281,6.7577,6.7029,6.7534,6.8002,6.8313,6.831,6.831,6.8427,6.8778,6.9247,6.9833,7.0614,7.1122,7.159,7.1941,7.2019,7.2019,7.2019,7.1985,7.1986,7.1986,7.1989,7.199,7.199,7.1991,7.1992,7.1992,7.1989,7.1986,7.1986,7.1989,7.199,7.199,7.199,7.199,4.8705,5.2142,5.5071,5.8312,5.9914,6.1242,6.3195,6.3624,6.3937,6.503,6.546,6.5814,6.6444,6.6757,6.6912,6.691,6.691,6.691,6.691,6.691,6.6911,6.6913,6.6132,6.5585,6.5585,6.4804,6.4296,6.4294,6.4294,6.4214,6.3974,6.335,6.2881,6.2686,6.2059,6.1707,6.1707,6.1704,6.1702,6.1702,6.1702,6.1702,6.1702,6.1702,6.1702,6.1704,6.1707,6.1709,6.1709,6.1709,6.1709,6.1709,6.1709,6.2216,6.3113,6.3972,6.4869,6.5725,6.6586,6.6859,6.6859,6.686,6.686,6.6862,6.6902,6.6904,6.6904,6.6904,6.6904,6.6943,6.7138,6.7646,6.8154,6.8388,6.8938,6.9411,6.9412,6.8437,6.7734,6.8397,6.8983,6.9412,6.9409,6.9408,6.9486,6.9681,7.0267,7.0775,7.1009,7.1595,7.1986,7.1987,7.1988,7.1988,7.1989,7.2187,7.2226,7.1992,7.2226,7.2226,7.1991,7.1989,7.1988,7.1988,7.1992,7.1992,7.1992,7.1992,7.1991,7.1991,7.1991,7.199,4.5815,4.9018,5.2259,5.4914,5.6828,5.8743,6.1242,6.1828,6.2335,6.4014,6.5029,6.5616,6.5655,6.6358,6.6904,6.6904,6.6904,6.6904,6.6904,6.6904,6.6904,6.6904,6.6124,6.5616,6.5616,6.4796,6.4288,6.4288,6.4288,6.3937,6.3115,6.3037,6.2608,6.1787,6.1702,6.1699,6.1699,6.1688,6.1681,6.1681,6.1681,6.1681,6.1681,6.1681,6.1681,6.1683,6.1702,6.1709,6.1709,6.1709,6.1709,6.1709,6.1709,6.2212,6.3103,6.3962,6.4855,6.5704,6.6524,6.6798,6.68,6.6809,6.6813,6.6815,6.6862,6.6904,6.6904,6.6904,6.6904,6.7099,6.7841,6.8075,6.831,6.9129,6.9363,6.9406,6.9414,6.9375,6.9375,6.9336,6.9375,6.9414,6.9414,6.9453,6.9765,7.0508,7.0664,7.1015,7.1836,7.1953,7.1992,7.199,7.199,7.1989,7.1984,7.2764,7.2881,7.206,7.2764,7.2842,7.202,7.1981,7.1981,7.1981,7.1981,7.1982,7.1982,7.1981,7.1981,7.1981,7.1981,7.1981,4.3109,4.553,4.8027,5.119,5.3261,5.5253,5.7828,5.9273,6.0522,6.2279,6.3334,6.4115,6.4661,6.5922,6.6901,6.6857,6.6856,6.6856,6.6856,6.6389,6.6078,6.6084,6.4795,6.3935,6.3935,6.3154,6.2645,6.264,6.264,6.2482,6.2162,6.216,6.2004,6.1692,6.1688,6.1688,6.1688,6.1681,6.1718,6.1718,6.171,6.1707,6.1705,6.1657,6.1654,6.1654,6.1627,6.1679,6.1692,6.1692,6.1692,6.1692,6.1692,6.2588,6.3874,6.4186,6.5199,6.6405,6.6717,6.6795,6.6798,6.68,6.6802,6.6802,6.6846,6.6848,6.6848,6.6848,6.6848,6.7043,6.7863,6.8527,6.931,7.0722,7.1073,7.1077,7.1087,7.0659,7.0268,7.0229,7.0698,7.1088,7.1088,7.1088,7.1206,7.1479,7.1518,7.1635,7.1948,7.1987,7.1987,7.1985,7.1985,7.2218,7.2801,7.3114,7.3426,7.366,7.3973,7.3973,7.37,7.3148,7.2832,7.2832,7.2278,7.2008,7.2019,7.2019,7.2019,7.2019,7.2567,7.2837,4.0556,4.2588,4.4815,4.7664,4.9891,5.2078,5.4693,5.6606,5.8402,6.039,6.1759,6.2813,6.3711,6.5052,6.5995,6.5989,6.5948,6.5948,6.5948,6.5518,6.5171,6.5178,6.3889,6.2991,6.2991,6.2209,6.1699,6.1692,6.1692,0.0,6.172,6.1718,6.1718,6.1718,6.1715,6.1713,6.1713,6.1668,6.1666,6.1666,6.1657,6.1651,6.1651,6.1602,6.1595,6.1595,6.1595,6.1648,6.1666,6.1666,6.1666,6.1705,6.1978,6.2803,6.394,6.4487,6.5426,6.6444,6.6712,6.679,6.6787,6.6784,6.6781,6.6781,6.6781,6.6781,6.6781,6.6787,6.679,6.7063,6.8239,6.9411,7.0545,7.1724,7.2,7.2002,7.201,7.1547,7.112,7.112,7.1589,7.2019,7.2019,7.2019,7.2019,7.2019,7.2019,7.2019,7.2019,7.2019,7.2019,7.2016,7.225,7.2678,7.326,7.3807,7.4277,7.4551,7.4824,7.4863,7.459,7.3996,7.3718,7.3713,7.3116,7.2846,7.2859,7.228,7.2167,7.244,7.3026,7.3607,0.0,0.0,0.0,4.4424,4.6766,4.9306,5.1921,5.3914,5.5903,5.848,6.0351,6.1835,6.2735,6.3594,6.4182,6.4182,6.426,6.4299,6.4299,6.4299,6.426,6.426,6.3477,6.2969,6.2969,6.2189,6.1718,6.1718,6.1718,6.1718,6.1718,6.1718,6.1718,6.1718,6.1705,6.1699,6.1699,6.1644,6.1595,6.1595,6.1595,6.1595,6.1595,6.1595,6.1595,6.1595,6.1595,6.1595,6.1595,6.1595,6.1634,6.1712,6.257,6.2971,6.326,6.4896,6.5571,6.5738,6.6544,6.6811,6.6808,6.6791,6.6783,6.6783,6.6783,6.6783,6.6787,6.6805,6.6811,6.7205,6.894,7.0699,7.1987,7.1987,7.1987,7.1987,7.1987,7.2004,7.2019,7.2019,7.2019,7.2019,7.2019,7.2019,7.2058,7.2058,7.2058,7.2058,7.2058,7.2058,7.2055,7.2084,7.2826,7.3369,7.3354,7.4876,7.5462,7.4642,7.5384,7.5462,7.4603,7.4564,7.4555,7.4535,7.4496,7.4488,7.4507,7.2867,7.2492,7.3351,7.3351,7.4239,3.7338,0.0,0.0,0.0,0.0,0.0,4.8205,5.0785,5.321,5.5825,5.7699,5.9143,6.0002,6.09,6.1486,6.1486,6.3089,6.4299,6.4299,6.375,6.336,6.336,6.2579,6.2071,6.2071,6.1835,6.1718,0.0,6.1718,6.1715,6.1705,6.1657,6.1651,6.1651,6.1644,6.1641,6.1641,6.1598,6.1595,6.1595,6.158,6.1612,6.1612,6.1595,6.1591,6.1591,6.1591,6.1591,6.1591,6.1584,6.1985,6.257,6.2804,6.3666,6.4879,6.5344,6.5897,6.6486,6.6716,6.6791,6.6791,6.6787,6.6783,6.6783,6.6783,6.6783,6.6783,6.6791,6.6791,6.7184,6.8905,7.0622,7.1948,7.1948,7.1948,7.1948,7.1948,7.1916,7.1933,7.1995,7.1997,7.1997,7.1997,7.2505,7.2935,7.2935,7.3442,7.3794,7.3794,7.3794,7.3794,7.3827,7.4023,7.4408,7.5056,7.5521,7.5947,7.6283,7.6517,7.6556,7.6322,7.5733,7.5456,7.5452,7.4827,7.4511,7.4507,7.4012,7.3938,7.4172,7.4796,7.5651,0.0,0.0,0.0,0.0,0.0,0.0,4.5304,4.7925,5.0503,5.3121,5.4994,5.6553,5.7802,5.8738,5.9324,5.9324,6.0885,6.2371,6.3125,6.2774,6.2462,6.2462,6.1991,6.1718,6.171,6.171,6.1707,6.1663,6.1663,6.166,6.1651,6.129,6.1091,6.1091,6.073,6.0531,6.0531,6.0524,6.052,6.052,6.0893,6.1045,6.108,6.1417,6.1607,6.1607,6.1607,6.1607,6.1612,6.1599,6.2114,6.2933,6.3284,6.4263,6.5558,6.587,6.6346,6.6783,6.6771,6.6771,6.6767,6.6759,6.6755,6.6755,6.6755,6.6755,6.6759,6.6767,6.7282,6.8149,6.9475,7.0879,7.1893,7.1893,7.1893,7.1893,7.1893,7.1893,7.1901,7.1963,7.1966,7.2083,7.2434,7.2903,7.3371,7.3761,7.419,7.4503,7.4503,7.4503,7.4503,7.4503,7.4815,7.5241,7.5776,7.6127,7.6513,7.6969,7.7004,7.7004,7.7004,7.6535,7.6297,7.6288,7.582,7.5542,7.5528,7.4849,7.4702,7.5053,7.5902,7.6561,0.0,0.0,0.0,0.0,0.0,0.0,4.3146,4.5292,4.7674,5.0288,5.2161,5.3838,5.5474,5.6566,5.7268,5.7346,5.8084,5.9303,6.1164,6.1403,6.1403,6.1403,6.152,6.1554,6.1543,6.1657,6.1651,6.1598,6.1517,6.1513,6.1591,6.0733,6.0304,6.0382,5.9506,5.8987,5.8987,5.9005,5.8996,5.8996,5.9888,6.0278,6.0317,6.1169,6.1598,6.1598,6.1598,6.1598,6.1598,6.1602,6.2153,6.3088,6.3828,6.4739,6.5732,6.6434,6.6759,6.6771,6.6716,6.6707,6.6702,6.6717,6.6712,6.6712,6.6712,6.6712,6.6717,6.6814,6.805,6.951,7.0364,7.1222,7.1885,7.1885,7.1885,7.1885,7.1885,7.1885,7.1924,7.2002,7.2045,7.2279,7.3059,7.3371,7.3762,7.4546,7.4702,7.478,7.478,7.478,7.478,7.478,7.5482,7.5946,7.5946,7.657,7.6999,7.6999,7.6999,7.6999,7.6999,7.6999,7.6985,7.6999,7.6999,7.6983,7.6993,7.5489,7.5161,7.5941,7.6659,7.6994,0.0,0.0,0.0,0.0,0.0,0.0,4.2114,4.3058,4.4122,4.6699,4.8571,5.009,5.1146,5.2629,5.3916,5.458,5.5396,5.6803,5.9264,5.9615,5.9615,5.9615,6.0243,6.063,6.0666,6.1251,6.1598,6.1595,6.0956,6.0867,6.1569,6.0114,5.9599,6.03,5.9473,5.9005,5.9005,5.8983,5.9007,5.9007,5.9843,6.0222,6.0261,6.1112,6.1501,6.1501,6.1501,6.1501,6.1501,6.1528,6.2445,6.3867,6.4023,6.5075,6.6483,6.6639,6.6722,6.6727,6.6678,6.6717,6.6717,6.6712,6.6712,6.6712,6.6712,6.6712,6.6868,6.7535,6.8515,6.9499,7.0357,7.1209,7.1833,7.1833,7.1833,7.1833,7.1833,7.1833,7.2028,7.2729,7.292,7.2981,7.3176,7.4347,7.5365,7.5521,7.6106,7.6496,7.6496,7.6496,7.6496,7.6496,7.6652,7.6761,7.678,7.6897,7.7004,7.7017,7.7017,7.7017,7.7017,7.7017,7.7017,7.7005,7.6942,7.6923,7.6917,7.6649,7.6588,7.6783,7.6864,7.693,0.0,0.0,0.0,3.9591,0.0,0.0,0.0,4.1089,4.1605,4.3281,4.5036,4.6479,4.734,4.8938,5.0225,5.0654,5.1782,5.3068,5.4394,5.6826,5.8435,5.8435,5.9215,5.9719,5.9712,6.0059,6.029,6.0282,5.9919,6.0027,6.0924,5.9317,5.8763,5.962,5.8364,5.7697,5.7697,5.7707,5.7697,5.7697,5.8537,5.9116,5.9577,6.0433,6.1095,6.1484,6.1484,6.1484,6.1484,6.1501,6.253,6.4099,6.4115,6.5122,6.6669,6.6669,6.6669,6.6669,6.6669,6.6669,6.6669,6.6669,6.6669,6.6669,6.6669,6.6941,6.7481,6.8337,6.9239,7.0096,7.0913,7.1459,7.1731,7.1731,7.1782,7.1794,7.1794,7.1806,7.2045,7.2924,7.3492,7.3943,7.4387,7.5172,7.5913,7.6342,7.6731,7.7004,7.7004,7.7004,7.7004,7.7004,7.7004,7.6999,7.6983,7.6983,7.7011,7.6936,7.6936,7.6969,7.6949,7.6949,7.6949,7.6949,7.7318,7.7499,7.7499,7.7987,7.7767,7.6949,7.6929,7.6883,0.0,0.0,0.0,0.0,0.0,3.8694,0.0,0.0,0.0,4.0409,4.1809,4.3094,4.3799,0.0,0.0,4.6488,0.0,0.0,0.0,5.2948,0.0,5.6709,5.7723,5.8379,5.8519,5.8675,5.8823,5.9001,5.8685,5.8957,5.9971,5.8412,5.7862,5.8719,5.7215,5.6383,5.6383,5.6397,5.6381,5.6381,5.7192,5.8042,5.8892,5.9793,6.0649,6.1466,6.1466,6.1466,6.1466,6.1472,6.2522,6.4079,6.4076,6.5127,6.6581,6.6581,6.6581,6.6581,6.6581,6.6581,6.6581,6.6581,6.6581,6.6581,6.6581,6.7204,6.8093,6.8949,6.9844,7.0706,7.1485,7.1718,7.1718,7.1718,7.1738,7.1835,7.1991,7.2016,7.2339,7.3399,7.4133,7.484,7.5573,7.5813,7.6163,7.6864,7.6981,7.6981,7.6981,7.6981,7.6981,7.6981,7.6981,7.6981,7.6981,7.6981,7.6969,7.6897,7.6897,7.6883,7.6894,7.6894,7.6894,7.6894,7.7703,7.8085,7.8085,7.8972,7.8707,7.7361,7.7392,7.7275,0.0,0.0,0.0,0.0,3.9123,0.0,0.0,0.0,3.7759,3.8617,0.0,0.0,0.0,0.0,0.0,0.0,0.0,0.0,4.5361,4.7313,4.9808,5.2848,5.4636,5.5922,5.6706,5.7446,5.8183,5.8918,5.7637,5.7481,5.9074,5.7498,5.6943,5.7839,5.6913,5.6391,5.6391,5.6325,5.6308,5.6308,5.7178,5.8014,5.8823,5.9724,6.0578,6.1426,6.1426,6.1426,6.1394,6.1428,6.2432,6.4005,6.4072,6.5109,6.6581,6.6581,6.6581,6.6581,6.6581,6.6581,6.6581,6.6581,6.6581,6.6581,6.6581,6.7204,6.8093,6.8949,6.9844,7.0706,7.1485,7.1718,7.1718,7.1718,7.1718,7.1919,7.2698,7.2853,7.3366,7.4994,7.5383,7.55,7.5585,7.6246,7.6791,7.6908,7.6908,7.6908,7.6908,7.6908,7.6908,7.6908,7.6908,7.6908,7.6908,7.6908,7.6908,7.6901,7.6901,7.6901,7.6894,7.6894,7.6894,7.6894,7.7673,7.8084,7.8084,7.8898,7.9234,7.9104,7.9112,7.8707,0.0,0.0,0.0,0.0,0.0,0.0,3.85,0.0,3.6551,0.0,0.0,0.0,0.0,0.0,0.0,0.0,4.0776,0.0,0.0,0.0,4.5963,0.0,0.0,0.0,5.4087,5.4983,5.5645,5.5996,5.5831,5.6212,5.742,5.6811,5.6796,5.7614,5.6809,5.6325,5.6325,5.629,5.6317,5.6317,5.6654,5.7535,5.8817,5.9166,6.0099,6.1412,6.1412,6.1412,6.1419,6.1394,6.2133,6.3291,6.3825,6.5083,6.656,6.656,6.656,6.656,6.656,6.656,6.656,6.656,6.656,6.6638,6.7143,6.7921,6.8769,6.9585,7.0479,7.1225,7.1536,7.1653,7.1653,7.1653,7.2057,7.2538,7.2927,7.3416,7.4124,7.5308,7.5533,7.5681,7.6163,7.6591,7.6894,7.6894,7.6894,7.6894,7.6894,7.6894,7.6894,7.6894,7.6894,7.6894,7.6894,7.7322,7.7587,7.7603,7.8045,7.8301,7.8301,7.8301,7.8301,7.8301,7.9066,7.9514,7.9504,8.0311,8.0699,8.0699,7.9737,7.9086,4.415,0.0,0.0,0.0,0.0,0.0,0.0,0.0,0.0,0.0,0.0,0.0,0.0,0.0,0.0,0.0,0.0,3.8649,0.0,3.9933,0.0,0.0,0.0,0.0,0.0,5.2083,5.2745,5.3446,5.3822,5.4631,5.595,5.6041,5.6375,5.7231,5.6619,5.629,5.629,5.6304,5.6291,5.6291,5.6291,5.7185,5.8817,5.8817,5.9749,6.1412,6.1412,6.1412,6.1412,6.1412,6.1917,6.2765,6.3619,6.4854,6.6167,6.6423,6.6508,6.6508,6.6508,6.6508,6.6508,6.6508,6.6508,6.6664,6.7519,6.8412,6.9267,7.0083,7.0937,7.1598,7.1598,7.1598,7.1675,7.1908,7.2477,7.3084,7.3589,7.4196,7.4865,7.5672,7.5819,7.6005,7.6573,7.676,7.6864,7.6864,7.6864,7.6864,7.6864,7.6864,7.6864,7.6864,7.6864,7.6864,7.6864,7.7595,7.8162,7.8392,7.894,7.9262,7.9253,7.9253,7.9253,7.9253,8.0068,8.0464,8.0464,8.1286,8.1691,8.1652,8.0454,7.9776,0.0,0.0,0.0,4.1247,0.0,0.0,0.0,0.0,3.5885,0.0,0.0,0.0,0.0,0.0,0.0,0.0,0.0,0.0,0.0,0.0,0.0,0.0,0.0,0.0,0.0,4.8846,4.9897,0.0,5.1804,5.2422,5.5029,5.5075,5.5447,5.6308,5.631,5.6298,5.6298,5.6291,5.6291,5.6291,5.6291,5.7185,5.8817,5.8817,5.9749,6.1412,6.1412,6.1412,6.1412,6.1412,6.1864,6.2688,6.3573,6.4402,6.5269,6.6167,6.6508,6.6508,6.6508,6.6508,6.6508,6.6508,6.6508,6.6664,6.7519,6.8412,6.9267,7.0083,7.0937,7.1598,7.1598,7.1598,7.1792,7.2647,7.288,7.3385,7.5064,7.5452,7.5707,7.6516,7.6662,7.6643,7.6632,7.6662,7.6726,7.6726,7.6726,7.6726,7.6726,7.6726,7.6726,7.6726,7.6726,7.6726,7.6726,7.7503,7.8339,7.9107,7.9185,7.9155,7.9093,7.9132,7.9132,7.9132,7.9946,8.0412,8.0412,8.1265,8.1691,8.1691,8.1663,8.1148,0.0,0.0,4.4518,4.3074,0.0,0.0,0.0,0.0,0.0,0.0,0.0,0.0,0.0,0.0,0.0,0.0,0.0,0.0,0.0,0.0,0.0,0.0,0.0,0.0,0.0,0.0,0.0,0.0,5.0422,0.0,5.328,5.4418,5.5417,5.6272,5.6298,5.6285,5.6219,5.6219,5.6245,5.6216,5.6216,5.7109,5.8738,5.8738,5.9669,6.1337,6.1337,6.1337,6.1337,6.1337,6.1493,6.1865,6.33,6.399,6.4408,6.5877,6.6428,6.6428,6.6428,6.6428,6.6428,6.6428,6.6778,6.739,6.8243,6.9136,6.9989,7.0843,7.1308,7.1541,7.1541,7.1929,7.2404,7.275,7.3693,7.4654,7.5312,7.5837,7.6313,7.6565,7.6642,7.6632,7.6612,7.7108,7.7283,7.6701,7.6623,7.6623,7.6623,7.6623,7.6623,7.6623,7.6623,7.6856,7.7438,7.8796,7.995,8.0793,8.0831,8.0821,8.0838,8.0838,8.0838,8.0838,8.1076,8.1209,8.1209,8.1434,8.1565,8.1565,8.1565,8.1434,4.8125,4.71,0.0,4.4775,4.2965,0.0,4.033,0.0,0.0,0.0,0.0,0.0,0.0,0.0,0.0,0.0,0.0,0.0,0.0,3.4264,0.0,0.0,0.0,0.0,0.0,0.0,0.0,0.0,0.0,0.0,0.0,5.3623,5.4925,5.5767,5.6116,5.6258,5.6216,5.6216,5.6202,5.6218,5.6218,5.7071,5.87,5.87,5.963,6.1297,6.1297,6.1297,6.1297,6.1297,6.1289,6.1427,6.3094,6.3744,6.3968,6.5747,6.6385,6.6385,6.6385,6.6385,6.6463,6.6734,6.7191,6.7811,6.9013,6.9749,7.037,7.1262,7.1494,7.1494,7.1494,7.2105,7.2774,7.3122,7.4305,7.541,7.576,7.6245,7.6602,7.6581,7.6542,7.6648,7.6947,7.744,7.7644,7.7144,7.731,7.7387,7.7116,7.7077,7.6922,7.6612,7.6883,7.7542,7.8706,7.9791,8.075,8.163,8.1669,8.1658,8.1624,8.1624,8.1624,8.1624,8.1589,8.1565,8.1565,8.1516,8.1478,8.1466,8.1466,8.1478]}]]